Date StartTime U_cm/s V_cm/s W_cm/s Ustd_cm/s Vstd_cm/s Wstd_cm/s Uvar_(cm/s)^2 Vvar_(cm/s)^2 Wvar_(cm/s)^2 KE_(m/s)^2 TurbulentKE_(m/s)^2 HorizWindSpeed_cm/s FrictionSpeec_cm/s DragCoef SpeedOfSound_m/s SonicTemperature_C Pressure_mb 
05/04/2013  00:00:00     -144.116      203.362      -29.627      101.213       81.081       53.628    10243.996     6574.056     2876.006        4.135        0.985      249.250       57.044        0.052      342.155       17.365      860.671
05/04/2013  00:01:00     -116.391      153.374      -19.574       97.437       88.852       55.779     9493.943     7894.619     3111.351        2.897        1.025      192.537       58.083        0.091      342.087       17.248      860.679
05/04/2013  00:02:00     -129.277      227.502      -33.251      100.938       87.554       58.259    10188.530     7665.674     3394.138        4.541        1.062      261.667       68.093        0.068      342.191       17.424      860.672
05/04/2013  00:03:00     -185.271      237.944      -40.647       83.667       94.614       60.461     7000.216     8951.732     3655.487        5.610        0.980      301.567       51.787        0.029      342.152       17.360      860.671
05/04/2013  00:04:00     -156.650      173.923      -30.614       83.215      104.029       56.191     6924.815    10821.946     3157.420        3.831        1.045      234.070       55.509        0.056      342.178       17.401      860.683
05/04/2013  00:05:00     -153.915      224.973      -41.001      111.985      109.650       62.476    12540.702    12023.121     3903.311        5.222        1.423      272.585       68.015        0.062      342.188       17.420      860.685
05/04/2013  00:06:00      -97.305      197.076      -27.655       81.543       90.760       48.636     6649.251     8237.391     2365.485        3.316        0.863      219.789       48.161        0.048      342.127       17.318      860.681
05/04/2013  00:07:00     -165.189      212.711      -38.671       89.589      120.398       53.697     8026.139    14495.632     2883.405        4.971        1.270      269.320       57.013        0.045      342.168       17.385      860.686
05/04/2013  00:08:00     -112.564      197.903      -18.021       73.169      102.515       56.741     5353.677    10509.422     3219.561        3.562        0.954      227.676       59.321        0.068      342.063       17.207      860.695
05/04/2013  00:09:00     -131.666      201.171      -33.165       68.313       87.869       45.811     4666.601     7720.922     2098.692        3.669        0.724      240.428       47.606        0.039      342.083       17.241      860.704
05/04/2013  00:10:00     -124.272      191.619      -17.410       82.168      119.638       52.070     6751.600    14313.136     2711.252        3.812        1.189      228.389       51.815        0.051      342.022       17.138      860.697
05/04/2013  00:11:00     -122.355      169.894      -28.333       99.171       86.366       54.541     9834.977     7459.089     2974.692        3.245        1.013      209.367       67.071        0.103      342.057       17.197      860.681
05/04/2013  00:12:00     -130.449      153.453      -32.351       60.332       75.446       37.856     3639.920     5692.161     1433.083        2.619        0.538      201.407       35.497        0.031      342.048       17.183      860.699
05/04/2013  00:13:00     -127.736      255.916      -29.082       69.343       87.185       55.851     4808.415     7601.172     3119.328        4.909        0.776      286.024       45.575        0.025      342.085       17.243      860.707
05/04/2013  00:14:00     -116.518      199.047      -33.702       77.295       67.132       52.547     5974.532     4506.661     2761.160        3.378        0.662      230.643       52.147        0.051      342.093       17.259      860.698
05/04/2013  00:15:00     -124.554      173.438      -27.114       66.679       58.070       47.265     4446.144     3372.100     2233.994        2.819        0.503      213.529       42.620        0.040      342.068       17.217      860.708
05/04/2013  00:16:00      -72.561      167.915      -22.045       68.741       80.231       40.690     4725.294     6437.028     1655.698        2.338        0.641      182.922       36.044        0.039      342.045       17.177      860.714
05/04/2013  00:17:00     -123.505      222.732      -23.447       54.204       80.369       50.691     2938.095     6459.205     2569.567        3.869        0.598      254.682       43.146        0.029      342.044       17.174      860.744
05/04/2013  00:18:00     -120.231      209.093      -28.172       75.837       87.543       45.851     5751.273     7663.767     2102.345        3.724        0.776      241.196       48.330        0.040      342.004       17.107      860.757
05/04/2013  00:19:00      -72.815      113.639      -17.866       43.148       72.474       42.682     1861.764     5252.530     1821.754        1.373        0.447      134.966       36.907        0.075      342.060       17.204      860.755
05/04/2013  00:20:00      -83.664      116.017      -11.968       67.059       74.980       50.536     4496.871     5621.961     2553.862        1.664        0.634      143.037       36.237        0.064      342.035       17.161      860.766
05/04/2013  00:21:00      -57.401      137.632       -0.024       85.448       81.779       51.592     7301.438     6687.812     2661.683        1.944        0.833      149.122       42.731        0.082      342.066       17.215      860.790
05/04/2013  00:22:00      -90.946      143.641       -7.768       72.287       97.293       53.893     5225.372     9465.976     2904.480        2.328        0.880      170.012       45.905        0.073      342.080       17.237      860.795
05/04/2013  00:23:00     -116.950       91.883      -16.331       63.062       75.269       34.927     3976.798     5665.415     1219.864        1.662        0.543      148.728       32.021        0.046      342.136       17.334      860.802
05/04/2013  00:24:00      -51.834       24.204       -0.268       53.159       56.621       32.435     2825.863     3205.992     1052.029        0.518        0.354       57.207       29.338        0.263      342.080       17.239      860.808
05/04/2013  00:25:00      -11.830       77.578      -10.887       63.149       64.720       42.993     3987.845     4188.706     1848.358        0.815        0.501       78.475       40.304        0.264      342.070       17.223      860.847
05/04/2013  00:26:00       -5.358      103.437       -6.766       57.549       50.553       35.159     3311.841     2555.593     1236.162        0.894        0.355      103.576       33.813        0.107      342.048       17.186      860.868
05/04/2013  00:27:00       85.597       41.046       12.369       66.385       39.627       29.467     4406.934     1570.274      868.301        0.800        0.342       94.930       20.118        0.045      341.983       17.076      860.871
05/04/2013  00:28:00       40.799       41.293       17.502       40.413       54.221       48.956     1633.226     2939.932     2396.695        0.532        0.348       58.049       38.676        0.444      341.983       17.075      860.869
05/04/2013  00:29:00       55.851       32.566       11.292       25.216       39.478       19.917      635.844     1558.550      396.694        0.345        0.130       64.652        9.058        0.020      341.967       17.047      860.872
05/04/2013  00:30:00       43.097      -76.879       -4.745       33.547       35.521       27.053     1125.382     1261.759      731.862        0.545        0.156       88.134       17.642        0.040      341.985       17.078      860.879
05/04/2013  00:31:00       79.630       24.472       27.525       52.802       71.531       47.393     2788.008     5116.661     2246.077        0.892        0.508       83.306       31.842        0.146      341.853       16.853      860.884
05/04/2013  00:32:00       44.830      -34.825        2.676       57.164       54.981       40.410     3267.696     3022.957     1632.999        0.558        0.396       56.767       32.850        0.335      341.890       16.917      860.893
05/04/2013  00:33:00       59.580       14.098       33.154       30.979       36.316       27.915      959.671     1318.819      779.257        0.395        0.153       61.225       23.495        0.147      341.778       16.725      860.903
05/04/2013  00:34:00       14.105       61.968       69.408       35.843       38.049       34.720     1284.724     1447.736     1205.510        0.640        0.197       63.552       29.163        0.211      341.666       16.538      860.886
05/04/2013  00:35:00       49.614       78.215      101.225       47.324       42.655       29.660     2239.579     1819.439      879.721        1.188        0.247       92.624       29.260        0.100      341.734       16.651      860.880
05/04/2013  00:36:00       86.370      112.512       90.717       51.207       36.182       38.779     2622.196     1309.142     1503.836        1.689        0.272      141.840       30.543        0.046      341.803       16.770      860.868
05/04/2013  00:37:00       34.240       47.282       56.969       51.472       47.447       29.448     2649.331     2251.235      867.177        0.621        0.288       58.378       23.438        0.161      341.737       16.658      860.857
05/04/2013  00:38:00        7.573       23.474       62.067       28.778       39.866       21.988      828.178     1589.333      483.491        0.368        0.145       24.665       21.113        0.733      341.673       16.549      860.868
05/04/2013  00:39:00        9.221       33.561       62.718       30.032       61.329       37.588      901.911     3761.283     1412.893        0.561        0.304       34.804       44.795        1.656      341.725       16.637      860.883
05/04/2013  00:40:00       18.795        1.779       41.647       24.896       35.185       20.863      619.809     1237.972      435.258        0.219        0.115       18.879       17.701        0.879      341.569       16.372      860.890
05/04/2013  00:41:00       22.292        2.736       38.332       21.586       24.513       17.801      465.947      600.900      316.861        0.168        0.069       22.459       14.335        0.407      341.532       16.310      860.897
05/04/2013  00:42:00       27.546      -36.648        5.588       29.832       44.642       19.629      889.968     1992.933      385.316        0.270        0.163       45.846       26.317        0.329      341.644       16.499      860.903
05/04/2013  00:43:00       58.810      -98.167      -18.773       30.931       25.459       20.250      956.698      648.143      410.043        0.773        0.101      114.435       16.753        0.021      341.827       16.809      860.905
05/04/2013  00:44:00       30.176      -66.851        9.907       34.317       36.172       24.674     1177.627     1308.449      608.813        0.429        0.155       73.347       23.499        0.103      341.750       16.680      860.926
05/04/2013  00:45:00       -1.648        9.363       28.717       13.696       19.414       10.675      187.568      376.903      113.962        0.080        0.034        9.507        6.044        0.404      341.426       16.131      860.942
05/04/2013  00:46:00        8.582        1.296       18.479        9.660       12.575       10.865       93.310      158.143      118.056        0.039        0.018        8.679        6.452        0.553      341.291       15.902      860.956
05/04/2013  00:47:00       21.815       11.937       11.085       18.282       11.480       11.214      334.222      131.783      125.743        0.067        0.030       24.867        7.528        0.092      341.232       15.801      860.960
05/04/2013  00:48:00       24.378       42.984       44.451       26.909       22.788       22.578      724.104      519.281      509.745        0.309        0.088       49.415       22.634        0.210      341.190       15.731      860.961
05/04/2013  00:49:00       -2.779       48.791       72.770       17.424       26.209       16.085      303.596      686.899      258.729        0.447        0.062       48.870       17.232        0.124      341.371       16.038      860.957
05/04/2013  00:50:00      -10.442       50.724       59.701       19.174       38.324       26.751      367.648     1468.745      715.609        0.440        0.128       51.788       23.702        0.209      341.445       16.162      860.964
05/04/2013  00:51:00       37.146        0.605       19.718       39.604       29.444       26.733     1568.490      866.929      714.676        0.246        0.158       37.151       30.214        0.661      341.555       16.349      860.964
05/04/2013  00:52:00        0.784       31.030       56.802       23.052       33.647       21.595      531.383     1132.127      466.341        0.316        0.106       31.040       23.061        0.552      341.615       16.450      860.950
05/04/2013  00:53:00        3.198       -0.128       32.621       18.861       38.488       13.333      355.724     1481.353      177.773        0.154        0.101        3.201       10.439       10.639      341.690       16.578      860.933
05/04/2013  00:54:00      -23.870      -42.966       16.253       29.363       22.573       19.190      862.201      509.528      368.254        0.221        0.087       49.151       21.654        0.194      341.578       16.388      860.925
05/04/2013  00:55:00      -14.202      -20.367        6.268       17.353       13.434       13.335      301.140      180.477      177.819        0.066        0.033       24.830        4.251        0.029      341.331       15.969      860.937
05/04/2013  00:56:00      -81.850      -30.630       -0.526       24.826       33.512       16.404      616.318     1123.054      269.093        0.482        0.100       87.393       12.179        0.019      341.577       16.387      860.947
05/04/2013  00:57:00      -54.166      -40.741        4.319       20.582       14.959       13.841      423.637      223.775      191.578        0.273        0.042       67.777       10.462        0.024      341.599       16.423      860.946
05/04/2013  00:58:00      -32.920      -25.529        4.027       28.999       13.990       11.470      840.959      195.707      131.571        0.146        0.058       41.659        9.720        0.054      341.538       16.320      860.950
05/04/2013  00:59:00       -7.601      -33.494       12.684       18.403       14.399       13.910      338.659      207.330      193.493        0.104        0.037       34.346       10.732        0.098      341.463       16.193      860.953
05/04/2013  01:00:00      -17.509      -35.301        1.338       19.308       19.993        9.218      372.786      399.738       84.966        0.121        0.043       39.405        9.214        0.055      341.444       16.159      860.943
05/04/2013  01:01:00      -20.483      -78.493       -6.024       20.897       21.094       12.343      436.683      444.951      152.348        0.383        0.052       81.121       10.414        0.016      341.588       16.406      860.933
05/04/2013  01:02:00      -64.495     -123.598       -5.089       28.904       23.848       17.365      835.449      568.728      301.556        1.058        0.085      139.414       16.783        0.014      341.697       16.591      860.925
05/04/2013  01:03:00      -38.641      -87.794       -3.254       32.460       33.746       17.211     1053.672     1138.764      296.218        0.585        0.124       95.922       14.911        0.024      341.674       16.550      860.909
05/04/2013  01:04:00       -9.589      -27.507        2.979       21.662       14.329       13.896      469.257      205.315      193.089        0.086        0.043       29.131        6.353        0.048      341.531       16.309      860.903
05/04/2013  01:05:00       -0.308        7.215        5.544       12.286        8.384       10.093      150.944       70.296      101.873        0.020        0.016        7.221        8.598        1.418      341.425       16.127      860.892
05/04/2013  01:06:00      -18.256       -6.346        0.793       16.492       23.059       11.591      271.972      531.719      134.352        0.066        0.047       19.327       13.171        0.464      341.307       15.930      860.882
05/04/2013  01:07:00      -34.548       -6.228        0.723       15.802       12.770        6.852      249.701      163.084       46.956        0.085        0.023       35.105        4.442        0.016      341.291       15.903      860.873
05/04/2013  01:08:00      -96.650       23.272       -1.667       28.470       26.486       11.938      810.553      701.514      142.513        0.577        0.083       99.413        8.567        0.007      341.037       15.472      860.868
05/04/2013  01:09:00     -126.108       -3.843       -5.784       34.279       40.693       17.343     1175.038     1655.924      300.785        0.954        0.157      126.167       17.319        0.019      340.849       15.155      860.855
05/04/2013  01:10:00     -150.687      -71.146       -9.450       25.788       21.467       18.461      665.038      460.845      340.795        1.466        0.073      166.638        5.074        0.001      340.779       15.034      860.859
05/04/2013  01:11:00      -73.338      -36.176        9.963       44.279       33.694       21.288     1960.637     1135.289      453.186        0.517        0.177       81.776       24.124        0.087      340.844       15.146      860.863
05/04/2013  01:12:00      -68.272      -51.959        4.030       44.913       29.610       18.986     2017.182      876.740      360.485        0.532        0.163       85.795       19.987        0.054      340.983       15.381      860.856
05/04/2013  01:13:00      -69.757      -29.084        4.635       41.467       27.462       19.438     1719.492      754.174      377.852        0.429        0.143       75.578       15.426        0.042      341.057       15.504      860.837
05/04/2013  01:14:00     -116.055      -25.539       -2.257       17.407       23.627       14.496      303.010      558.230      210.141        0.760        0.054      118.832       10.491        0.008      341.056       15.504      860.819
05/04/2013  01:15:00     -121.598      -42.620       -5.101       46.897       37.570       23.174     2199.314     1411.484      537.019        1.039        0.207      128.851       18.810        0.021      341.133       15.634      860.803
05/04/2013  01:16:00     -205.352      -59.017       -4.778       53.466       47.215       27.818     2858.660     2229.296      773.824        2.577        0.293      213.664       21.139        0.010      341.271       15.865      860.790
05/04/2013  01:17:00     -124.631       -3.395       -1.423       44.146       54.964       30.619     1948.870     3021.037      937.514        1.073        0.295      124.678       23.235        0.035      341.338       15.981      860.792
05/04/2013  01:18:00     -139.516       73.407      -19.123       49.128       41.062       26.586     2413.554     1686.090      706.819        1.501        0.240      157.650       20.587        0.017      341.944       17.009      860.797
05/04/2013  01:19:00     -165.735      -20.107       -8.104       53.493       62.641       29.841     2861.510     3923.914      890.513        1.781        0.384      166.950       22.754        0.019      341.540       16.323      860.800
05/04/2013  01:20:00     -174.315       31.501      -18.551       68.824       48.907       29.815     4736.731     2391.941      888.911        1.987        0.401      177.138       31.803        0.032      341.609       16.438      860.801
05/04/2013  01:21:00      -64.110      111.028      -12.877       58.280       65.683       36.142     3396.613     4314.240     1306.260        1.281        0.451      128.209       35.210        0.075      341.628       16.471      860.787
05/04/2013  01:22:00     -128.309       14.999      -12.579       42.419       37.172       18.227     1799.338     1381.746      332.222        1.018        0.176      129.182       10.844        0.007      341.521       16.292      860.767
05/04/2013  01:23:00     -148.294       26.527      -18.786       41.264       43.940       24.838     1702.737     1930.688      616.944        1.365        0.213      150.648       18.235        0.015      341.383       16.059      860.756
05/04/2013  01:24:00     -109.743      -40.134      -16.734       76.294       50.940       30.262     5820.811     2594.857      915.765        1.163        0.467      116.851       23.620        0.041      341.253       15.836      860.746
05/04/2013  01:25:00     -105.110       -8.012      -11.551       66.115       52.716       25.734     4371.131     2779.010      662.260        0.953        0.391      105.415       30.350        0.083      341.252       15.837      860.739
05/04/2013  01:26:00     -111.353       44.139      -14.232       32.124       37.160       23.336     1031.975     1380.852      544.588        0.875        0.148      119.782       15.861        0.018      341.404       16.094      860.739
05/04/2013  01:27:00      -79.591       20.242      -10.789       27.664       20.193       16.902      765.282      407.740      285.694        0.416        0.073       82.125       12.497        0.023      341.512       16.276      860.722
05/04/2013  01:28:00      -84.443       15.370      -17.187       25.619       19.840       13.734      656.357      393.644      188.634        0.445        0.062       85.830        9.353        0.012      341.396       16.078      860.711
05/04/2013  01:29:00     -100.887       56.677      -15.061       32.108       34.082       19.025     1030.917     1161.552      361.949        0.809        0.128      115.717       15.122        0.017      341.458       16.184      860.717
05/04/2013  01:30:00     -123.489       44.358       -7.826       27.099       25.564       20.758      734.362      653.532      430.885        0.955        0.091      131.214       16.813        0.016      341.423       16.124      860.710
05/04/2013  01:31:00     -122.683      -57.335       -3.902       45.959       43.632       26.538     2112.231     1903.734      704.275        1.154        0.236      135.419       25.114        0.034      341.188       15.727      860.686
05/04/2013  01:32:00     -157.501      -52.800       -7.169       34.470       29.465       19.302     1188.202      868.179      372.569        1.504        0.121      166.115       18.180        0.012      341.080       15.546      860.667
05/04/2013  01:33:00      -97.857      -46.864        5.881       39.344       30.613       21.478     1547.952      937.137      461.320        0.738        0.147      108.500       23.913        0.049      341.049       15.492      860.668
05/04/2013  01:34:00     -133.032      -57.989       -3.925       37.358       29.491       16.789     1395.598      869.734      281.875        1.181        0.127      145.122       19.534        0.018      341.085       15.554      860.665
05/04/2013  01:35:00     -117.334      -42.485      -12.763       28.828       32.288       16.487      831.030     1042.516      271.830        0.894        0.107      124.789       13.122        0.011      341.214       15.772      860.651
05/04/2013  01:36:00     -112.410      -61.611       -9.625       36.802       29.485       20.748     1354.363      869.381      430.461        0.959        0.133      128.187       17.524        0.019      341.120       15.611      860.632
05/04/2013  01:37:00     -121.545      -25.774      -10.114       38.624       32.995       22.164     1491.794     1088.686      491.255        0.931        0.154      124.248       18.900        0.023      340.968       15.355      860.615
05/04/2013  01:38:00     -128.228       22.315      -12.704       49.629       39.817       27.258     2463.066     1585.421      742.980        1.095        0.240      130.155       27.245        0.044      340.737       14.964      860.610
05/04/2013  01:39:00     -135.874       26.842       -3.514       32.594       29.673       16.979     1062.385      880.475      288.277        1.071        0.112      138.500       10.974        0.006      340.726       14.945      860.602
05/04/2013  01:40:00     -131.738      -25.256      -15.270       30.913       37.062       16.468      955.622     1373.567      271.207        1.041        0.130      134.137       14.549        0.012      340.834       15.129      860.587
05/04/2013  01:41:00      -76.308      -50.248        2.976       38.971       24.045       16.811     1518.731      578.157      282.613        0.537        0.119       91.366       15.859        0.030      340.839       15.137      860.566
05/04/2013  01:42:00      -76.642       34.976       -6.959       53.003       58.776       28.387     2809.306     3454.593      805.805        0.711        0.353       84.246       37.067        0.194      340.737       14.963      860.562
05/04/2013  01:43:00     -124.250       32.371       -9.724       38.198       22.685       17.820     1459.105      514.589      317.547        0.944        0.115      128.398       10.691        0.007      340.776       15.030      860.563
05/04/2013  01:44:00     -114.978      -36.110      -10.518       37.892       29.807       21.998     1435.801      888.428      483.905        0.872        0.140      120.515       21.552        0.032      340.752       14.990      860.561
05/04/2013  01:45:00     -106.868       -7.330       -6.607       44.079       20.860       18.046     1942.926      435.160      325.644        0.711        0.135      107.119       18.948        0.031      340.751       14.987      860.546
05/04/2013  01:46:00     -151.064      -27.753      -12.743       35.462       21.304       20.673     1257.588      453.874      427.357        1.295        0.107      153.592       23.093        0.023      340.800       15.071      860.530
05/04/2013  01:47:00     -115.493      -16.644       -6.161       41.927       22.854       18.604     1757.835      522.293      346.127        0.814        0.131      116.686       22.214        0.036      340.737       14.965      860.512
05/04/2013  01:48:00     -113.526       34.333      -10.077       37.176       28.394       17.094     1382.082      806.210      292.200        0.832        0.124      118.604       16.005        0.018      340.765       15.012      860.502
05/04/2013  01:49:00     -123.263      -13.298       -8.150       55.308       45.663       23.076     3058.950     2085.111      532.520        1.056        0.284      123.978       23.668        0.036      340.958       15.338      860.496
05/04/2013  01:50:00     -150.084      -15.059      -15.881       47.678       36.811       24.345     2273.181     1355.032      592.673        1.361        0.211      150.838       20.932        0.019      340.733       14.957      860.492
05/04/2013  01:51:00     -152.044       18.890      -16.326       34.804       39.105       18.871     1211.327     1529.180      356.109        1.342        0.155      153.212       17.232        0.013      340.709       14.917      860.478
05/04/2013  01:52:00     -133.762        4.490      -13.362       25.930       31.951       17.634      672.390     1020.872      310.973        1.005        0.100      133.837       16.074        0.014      340.610       14.749      860.470
05/04/2013  01:53:00     -156.168       12.244      -17.637       23.272       20.821       12.534      541.602      433.507      157.104        1.299        0.057      156.647        9.497        0.004      340.624       14.773      860.466
05/04/2013  01:54:00     -130.855        0.400      -12.272       18.912       24.025       15.434      357.665      577.195      238.204        0.922        0.059      130.855       11.027        0.007      340.638       14.798      860.455
05/04/2013  01:55:00     -127.908       19.996       -8.060       56.280       41.209       20.318     3167.445     1698.169      412.831        1.105        0.264      129.462       23.328        0.032      340.515       14.588      860.451
05/04/2013  01:56:00     -170.740      -23.117      -21.182       30.504       33.468       18.616      930.523     1120.088      346.557        1.627        0.120      172.298       15.453        0.008      340.680       14.867      860.439
05/04/2013  01:57:00     -150.273       57.570      -22.366       35.945       47.944       28.372     1292.011     2298.636      804.980        1.540        0.220      160.924       21.931        0.019      340.796       15.065      860.436
05/04/2013  01:58:00     -146.416      -42.735       -5.586       41.669       65.367       30.787     1736.297     4272.880      947.849        1.512        0.348      152.525       22.313        0.021      340.647       14.812      860.419
05/04/2013  01:59:00     -134.037      -45.000      -10.770       59.139       33.220       24.498     3497.423     1103.579      600.157        1.265        0.260      141.389       25.259        0.032      340.545       14.640      860.391
05/04/2013  02:00:00      -90.466      -33.735       -7.874       29.202       28.837       15.129      852.740      831.555      228.872        0.565        0.096       96.551       10.246        0.011      340.527       14.609      860.374
05/04/2013  02:01:00     -168.678        9.450      -20.481       52.340       42.616       20.492     2739.465     1816.131      419.911        1.697        0.249      168.942       15.966        0.009      340.532       14.618      860.379
05/04/2013  02:02:00     -154.846      -20.358      -14.533       38.408       38.525       24.909     1475.197     1484.189      620.474        1.409        0.179      156.178       17.624        0.013      340.494       14.554      860.367
05/04/2013  02:03:00     -133.358        3.423      -17.628       45.101       38.794       24.132     2034.143     1504.979      582.368        1.111        0.206      133.402       15.674        0.014      340.464       14.502      860.367
05/04/2013  02:04:00     -118.659       -8.511      -10.973       24.625       27.855       19.327      606.374      775.879      373.520        0.801        0.088      118.964        9.806        0.007      340.498       14.560      860.380
05/04/2013  02:05:00     -137.594      -49.024       -8.708       32.880       28.474       20.078     1081.070      810.773      403.136        1.185        0.115      146.066       14.928        0.010      340.513       14.586      860.372
05/04/2013  02:06:00     -148.003      -23.534      -11.802       43.367       32.357       26.107     1880.720     1046.987      681.595        1.310        0.180      149.863       22.805        0.023      340.453       14.482      860.359
05/04/2013  02:07:00     -150.474      -28.466      -10.086       61.364       38.811       23.671     3765.488     1506.319      560.301        1.469        0.292      153.143       27.801        0.033      340.394       14.384      860.346
05/04/2013  02:08:00     -117.040      -10.125       -8.863       42.574       31.170       20.999     1812.516      971.594      440.977        0.855        0.161      117.477       18.378        0.024      340.359       14.326      860.353
05/04/2013  02:09:00     -120.713        9.758      -13.569       37.672       28.816       14.268     1419.143      830.373      203.578        0.865        0.123      121.107        7.443        0.004      340.376       14.355      860.347
05/04/2013  02:10:00     -140.615       16.436      -13.657       24.406       22.262       16.482      595.650      495.591      271.655        1.080        0.068      141.572       11.922        0.007      340.399       14.392      860.348
05/04/2013  02:11:00      -79.345       -6.094      -10.801       26.947       20.212       17.669      726.140      408.545      312.200        0.395        0.072       79.579       16.614        0.044      340.329       14.273      860.346
05/04/2013  02:12:00     -112.134      -45.644       -8.069       51.594       41.059       22.001     2661.958     1685.806      484.053        0.978        0.242      121.068       21.324        0.031      340.377       14.355      860.329
05/04/2013  02:13:00     -149.692      -34.869      -14.709       32.005       32.163       23.285     1024.347     1034.446      542.170        1.322        0.130      153.699       18.577        0.015      340.349       14.309      860.314
05/04/2013  02:14:00     -147.972      -18.451      -14.151       36.750       30.788       17.844     1350.563      947.885      318.425        1.253        0.131      149.117       16.852        0.013      340.268       14.171      860.309
05/04/2013  02:15:00     -102.798       -3.369      -10.173       29.274       30.642       20.505      856.983      938.919      420.460        0.645        0.111      102.853       18.129        0.031      340.328       14.271      860.313
05/04/2013  02:16:00     -179.047       32.416      -16.392       25.996       29.051       16.586      675.796      843.963      275.099        1.759        0.090      181.958       10.017        0.003      340.512       14.582      860.317
05/04/2013  02:17:00     -175.772       75.459      -39.746       58.333       43.548       19.945     3402.781     1896.410      397.799        2.193        0.285      191.285       14.762        0.006      340.546       14.638      860.315
05/04/2013  02:18:00      -76.277       21.769       -8.870       30.769       20.977       16.006      946.761      440.037      256.182        0.401        0.082       79.322       16.419        0.043      340.357       14.323      860.310
05/04/2013  02:19:00      -73.768       -8.292       -3.017       31.342       43.627       16.458      982.335     1903.279      270.856        0.434        0.158       74.232       17.497        0.056      340.515       14.589      860.277
05/04/2013  02:20:00      -81.057      -45.023       -6.593       27.322       30.793       16.941      746.485      948.233      286.989        0.531        0.099       92.721       14.050        0.023      340.439       14.460      860.268
05/04/2013  02:21:00      -84.033       -7.446       -6.596       25.119       36.450       18.490      630.979     1328.625      341.863        0.473        0.115       84.362       11.560        0.019      340.400       14.393      860.268
05/04/2013  02:22:00      -79.339       34.835      -23.496       25.405       46.529       15.716      645.432     2164.921      246.993        0.556        0.153       86.650       16.478        0.036      340.455       14.487      860.268
05/04/2013  02:23:00     -126.974       64.580      -20.332       65.166       62.389       26.606     4246.544     3892.341      707.865        1.478        0.442      142.454       34.991        0.060      340.518       14.592      860.256
05/04/2013  02:24:00     -110.655       26.885       -6.530       38.044       33.056       23.507     1447.320     1092.711      552.558        0.805        0.155      113.874       17.993        0.025      340.471       14.514      860.239
05/04/2013  02:25:00     -113.903       52.394      -14.693       32.571       25.896       26.342     1060.889      670.586      693.910        0.918        0.121      125.375       11.829        0.009      340.452       14.482      860.242
05/04/2013  02:26:00     -104.332       65.523      -23.155       32.331       37.735       24.295     1045.271     1423.930      590.248        0.939        0.153      123.201       18.300        0.022      340.458       14.492      860.246
05/04/2013  02:27:00     -139.471      112.570      -30.711       36.325       42.791       28.939     1319.540     1831.072      837.441        1.853        0.199      179.232       26.273        0.021      340.488       14.543      860.242
05/04/2013  02:28:00     -133.295      136.184      -33.451       49.909       49.480       28.580     2490.947     2448.269      816.808        2.159        0.288      190.562       25.547        0.018      340.491       14.546      860.228
05/04/2013  02:29:00     -108.358      123.624      -25.528       47.270       82.914       38.582     2234.464     6874.770     1488.558        1.914        0.530      164.391       40.934        0.062      340.479       14.525      860.213
05/04/2013  02:30:00     -136.150      154.469      -34.945       40.515       47.475       27.803     1641.501     2253.873      773.021        2.414        0.233      205.906       23.611        0.013      340.557       14.656      860.201
05/04/2013  02:31:00     -149.115      125.996      -33.848       57.115       62.988       30.685     3262.121     3967.528      941.558        2.371        0.409      195.219       34.544        0.031      340.641       14.800      860.181
05/04/2013  02:32:00     -149.171      115.703      -28.931       53.892       63.113       39.107     2904.310     3983.244     1529.329        2.245        0.421      188.784       40.424        0.046      340.607       14.744      860.160
05/04/2013  02:33:00     -153.888      161.895      -32.055       64.296       62.230       37.971     4133.933     3872.601     1441.825        3.018        0.472      223.363       34.362        0.024      340.622       14.767      860.132
05/04/2013  02:34:00     -156.521      121.210      -21.647       78.592       71.539       50.869     6176.653     5117.759     2587.667        2.677        0.694      197.966       50.432        0.065      340.643       14.802      860.115
05/04/2013  02:35:00     -147.198       97.411      -14.122       70.387       60.357       37.497     4954.369     3642.937     1406.018        2.068        0.500      176.511       40.990        0.054      340.581       14.699      860.094
05/04/2013  02:36:00     -158.722      137.576      -32.834       53.484       59.563       31.949     2860.583     3547.801     1020.712        2.631        0.371      210.048       24.931        0.014      340.650       14.813      860.092
05/04/2013  02:37:00     -178.237      193.313      -41.392       77.707       63.599       41.794     6038.319     4044.846     1746.770        4.134        0.591      262.941       29.884        0.013      340.724       14.937      860.107
05/04/2013  02:38:00     -180.519      193.220      -46.539       61.987       75.490       40.576     3842.388     5698.765     1646.440        4.164        0.559      264.426       36.061        0.019      340.633       14.784      860.123
05/04/2013  02:39:00     -153.934      226.107      -32.895       75.172       94.213       50.014     5650.814     8876.065     2501.383        4.646        0.851      273.532       41.037        0.023      340.484       14.532      860.134
05/04/2013  02:40:00     -160.710      122.219      -25.780       68.995       67.090       50.903     4760.261     4501.028     2591.079        2.664        0.593      201.904       42.864        0.045      340.409       14.407      860.135
05/04/2013  02:41:00     -172.657      235.283      -40.008       64.490      115.468       54.371     4158.920    13332.768     2956.210        5.360        1.022      291.836       40.171        0.019      340.467       14.504      860.123
05/04/2013  02:42:00     -194.058      201.050      -44.805       81.399       87.442       53.108     6625.727     7646.147     2820.454        4.859        0.855      279.428       52.305        0.035      340.499       14.559      860.107
05/04/2013  02:43:00     -207.316      262.879      -48.203       93.946       96.362       53.505     8825.850     9285.718     2862.749        6.769        1.049      334.792       57.711        0.030      340.593       14.716      860.128
05/04/2013  02:44:00     -157.339      200.846      -37.407       85.128       65.627       51.719     7246.789     4306.845     2674.895        4.036        0.711      255.137       50.670        0.039      340.451       14.476      860.128
05/04/2013  02:45:00     -152.188      238.538      -48.691       57.736       70.167       40.940     3333.473     4923.410     1676.106        4.618        0.497      282.952       35.875        0.016      340.413       14.412      860.124
05/04/2013  02:46:00     -135.849      199.454      -38.988       70.519       63.150       45.764     4972.981     3987.976     2094.305        3.540        0.553      241.323       43.678        0.033      340.291       14.207      860.156
05/04/2013  02:47:00     -183.085      189.510      -22.289       75.087      118.963       56.837     5637.996    14152.219     3230.425        4.647        1.151      263.504       44.826        0.029      340.240       14.120      860.133
05/04/2013  02:48:00     -216.517      186.615      -46.898       99.191       88.798       51.896     9838.764     7885.137     2693.229        5.216        1.021      285.841       51.380        0.032      340.342       14.293      860.125
05/04/2013  02:49:00     -162.346       74.060      -16.646       89.826       63.954       42.458     8068.712     4090.127     1802.706        2.304        0.698      178.440       35.647        0.040      340.318       14.254      860.133
05/04/2013  02:50:00     -161.981      186.211      -35.232       67.999       86.158       51.909     4623.826     7423.126     2694.580        3.844        0.737      246.804       44.841        0.033      340.357       14.318      860.153
05/04/2013  02:51:00     -110.510      177.334      -10.469       63.797       84.398       50.072     4070.018     7123.057     2507.169        2.873        0.685      208.950       48.924        0.055      340.197       14.050      860.155
05/04/2013  02:52:00     -168.941      185.253      -28.108       83.801       96.932       42.172     7022.593     9395.858     1778.473        4.092        0.910      250.719       40.273        0.026      340.262       14.159      860.146
05/04/2013  02:53:00     -143.787      190.509      -26.533       80.747       61.880       45.452     6520.077     3829.132     2065.898        3.504        0.621      238.681       44.672        0.035      340.296       14.216      860.165
05/04/2013  02:54:00     -103.313      150.426      -17.267       81.049       81.725       43.185     6568.895     6678.995     1864.983        2.435        0.756      182.487       33.446        0.034      340.304       14.231      860.170
05/04/2013  02:55:00      -88.448      153.148      -12.132       45.367       58.334       36.827     2058.146     3402.812     1356.236        1.912        0.341      176.854       25.901        0.021      340.230       14.105      860.167
05/04/2013  02:56:00      -90.241      127.903      -16.150       55.321       73.656       42.860     3060.387     5425.261     1836.993        1.754        0.516      156.533       26.566        0.029      340.135       13.946      860.159
05/04/2013  02:57:00     -157.510      178.980      -36.674       72.704       78.435       45.357     5285.809     6151.997     2057.282        3.584        0.675      238.418       48.612        0.042      340.164       13.992      860.145
05/04/2013  02:58:00     -160.050      164.109      -49.162       69.289       82.382       46.157     4800.974     6786.868     2130.434        3.434        0.686      229.233       39.408        0.030      340.204       14.059      860.146
05/04/2013  02:59:00     -119.590      132.933      -23.105       82.092       64.842       42.947     6739.107     4204.517     1844.474        2.265        0.639      178.809       40.041        0.050      340.163       13.991      860.131
05/04/2013  03:00:00     -131.137      176.192      -31.498       58.441       87.228       38.216     3415.355     7608.637     1460.451        3.086        0.624      219.637       43.241        0.039      340.180       14.021      860.116
05/04/2013  03:01:00     -194.520      159.424      -31.100      121.414       87.569       52.968    14741.446     7668.314     2805.644        4.471        1.261      251.503       53.657        0.046      340.255       14.144      860.091
05/04/2013  03:02:00     -168.653      147.828      -38.604       80.985       78.690       41.907     6558.550     6192.045     1756.190        3.314        0.725      224.269       44.619        0.040      340.313       14.245      860.067
05/04/2013  03:03:00     -198.453      224.984      -42.844       87.141      114.896       64.007     7593.525    13201.136     4096.944        5.836        1.245      300.003       56.156        0.035      340.368       14.336      860.084
05/04/2013  03:04:00     -207.642      191.094      -46.071       80.054      114.811       56.727     6408.679    13181.460     3217.965        5.228        1.140      282.192       44.763        0.025      340.391       14.376      860.079
05/04/2013  03:05:00     -199.503      139.142      -23.896      153.720      103.082       60.349    23629.697    10625.856     3641.965        4.881        1.895      243.232       58.835        0.059      340.423       14.429      860.057
05/04/2013  03:06:00     -179.585      220.727      -46.256       71.549      104.130       50.515     5119.284    10843.149     2551.731        5.081        0.926      284.555       44.791        0.025      340.412       14.411      860.063
05/04/2013  03:07:00     -256.840      206.119      -61.575      108.066       88.973       66.930    11678.189     7916.187     4479.672        6.815        1.204      329.320       70.459        0.046      340.445       14.467      860.061
05/04/2013  03:08:00     -162.196      182.807      -26.438       97.887       82.482       58.507     9581.872     6803.311     3423.041        4.011        0.990      244.389       52.781        0.047      340.408       14.404      860.062
05/04/2013  03:09:00     -232.416      176.751      -50.220      105.917       96.337       57.811    11218.362     9280.729     3342.142        5.581        1.192      291.990       58.618        0.040      340.457       14.487      860.037
05/04/2013  03:10:00     -221.897      200.471      -45.472       95.245      161.785       60.702     9071.582    26174.442     3684.675        6.521        1.947      299.043       72.650        0.059      340.438       14.455      860.022
05/04/2013  03:11:00     -255.018      193.220      -51.258      120.642       97.927       68.999    14554.418     9589.689     4760.794        6.695        1.445      319.950       60.512        0.036      340.472       14.512      860.021
05/04/2013  03:12:00     -249.218      205.044      -42.016       99.599       92.120       58.774     9920.042     8486.144     3454.377        6.389        1.093      322.727       47.648        0.022      340.454       14.481      860.020
05/04/2013  03:13:00     -225.398      244.829      -40.946      103.302      134.111       55.786    10671.282    17985.785     3112.035        7.209        1.588      332.785       49.072        0.022      340.449       14.473      860.033
05/04/2013  03:14:00     -199.580      185.033      -33.428       85.274       90.692       60.923     7271.641     8225.016     3711.592        4.719        0.960      272.157       48.498        0.032      340.457       14.487      860.008
05/04/2013  03:15:00     -258.935      254.136      -56.246       93.354      116.741       65.143     8714.943    13628.462     4243.562        8.069        1.329      362.812       61.050        0.028      340.501       14.562      860.001
05/04/2013  03:16:00     -245.352      222.105      -49.047       93.051      102.568       61.933     8658.512    10520.209     3835.663        6.747        1.151      330.950       56.565        0.029      340.472       14.512      859.990
05/04/2013  03:17:00     -167.273      186.540      -26.637       87.444      106.248       57.901     7646.397    11288.735     3352.512        4.288        1.114      250.554       50.878        0.041      340.461       14.495      859.973
05/04/2013  03:18:00     -148.117      161.891      -28.264       78.555       66.483       48.992     6170.839     4420.021     2400.206        3.097        0.650      219.425       38.301        0.030      340.414       14.414      859.966
05/04/2013  03:19:00     -163.331      202.171      -33.618       76.054       99.128       48.592     5784.196     9826.363     2361.139        4.332        0.899      259.904       47.240        0.033      340.366       14.333      859.961
05/04/2013  03:20:00     -166.289      195.660      -40.050       77.856      105.518       51.191     6061.569    11134.148     2620.510        4.367        0.991      256.777       53.004        0.043      340.360       14.324      859.949
05/04/2013  03:21:00     -139.269      141.913      -31.445       88.121       86.024       39.195     7765.259     7400.048     1536.246        2.861        0.835      198.834       43.505        0.048      340.295       14.214      859.948
05/04/2013  03:22:00     -137.465      191.304      -33.567       63.854       95.648       47.156     4077.317     9148.604     2223.687        3.603        0.772      235.571       43.769        0.035      340.332       14.275      859.948
05/04/2013  03:23:00     -128.142      127.014      -16.551       44.758       69.569       30.753     2003.295     4839.795      945.741        2.031        0.389      180.424       30.867        0.029      340.284       14.197      859.931
05/04/2013  03:24:00     -164.869      177.105      -46.312       61.466       82.637       43.454     3778.096     6828.842     1888.287        3.659        0.625      241.967       37.971        0.025      340.311       14.240      859.918
05/04/2013  03:25:00     -166.998      155.774      -48.943       68.804       49.326       30.876     4733.970     2433.071      953.344        3.133        0.406      228.372       32.468        0.020      340.294       14.213      859.924
05/04/2013  03:26:00     -153.750      190.217      -37.561       64.184       91.043       43.155     4119.612     8288.911     1862.321        3.775        0.714      244.584       39.899        0.027      340.307       14.234      859.908
05/04/2013  03:27:00     -113.651      139.845      -22.638       54.633       96.416       40.713     2984.782     9295.990     1657.556        2.346        0.697      180.203       38.818        0.046      340.250       14.140      859.904
05/04/2013  03:28:00     -165.861      187.055      -42.738       70.273       69.093       42.555     4938.340     4773.802     1810.909        3.792        0.576      249.999       33.978        0.018      340.294       14.210      859.916
05/04/2013  03:29:00     -114.777      164.355      -15.108       75.878       91.464       40.972     5757.421     8365.602     1678.697        2.811        0.790      200.465       44.224        0.049      340.261       14.156      859.909
05/04/2013  03:30:00     -157.227      157.581      -28.062       76.255       85.058       45.137     5814.850     7234.800     2037.385        3.271        0.754      222.603       41.668        0.035      340.281       14.190      859.908
05/04/2013  03:31:00     -167.243      227.399      -42.166       56.973       97.897       41.326     3245.917     9583.748     1707.866        4.800        0.727      282.278       42.111        0.022      340.319       14.254      859.922
05/04/2013  03:32:00     -142.875      195.036      -31.629       80.963      116.211       48.079     6554.956    13505.014     2311.628        4.091        1.119      241.770       58.892        0.059      340.271       14.175      859.933
05/04/2013  03:33:00     -166.138      192.029      -34.227       81.851       99.797       44.237     6699.511     9959.475     1956.931        4.213        0.931      253.923       36.238        0.020      340.262       14.158      859.940
05/04/2013  03:34:00     -175.884      175.866      -42.739       79.600       83.300       44.138     6336.199     6938.875     1948.157        3.945        0.761      248.725       45.832        0.034      340.260       14.155      859.945
05/04/2013  03:35:00     -160.352      147.838      -18.531       81.343       70.083       49.302     6616.706     4911.591     2430.647        3.093        0.698      218.102       49.580        0.052      340.238       14.118      859.954
05/04/2013  03:36:00      -84.353      159.812      -15.355       70.871       88.552       41.380     5022.665     7841.458     1712.287        2.373        0.729      180.708       48.289        0.071      340.153       13.975      859.966
05/04/2013  03:37:00     -119.665      188.349      -33.775       82.068       81.822       41.005     6735.170     6694.770     1681.410        3.302        0.756      223.148       38.511        0.030      340.236       14.112      859.978
05/04/2013  03:38:00     -104.433      205.738      -23.696       75.453       84.891       44.995     5693.138     7206.416     2024.533        3.436        0.746      230.726       40.724        0.031      340.161       13.987      859.974
05/04/2013  03:39:00     -174.125      165.099      -31.845      109.016       98.043       55.855    11884.393     9612.429     3119.805        4.160        1.231      239.953       63.139        0.069      340.173       14.008      859.977
05/04/2013  03:40:00     -101.139      266.088      -34.378       64.841      105.594       54.300     4204.372    11150.103     2948.526        5.026        0.915      284.662       40.246        0.020      340.151       13.971      859.979
05/04/2013  03:41:00     -125.648      175.058      -29.755       70.404       77.945       43.232     4956.790     6075.362     1869.035        3.011        0.645      215.483       34.400        0.025      340.132       13.938      860.000
05/04/2013  03:42:00     -150.686      216.197      -36.497      108.252      100.807       61.001    11718.536    10162.048     3721.121        4.819        1.280      263.529       49.773        0.036      340.123       13.923      859.989
05/04/2013  03:43:00     -126.848       95.816       -4.416       77.826       97.114       55.844     6056.858     9431.081     3118.546        2.195        0.930      158.969       52.143        0.108      340.079       13.851      859.981
05/04/2013  03:44:00     -157.588      214.169      -30.259       89.868      128.714       58.575     8076.242    16567.367     3430.994        4.984        1.404      265.899       55.669        0.044      340.118       13.915      860.000
05/04/2013  03:45:00     -163.012      192.661      -38.499      103.440       93.539       53.674    10699.889     8749.615     2880.872        4.375        1.117      252.371       63.559        0.063      340.101       13.886      860.014
05/04/2013  03:46:00     -131.978      218.350      -36.911       88.577      108.047       54.265     7845.907    11674.102     2944.662        4.446        1.123      255.137       49.759        0.038      340.133       13.940      860.026
05/04/2013  03:47:00      -70.185      219.517      -23.190       55.332      113.289       41.602     3061.647    12834.447     1730.768        3.564        0.881      230.464       41.375        0.032      340.088       13.865      860.025
05/04/2013  03:48:00      -92.083      202.635      -31.363       72.512       92.095       38.116     5258.022     8481.577     1452.826        3.286        0.760      222.576       38.876        0.031      340.122       13.922      860.029
05/04/2013  03:49:00      -18.636      246.326      -31.535       49.795       70.371       31.904     2479.515     4952.008     1017.861        3.523        0.422      247.030       26.998        0.012      340.072       13.837      860.021
05/04/2013  03:50:00        0.099      158.227      -12.285       50.643       74.007       38.653     2564.748     5477.077     1494.041        1.736        0.477      158.227       29.872        0.036      339.998       13.715      860.031
05/04/2013  03:51:00        9.573      154.055      -16.781       36.034       60.628       32.102     1298.452     3675.720     1030.508        1.505        0.300      154.352       32.724        0.045      339.830       13.433      860.025
05/04/2013  03:52:00       -9.889      219.870      -28.341       39.299       75.019       33.394     1544.419     5627.825     1115.176        2.876        0.414      220.092       31.897        0.021      339.788       13.358      860.044
05/04/2013  03:53:00      -23.160      135.527       -7.885       33.383       70.252       38.401     1114.393     4935.334     1474.645        1.324        0.376      137.491       44.239        0.104      339.734       13.272      860.041
05/04/2013  03:54:00        5.781      181.535      -12.092       32.740       71.841       38.618     1071.906     5161.128     1491.326        2.043        0.386      181.627       44.053        0.059      339.736       13.273      860.038
05/04/2013  03:55:00      -34.548      247.958      -29.822       43.976       58.301       22.999     1933.850     3398.955      528.955        3.471        0.293      250.353       19.609        0.006      339.766       13.321      860.067
05/04/2013  03:56:00      -65.666      167.530      -25.629       72.852       71.774       33.613     5307.399     5151.475     1129.814        2.231        0.579      179.939       30.109        0.028      339.794       13.369      860.077
05/04/2013  03:57:00      -29.183      244.694      -15.551       47.911       67.175       30.079     2295.420     4512.507      904.761        3.434        0.386      246.428       26.574        0.012      339.800       13.376      860.053
05/04/2013  03:58:00     -101.581       99.699      -11.048       39.430       83.117       42.094     1554.702     6908.473     1771.921        1.531        0.512      142.333       35.257        0.061      339.825       13.423      860.034
05/04/2013  03:59:00      -95.797      127.035      -17.954       54.848       80.978       31.612     3008.351     6557.417      999.308        1.810        0.528      159.107       33.948        0.046      339.777       13.342      860.029
05/04/2013  04:00:00      -54.834      146.188      -12.657       51.318       71.314       32.419     2633.489     5085.649     1050.995        1.665        0.439      156.134       37.003        0.056      339.812       13.401      860.022
05/04/2013  04:01:00      -99.445       88.787      -28.139       56.378       46.247       29.817     3178.443     2138.799      889.075        1.238        0.310      133.313       29.219        0.048      339.854       13.473      860.021
05/04/2013  04:02:00        0.187      171.184      -22.249       21.090       56.269       21.178      444.792     3166.192      448.513        1.693        0.203      171.184       20.900        0.015      339.758       13.309      860.019
05/04/2013  04:03:00      -52.884      191.577      -21.862       32.877       57.692       20.344     1080.886     3328.331      413.898        2.240        0.241      198.742       21.985        0.012      339.717       13.240      860.012
05/04/2013  04:04:00      -61.944      139.654      -25.156       41.762       44.633       17.623     1744.032     1992.142      310.571        1.401        0.202      152.775       21.617        0.020      339.709       13.229      860.009
05/04/2013  04:05:00      -29.728       27.724        3.675       42.147       51.629       26.337     1776.396     2665.587      693.617        0.340        0.257       40.650       29.475        0.526      339.567       12.988      859.987
05/04/2013  04:06:00      -17.016       19.639       -6.449       21.349       27.752       16.546      455.767      770.193      273.758        0.111        0.075       25.986        8.656        0.111      339.730       13.264      859.970
05/04/2013  04:07:00      -86.478       29.371       -0.824       57.242       77.254       42.062     3276.653     5968.199     1769.189        0.968        0.551       91.329       32.301        0.125      339.886       13.527      859.957
05/04/2013  04:08:00      -58.847       71.859       -1.815       36.315       32.501       31.586     1318.764     1056.341      997.663        0.600        0.169       92.880       19.770        0.045      339.880       13.516      859.954
05/04/2013  04:09:00       54.042       27.943       15.724       41.364       62.639       33.474     1710.994     3923.634     1120.498        0.535        0.338       60.838       18.679        0.094      339.803       13.387      859.946
05/04/2013  04:10:00       17.459       37.526        7.375       12.199       12.717       12.399      148.828      161.732      153.737        0.112        0.023       41.388        4.597        0.012      339.740       13.281      859.933
05/04/2013  04:11:00        7.448      -22.474        8.403        9.645       24.213        8.434       93.023      586.258       71.132        0.069        0.038       23.676        6.986        0.087      339.795       13.373      859.923
05/04/2013  04:12:00        3.396      -45.631       -0.122        8.921       12.400       11.010       79.590      153.750      121.216        0.122        0.018       45.758        3.627        0.006      339.954       13.641      859.900
05/04/2013  04:13:00       -9.462      -34.626        8.728       17.646       20.257       14.738      311.371      410.349      217.199        0.115        0.047       35.896       10.245        0.081      339.883       13.522      859.883
05/04/2013  04:14:00      -20.993      -44.408        0.948       35.930       28.404       19.260     1290.950      806.760      370.963        0.244        0.123       49.120       20.623        0.176      339.739       13.280      859.865
05/04/2013  04:15:00      -85.304      -76.058       -2.754       39.697       29.574       21.689     1575.850      874.624      470.422        0.799        0.146      114.288       17.975        0.025      339.747       13.294      859.852
05/04/2013  04:16:00      -73.904     -152.438       -3.046       46.402       45.648       26.902     2153.181     2083.720      723.721        1.683        0.248      169.408       23.240        0.019      339.699       13.209      859.826
05/04/2013  04:17:00      -29.372      -83.222        3.831       30.154       36.350       25.732      909.253     1321.299      662.147        0.535        0.145       88.253       18.034        0.042      339.623       13.084      859.805
05/04/2013  04:18:00      -74.826      -69.349       -6.939       46.077       32.488       24.867     2123.086     1055.480      618.348        0.713        0.190      102.021       21.546        0.045      339.686       13.189      859.794
05/04/2013  04:19:00      -96.761      -77.284       11.001      104.653       62.580       44.969    10952.223     3916.291     2022.201        1.617        0.845      123.836       54.232        0.192      339.573       12.999      859.778
05/04/2013  04:20:00     -114.545      -98.642       -2.968       50.408       51.107       27.004     2540.918     2611.947      729.237        1.437        0.294      151.164       28.811        0.036      339.531       12.928      859.749
05/04/2013  04:21:00     -102.986      -66.551        1.641       55.125       33.816       30.822     3038.735     1143.528      949.972        1.008        0.257      122.618       32.443        0.070      339.554       12.969      859.731
05/04/2013  04:22:00      -90.587      -61.546        3.309       57.372       38.670       29.158     3291.580     1495.407      850.166        0.882        0.282      109.517       29.191        0.071      339.716       13.242      859.715
05/04/2013  04:23:00      -81.426      -74.686        7.543       53.367       43.799       28.125     2848.042     1918.320      790.996        0.891        0.278      110.491       29.795        0.073      339.713       13.235      859.703
05/04/2013  04:24:00     -101.892      -76.079       10.680       83.945       48.371       32.254     7046.766     2339.740     1040.302        1.335        0.521      127.161       33.381        0.069      339.646       13.122      859.692
05/04/2013  04:25:00      -87.564      -83.726        7.276       90.593       56.731       37.563     8207.055     3218.398     1410.959        1.378        0.642      121.151       39.780        0.108      339.680       13.179      859.687
05/04/2013  04:26:00     -152.541     -113.581       -1.368       95.888       83.974       60.249     9194.566     7051.556     3629.986        2.802        0.994      190.183       49.380        0.067      339.738       13.275      859.666
05/04/2013  04:27:00     -144.511      -99.559       -0.142      100.431       74.828       35.639    10086.286     5599.270     1270.165        2.387        0.848      175.486       42.330        0.058      339.829       13.430      859.654
05/04/2013  04:28:00      -64.887      -86.803       15.014       77.027       71.457       38.044     5933.089     5106.084     1447.348        1.223        0.624      108.375       36.515        0.114      339.816       13.409      859.640
05/04/2013  04:29:00      -29.786     -110.329        2.838       45.035       56.237       30.619     2028.155     3162.613      937.513        0.960        0.306      114.279       15.746        0.019      339.967       13.664      859.637
05/04/2013  04:30:00      -56.931      -51.159        2.340       43.896       31.749       22.441     1926.824     1007.997      503.607        0.465        0.172       76.540       23.698        0.096      339.900       13.550      859.621
05/04/2013  04:31:00      -39.787      -52.272        0.577       31.129       16.012       11.148      969.022      256.377      124.281        0.283        0.067       65.691        9.646        0.022      339.894       13.540      859.606
05/04/2013  04:32:00      -43.929     -108.046       -2.767       37.606       50.805       19.631     1414.217     2581.183      385.379        0.900        0.219      116.635       16.378        0.020      339.891       13.537      859.599
05/04/2013  04:33:00      -37.185      -63.507       -1.771       31.164       23.935       17.016      971.214      572.883      289.551        0.363        0.092       73.593       10.966        0.022      339.911       13.569      859.596
05/04/2013  04:34:00      -10.407      -36.470      -16.389       15.557       18.479       10.562      242.024      341.482      111.558        0.120        0.035       37.926        9.978        0.069      339.805       13.391      859.593
05/04/2013  04:35:00        2.565      -27.948        7.657       35.775       21.128       15.729     1279.834      446.382      247.414        0.141        0.099       28.065       14.511        0.267      339.883       13.523      859.589
05/04/2013  04:36:00      -39.560     -118.165       -2.493       32.439       41.578       23.892     1052.317     1728.764      570.834        0.944        0.168      124.612       19.966        0.026      339.734       13.271      859.576
05/04/2013  04:37:00       -7.459      -48.436       -1.538       29.675       32.477       19.272      880.593     1054.770      371.415        0.236        0.115       49.007       17.097        0.122      339.706       13.226      859.575
05/04/2013  04:38:00      -18.795      -12.751        5.204       27.155       18.027       11.615      737.405      324.978      134.907        0.087        0.060       22.712       15.758        0.481      339.638       13.108      859.580
05/04/2013  04:39:00      -42.355       52.470       -4.884       22.716       20.479       14.935      516.029      419.371      223.042        0.286        0.058       67.432       12.779        0.036      339.442       12.778      859.578
05/04/2013  04:40:00        1.926       37.464       -1.049       30.608       12.202       11.578      936.828      148.898      134.055        0.131        0.061       37.514       13.643        0.132      339.295       12.530      859.561
05/04/2013  04:41:00       39.530       31.372       12.244       17.135        9.561       14.038      293.618       91.415      197.079        0.164        0.029       50.466        6.034        0.014      339.114       12.227      859.529
05/04/2013  04:42:00       18.388       32.171       -7.482       11.197       13.600       10.669      125.372      184.969      113.837        0.093        0.021       37.056        6.266        0.029      338.950       11.951      859.520
05/04/2013  04:43:00       10.543       54.890      -11.850        9.918        6.788        6.210       98.375       46.077       38.562        0.172        0.009       55.894        4.901        0.008      339.201       12.372      859.513
05/04/2013  04:44:00       28.676       30.712       -3.362       19.113       14.415        8.356      365.308      207.793       69.825        0.121        0.032       42.018        7.561        0.032      339.191       12.355      859.494
05/04/2013  04:45:00       77.465       48.953        7.126       23.942       18.190       16.944      573.200      330.887      287.092        0.482        0.060       91.636       12.978        0.020      339.122       12.240      859.477
05/04/2013  04:46:00      126.042       63.270        6.536       25.113       22.774       18.658      630.676      518.668      348.132        1.071        0.075      141.031       11.902        0.007      339.075       12.160      859.461
05/04/2013  04:47:00       35.627       70.718       50.969       34.659       36.979       27.769     1201.255     1367.474      771.133        0.610        0.167       79.186       19.202        0.059      338.763       11.637      859.457
05/04/2013  04:48:00       40.490       35.973       59.849       44.459       36.934       27.936     1976.562     1364.101      780.435        0.532        0.206       54.162       28.178        0.271      338.990       12.018      859.459
05/04/2013  04:49:00       40.585       46.485       56.034       52.551       33.522       24.960     2761.656     1123.721      622.991        0.573        0.225       61.709       15.916        0.067      339.071       12.154      859.483
05/04/2013  04:50:00       86.031       41.460       42.570       58.720       50.419       42.867     3448.016     2542.081     1837.581        0.938        0.391       95.500       34.349        0.129      339.223       12.408      859.494
05/04/2013  04:51:00       90.768       33.919       25.729       51.438       36.299       38.557     2645.919     1317.625     1486.617        0.775        0.273       96.899       22.477        0.054      338.943       11.937      859.504
05/04/2013  04:52:00       84.136       52.764       69.214       67.041       54.844       39.460     4494.477     3007.880     1557.101        1.185        0.453       99.312       42.315        0.182      338.896       11.858      859.513
05/04/2013  04:53:00       84.125       30.025       39.808       60.426       51.425       38.917     3651.292     2644.565     1514.526        0.869        0.391       89.323       31.571        0.125      338.969       11.982      859.522
05/04/2013  04:54:00       33.405       47.707       70.469       42.692       38.531       32.938     1822.624     1484.656     1084.925        0.637        0.220       58.240       27.478        0.223      338.899       11.863      859.527
05/04/2013  04:55:00       41.182       52.996       53.769       35.850       24.576       30.931     1285.219      604.000      956.754        0.512        0.142       67.116       23.380        0.121      338.937       11.929      859.555
05/04/2013  04:56:00       49.461       49.671       15.056       35.279       24.894       23.840     1244.613      619.708      568.351        0.379        0.122       70.098       15.373        0.048      338.680       11.496      859.575
05/04/2013  04:57:00       99.140       59.899        4.565       28.011       20.325       13.779      784.628      413.098      189.858        0.741        0.069      115.830       10.561        0.008      338.784       11.671      859.581
05/04/2013  04:58:00       84.802       61.205       28.912       32.313       26.474       22.086     1044.136      700.889      487.810        0.700        0.112      104.582       16.248        0.024      338.771       11.650      859.579
05/04/2013  04:59:00       79.609       67.379       38.704       33.488       27.989       22.806     1121.451      783.384      520.117        0.740        0.121      104.296       20.723        0.039      338.770       11.646      859.574
05/04/2013  05:00:00       44.622       45.784       42.728       21.076       21.892       13.640      444.187      479.257      186.056        0.351        0.055       63.932        5.294        0.007      338.762       11.633      859.568
05/04/2013  05:01:00       29.226       31.597       36.652       21.656       18.772        9.915      469.001      352.377       98.307        0.206        0.046       43.041        7.956        0.034      338.787       11.676      859.558
05/04/2013  05:02:00        5.886       23.344       43.255       18.726       22.042        9.060      350.672      485.865       82.088        0.168        0.046       24.075       11.416        0.225      338.995       12.024      859.540
05/04/2013  05:03:00       10.001       32.713       41.595       13.731       25.701       11.331      188.542      660.543      128.387        0.194        0.049       34.207       14.858        0.189      338.936       11.926      859.532
05/04/2013  05:04:00       29.029       13.544       24.080       18.537       19.395       19.330      343.627      376.164      373.648        0.135        0.055       32.034       15.945        0.248      338.843       11.768      859.540
05/04/2013  05:05:00       50.756       28.040        5.441       17.349        9.568       14.621      300.991       91.547      213.761        0.200        0.030       57.987        6.951        0.014      338.903       11.869      859.542
05/04/2013  05:06:00       35.537       18.344       -1.413        9.618        8.760        7.930       92.499       76.744       62.882        0.092        0.012       39.993        4.052        0.010      338.913       11.887      859.522
05/04/2013  05:07:00       32.449        1.810        0.531       10.243       16.295        8.943      104.921      265.538       79.974        0.075        0.023       32.499        5.827        0.032      338.962       11.967      859.506
05/04/2013  05:08:00       35.141      -14.215        4.383       25.722       25.103       19.271      661.635      630.158      371.385        0.156        0.083       37.907       21.654        0.326      338.930       11.917      859.495
05/04/2013  05:09:00       40.883       10.549       12.694       12.319       15.448       12.898      151.747      238.631      166.360        0.125        0.028       42.222        5.391        0.016      338.818       11.728      859.492
05/04/2013  05:10:00       36.539       22.380        7.642       14.932       13.115       15.844      222.963      171.997      251.023        0.127        0.032       42.849       10.106        0.056      338.813       11.720      859.482
05/04/2013  05:11:00       30.300       12.243        9.659       16.339       12.877       12.979      266.956      165.828      168.453        0.088        0.030       32.680       11.740        0.129      338.675       11.486      859.471
05/04/2013  05:12:00       29.811       -9.280       12.038       12.668       12.751       10.380      160.483      162.587      107.737        0.078        0.022       31.222        6.551        0.044      338.750       11.613      859.474
05/04/2013  05:13:00       55.426       17.177       12.065       16.259       14.073       10.251      264.344      198.044      105.088        0.204        0.028       58.027        4.011        0.005      338.801       11.698      859.460
05/04/2013  05:14:00       69.210       55.810       25.930       23.334       14.448       16.763      544.478      208.736      280.999        0.481        0.052       88.908        7.278        0.007      338.828       11.743      859.461
05/04/2013  05:15:00       67.111       59.524       29.299       24.702       17.636       24.140      610.175      311.012      582.736        0.520        0.075       89.705       14.025        0.024      338.771       11.650      859.470
05/04/2013  05:16:00       65.457       46.861       22.629       18.971       17.065       20.581      359.905      291.214      423.567        0.403        0.054       80.502       13.054        0.026      338.806       11.709      859.489
05/04/2013  05:17:00       62.804       43.570       11.690       29.998       17.221       15.975      899.864      296.555      255.197        0.372        0.073       76.437       12.018        0.025      338.863       11.804      859.502
05/04/2013  05:18:00       42.350       43.505        6.097       14.651       10.485       14.975      214.649      109.943      224.237        0.214        0.027       60.714        7.564        0.016      338.813       11.721      859.522
05/04/2013  05:19:00        4.651       35.787       -3.410       20.312       18.921       10.584      412.564      358.016      112.015        0.110        0.044       36.088       13.790        0.146      338.742       11.602      859.539
05/04/2013  05:20:00       -7.086       64.051       -5.024       16.953       19.801       13.372      287.389      392.079      178.801        0.252        0.043       64.441        9.152        0.020      338.845       11.774      859.560
05/04/2013  05:21:00       27.154       89.061       -8.459       17.597       33.181       16.584      309.644     1101.009      275.039        0.521        0.084       93.108       16.283        0.031      338.825       11.740      859.570
05/04/2013  05:22:00       -4.582       89.186      -18.389       39.098       15.468       11.160     1528.651      239.266      124.546        0.510        0.095       89.304        9.056        0.010      338.998       12.032      859.578
05/04/2013  05:23:00      -47.526       42.054      -16.354       18.201       26.915       12.493      331.275      724.420      156.082        0.275        0.061       63.461        8.373        0.017      338.899       11.864      859.584
05/04/2013  05:24:00      -15.416       49.309       -9.441       15.725       17.482        8.200      247.285      305.636       67.245        0.169        0.031       51.663        6.573        0.016      339.101       12.204      859.582
05/04/2013  05:25:00      -76.678       21.917      -10.198       20.651       16.240       11.742      426.476      263.740      137.868        0.365        0.041       79.749        6.574        0.007      338.863       11.804      859.598
05/04/2013  05:26:00      -93.627       -3.689      -14.633       25.174       21.922       19.133      633.710      480.584      366.076        0.524        0.074       93.700       13.395        0.020      338.967       11.979      859.603
05/04/2013  05:27:00      -63.826       10.407       -3.792       44.934       43.105       22.578     2019.072     1858.071      509.769        0.429        0.219       64.669       20.876        0.104      338.955       11.958      859.572
05/04/2013  05:28:00     -110.528       55.802      -14.517       48.369       47.597       26.802     2339.571     2265.483      718.352        1.043        0.266      123.816       18.127        0.021      338.968       11.979      859.564
05/04/2013  05:29:00     -153.772      -45.347      -14.196       37.344       43.346       24.060     1394.563     1878.902      578.879        1.488        0.193      160.319       18.164        0.013      338.836       11.759      859.547
05/04/2013  05:30:00     -122.253        8.745      -17.826       53.565       94.654       33.224     2869.164     8959.401     1103.808        1.413        0.647      122.566       37.775        0.095      338.852       11.785      859.555
05/04/2013  05:31:00      -73.701      -19.396      -20.914       62.910       30.810       23.093     3957.707      949.287      533.274        0.584        0.272       76.211       22.788        0.089      338.815       11.725      859.556
05/04/2013  05:32:00      -60.676       -3.829       -3.104       37.995       27.911       15.211     1443.640      779.011      231.363        0.308        0.123       60.797        6.976        0.013      338.729       11.581      859.548
05/04/2013  05:33:00      -72.404      -27.121      -10.967       31.915       33.757       17.710     1018.567     1139.531      313.652        0.428        0.124       77.317       10.752        0.019      338.808       11.711      859.538
05/04/2013  05:34:00      -87.015      -40.435      -16.327       36.650       25.194       15.698     1343.196      634.755      246.420        0.585        0.111       95.951       10.022        0.011      338.847       11.778      859.537
05/04/2013  05:35:00      -79.882      -24.125       -4.437       46.691       42.384       20.863     2180.088     1796.382      435.248        0.570        0.221       83.445       21.253        0.065      338.884       11.837      859.541
05/04/2013  05:36:00      -66.118      -36.085      -14.043       46.748       22.597       16.652     2185.401      510.636      277.279        0.442        0.149       75.324       18.623        0.061      338.799       11.695      859.537
05/04/2013  05:37:00      -84.058      -39.698       -4.593       49.822       35.601       20.670     2482.225     1267.412      427.267        0.642        0.209       92.961       13.891        0.022      338.779       11.662      859.535
05/04/2013  05:38:00     -112.904      -42.757       -3.557       29.199       46.619       20.212      852.593     2173.303      408.507        0.901        0.172      120.729       15.297        0.016      338.743       11.602      859.546
05/04/2013  05:39:00     -132.849      -44.240       -8.299       51.621       38.510       24.224     2664.765     1483.020      586.817        1.220        0.237      140.022       19.977        0.020      338.833       11.752      859.549
05/04/2013  05:40:00      -39.156       19.360        9.380       47.602       26.735       25.178     2265.927      714.750      633.930        0.280        0.181       43.681       21.785        0.249      338.706       11.539      859.552
05/04/2013  05:41:00      -70.092       28.171      -28.506       27.719       33.296       20.763      768.323     1108.597      431.096        0.441        0.115       75.541       16.551        0.048      338.871       11.817      859.564
05/04/2013  05:42:00      -66.481       54.934      -19.771       25.274       24.215       18.484      638.772      586.378      341.669        0.470        0.078       86.241       13.558        0.025      338.854       11.789      859.574
05/04/2013  05:43:00      -71.293      120.091      -12.991       48.930       65.568       37.720     2394.164     4299.214     1422.774        1.389        0.406      139.659       38.153        0.075      338.910       11.881      859.595
05/04/2013  05:44:00     -112.658      161.071      -32.578       52.025       63.125       33.178     2706.612     3984.706     1100.747        2.374        0.390      196.560       25.693        0.017      338.950       11.947      859.604
05/04/2013  05:45:00      -82.923      120.227      -22.107       63.040       49.140       41.913     3974.020     2414.698     1756.696        1.498        0.407      146.050       31.463        0.046      338.937       11.926      859.605
05/04/2013  05:46:00      -64.060      149.054      -19.420       51.689       74.315       34.336     2671.796     5522.679     1178.960        1.803        0.469      162.237       26.999        0.028      338.908       11.878      859.598
05/04/2013  05:47:00      -82.025      155.233      -17.639       41.515       55.537       27.832     1723.502     3084.324      774.603        1.836        0.279      175.572       21.260        0.015      338.911       11.883      859.587
05/04/2013  05:48:00      -93.109      132.433      -24.222       71.106       50.451       28.988     5056.115     2545.271      840.289        1.762        0.422      161.889       29.904        0.034      339.010       12.049      859.580
05/04/2013  05:49:00      -43.236      189.265      -19.084       43.337       81.686       32.622     1878.127     6672.634     1064.218        2.383        0.481      194.141       33.354        0.030      338.948       11.944      859.574
05/04/2013  05:50:00      -33.370      198.486      -23.722       44.570       39.624       21.137     1986.478     1570.078      446.773        2.254        0.200      201.272       13.798        0.005      338.941       11.933      859.570
05/04/2013  05:51:00      -36.286      162.569      -14.295       32.498       53.577       20.414     1056.110     2870.498      416.742        1.615        0.217      166.569       18.601        0.012      338.840       11.764      859.557
05/04/2013  05:52:00      -78.455      216.280      -27.587       54.263       60.604       29.743     2944.520     3672.856      884.618        3.060        0.375      230.070       24.342        0.011      338.882       11.834      859.547
05/04/2013  05:53:00      -84.111      148.851      -22.076       47.052       69.154       32.018     2213.874     4782.301     1025.124        1.887        0.401      170.972       23.218        0.018      338.855       11.790      859.543
05/04/2013  05:54:00     -119.891      189.000      -28.061       74.774       72.694       34.953     5591.181     5284.362     1221.720        3.149        0.605      223.818       28.286        0.016      338.962       11.968      859.530
05/04/2013  05:55:00     -104.227      175.557      -22.973       60.180       77.849       42.032     3621.674     6060.532     1766.672        2.683        0.572      204.165       42.083        0.042      338.854       11.785      859.525
05/04/2013  05:56:00     -117.385       72.513      -19.931       51.890       58.623       36.545     2692.556     3436.694     1335.573        1.345        0.373      137.976       32.736        0.056      338.920       11.898      859.510
05/04/2013  05:57:00      -89.882      170.311      -17.010       53.086       55.353       38.834     2818.100     3063.993     1508.101        2.238        0.370      192.574       36.075        0.035      338.908       11.878      859.504
05/04/2013  05:58:00      -98.427      193.167      -26.560       42.651       50.341       28.918     1819.135     2534.199      836.243        2.645        0.259      216.798       25.734        0.014      338.900       11.863      859.501
05/04/2013  05:59:00     -100.544      164.338      -26.791       46.303       53.016       26.651     2143.993     2810.749      710.268        2.175        0.283      192.655       23.821        0.015      338.881       11.833      859.485
05/04/2013  06:00:00      -65.113      152.100      -12.934       53.342       51.394       33.499     2845.395     2641.331     1122.194        1.707        0.330      165.451       26.057        0.025      338.863       11.803      859.474
05/04/2013  06:01:00      -89.629       97.920      -18.937       55.214       70.821       26.559     3048.570     5015.662      705.375        1.337        0.438      132.747       32.580        0.060      338.882       11.833      859.473
05/04/2013  06:02:00      -62.756      104.680      -16.258       54.407       98.779       38.281     2960.129     9757.345     1465.425        1.467        0.709      122.051       48.480        0.158      338.931       11.916      859.466
05/04/2013  06:03:00     -125.750      159.725      -29.901       54.240       60.357       42.087     2942.011     3642.995     1771.332        2.529        0.418      203.286       34.753        0.029      338.882       11.834      859.457
05/04/2013  06:04:00      -42.295      114.423      -10.794       29.658       54.273       28.225      879.595     2945.511      796.631        0.981        0.231      121.989       23.421        0.037      338.843       11.769      859.445
05/04/2013  06:05:00     -140.205       87.124      -20.292       52.454       53.904       23.173     2751.406     2905.636      536.974        1.693        0.310      165.070       11.509        0.005      338.941       11.933      859.448
05/04/2013  06:06:00     -117.464       63.261      -17.314       48.444       42.938       28.251     2346.862     1843.657      798.125        1.154        0.249      133.416       18.533        0.019      338.915       11.891      859.435
05/04/2013  06:07:00      -83.028       39.459      -11.914       31.881       36.320       21.048     1016.415     1319.122      443.017        0.569        0.139       91.928       20.789        0.051      338.935       11.927      859.425
05/04/2013  06:08:00      -77.097       72.998      -16.238       48.040       53.653       26.374     2307.797     2878.671      695.607        0.871        0.294      106.173       25.654        0.058      338.902       11.869      859.428
05/04/2013  06:09:00     -133.014       72.622      -14.537       47.621       37.926       33.525     2267.743     1438.344     1123.943        1.400        0.242      151.547       26.267        0.030      338.944       11.939      859.418
05/04/2013  06:10:00     -103.782       62.436      -19.221       38.841       43.087       26.040     1508.620     1856.475      678.063        0.954        0.202      121.115       13.688        0.013      338.966       11.978      859.400
05/04/2013  06:11:00     -124.732       73.809      -22.776       42.253       68.633       31.971     1785.347     4710.518     1022.125        1.452        0.376      144.934       28.883        0.040      339.045       12.109      859.389
05/04/2013  06:12:00      -90.363       47.525       -9.517       50.639       46.576       23.595     2564.293     2169.296      556.710        0.790        0.265      102.099       22.883        0.050      338.951       11.951      859.377
05/04/2013  06:13:00      -71.402       22.842      -13.025       37.802       52.721       27.887     1428.981     2779.526      777.710        0.539        0.249       74.966       28.971        0.149      338.908       11.879      859.374
05/04/2013  06:14:00      -17.269       39.778       -0.095       19.644       21.699       24.017      385.870      470.864      576.820        0.166        0.072       43.365        7.577        0.031      338.875       11.824      859.359
05/04/2013  06:15:00        3.415       25.825       14.903       33.447       25.671       18.549     1118.682      658.987      344.084        0.151        0.106       26.050       18.162        0.486      338.773       11.652      859.337
05/04/2013  06:16:00      -57.363      -13.976       10.035       38.125       40.013       20.873     1453.479     1601.021      435.701        0.354        0.175       59.041        9.692        0.027      338.493       11.182      859.324
05/04/2013  06:17:00       -9.748       28.683       -1.264       22.369       27.697       15.081      500.352      767.102      227.447        0.121        0.075       30.295       13.308        0.193      338.660       11.462      859.335
05/04/2013  06:18:00      -60.738       -5.404        6.775       26.358       41.014       15.951      694.723     1682.172      254.423        0.320        0.132       60.978       19.311        0.100      338.545       11.269      859.321
05/04/2013  06:19:00      -49.850      -33.355        2.528       32.449       17.233       15.856     1052.906      296.977      251.425        0.260        0.080       59.980       11.574        0.037      338.341       10.926      859.318
05/04/2013  06:20:00      -31.321      -24.814        3.187       36.752       19.108       15.515     1350.732      365.128      240.718        0.178        0.098       39.959       14.785        0.137      338.235       10.749      859.308
05/04/2013  06:21:00      -28.941      -36.198        6.731       38.266       27.550       18.562     1464.283      759.014      344.533        0.238        0.128       46.345       15.440        0.111      338.230       10.740      859.305
05/04/2013  06:22:00     -112.922      -59.051       -4.333       30.708       18.942       14.561      942.996      358.804      212.013        0.889        0.076      127.430        4.659        0.001      338.168       10.635      859.318
05/04/2013  06:23:00      -55.784      -39.010       -0.390       36.814       24.962       15.813     1355.241      623.123      250.038        0.343        0.111       68.071       18.627        0.075      338.154       10.612      859.324
05/04/2013  06:24:00      -83.112      -39.329       -8.134       46.711       31.630       19.192     2181.920     1000.482      368.340        0.604        0.178       91.948       21.818        0.056      338.166       10.633      859.337
05/04/2013  06:25:00      -17.630      -16.407        4.923       43.675       42.980       28.511     1907.470     1847.299      812.892        0.259        0.228       24.083       11.202        0.216      338.152       10.609      859.324
05/04/2013  06:26:00      -41.360      -49.685        9.841       39.575       33.224       25.441     1566.177     1103.838      647.233        0.380        0.166       64.647       24.097        0.139      338.124       10.563      859.327
05/04/2013  06:27:00      -87.773      -61.320        2.178       56.094       38.554       28.411     3146.484     1486.387      807.163        0.845        0.272      107.071       19.359        0.033      338.169       10.638      859.314
05/04/2013  06:28:00      -46.002      -57.173       14.792       43.016       39.040       24.640     1850.371     1524.119      607.114        0.479        0.199       73.382       18.860        0.066      338.257       10.785      859.309
05/04/2013  06:29:00      -84.930     -100.278      -10.334       44.262       43.154       20.262     1959.112     1862.231      410.563        1.080        0.212      131.411       17.961        0.019      338.246       10.768      859.284
05/04/2013  06:30:00      -23.356      -37.698        1.712       23.581       24.669       12.957      556.061      608.574      167.892        0.165        0.067       44.347        4.253        0.009      338.387       11.003      859.279
05/04/2013  06:31:00      -37.834      -17.657        6.004       34.802       19.304       10.801     1211.206      372.653      116.666        0.174        0.085       41.751       15.010        0.129      338.440       11.093      859.288
05/04/2013  06:32:00      -50.205      -51.134        3.658       32.611       25.607       19.813     1063.483      655.730      392.557        0.363        0.106       71.661       13.374        0.035      338.177       10.650      859.277
05/04/2013  06:33:00      -89.614      -76.647      -11.863       36.317       22.724       17.089     1318.933      516.395      292.035        0.809        0.106      117.922        9.384        0.006      338.104       10.529      859.279
05/04/2013  06:34:00      -91.968      -64.129       -6.088       23.519       25.036       19.769      553.128      626.817      390.804        0.709        0.079      112.118       15.222        0.018      338.132       10.575      859.287
05/04/2013  06:35:00      -71.495      -40.426       -4.072       23.872       19.002       17.354      569.873      361.073      301.172        0.400        0.062       82.133       10.063        0.015      338.176       10.651      859.305
05/04/2013  06:36:00      -38.621      -42.846        8.313       29.441       22.664       21.379      866.801      513.678      457.074        0.262        0.092       57.684       21.445        0.138      338.217       10.718      859.306
05/04/2013  06:37:00      -59.570      -60.043       -2.368       23.376       35.634       15.076      546.439     1269.803      227.296        0.460        0.102       84.580       13.085        0.024      338.253       10.776      859.306
05/04/2013  06:38:00      -60.940      -21.790       -1.202       16.595       16.527       13.322      275.406      273.157      177.488        0.246        0.036       64.719        3.149        0.002      338.265       10.800      859.307
05/04/2013  06:39:00      -21.093      -19.574        6.395       11.260       15.212       11.848      126.777      231.413      140.384        0.068        0.025       28.776        6.042        0.044      338.378       10.990      859.303
05/04/2013  06:40:00      -24.104      -39.518       -1.839       24.622       27.500       17.393      606.224      756.250      302.503        0.191        0.083       46.289       12.592        0.074      338.370       10.976      859.286
05/04/2013  06:41:00      -13.985      -31.415       15.941       42.243       29.271       30.277     1784.505      856.766      916.703        0.250        0.178       34.387       31.833        0.857      338.420       11.059      859.253
05/04/2013  06:42:00       -3.189      -13.852       16.368       10.320       20.349       15.357      106.504      414.086      235.839        0.061        0.038       14.215       12.849        0.817      338.547       11.273      859.247
05/04/2013  06:43:00       -5.010       15.952       31.748       10.534       18.178       11.989      110.960      330.422      143.737        0.094        0.029       16.721        8.784        0.276      338.523       11.232      859.235
05/04/2013  06:44:00       -2.048       18.463       36.182       13.299       14.209       10.542      176.861      201.897      111.142        0.107        0.024       18.577        8.250        0.197      338.472       11.147      859.226
05/04/2013  06:45:00       10.932       21.770       33.537       20.203       17.986       10.021      408.155      323.503      100.416        0.127        0.042       24.361        6.909        0.080      338.364       10.965      859.230
05/04/2013  06:46:00       24.839        6.266       21.061       25.985       31.896       19.047      675.233     1017.379      362.771        0.158        0.103       25.617       12.174        0.226      338.268       10.804      859.230
05/04/2013  06:47:00        8.281      -21.867        8.731       15.727       26.661       27.528      247.328      710.788      757.765        0.117        0.086       23.383       14.446        0.382      338.500       11.193      859.215
05/04/2013  06:48:00       20.902       11.226       22.093       15.039       17.429       17.250      226.183      303.768      297.558        0.094        0.041       23.726       11.121        0.220      338.474       11.150      859.209
05/04/2013  06:49:00       21.368       45.495       59.986       26.534       43.178       23.428      704.038     1864.333      548.849        0.462        0.156       50.263       27.154        0.292      338.368       10.973      859.216
05/04/2013  06:50:00        4.561      -21.312       24.685       18.854       35.480       20.140      355.489     1258.846      405.612        0.155        0.101       21.794       12.855        0.348      338.557       11.290      859.210
05/04/2013  06:51:00        3.362       17.255       28.509       16.367       15.904       10.282      267.863      252.932      105.717        0.087        0.031       17.580        7.778        0.196      338.721       11.564      859.219
05/04/2013  06:52:00       38.376       42.161       15.322       19.587       25.634       20.609      383.637      657.115      424.735        0.247        0.073       57.011        8.042        0.020      338.333       10.913      859.222
05/04/2013  06:53:00       74.617       42.895        9.828       17.026       19.531       16.106      289.895      381.472      259.409        0.422        0.047       86.068        7.512        0.008      338.379       10.991      859.222
05/04/2013  06:54:00       87.810       53.666       22.668       22.628       32.452       24.621      512.022     1053.119      606.217        0.664        0.109      102.911       21.679        0.044      338.507       11.204      859.217
05/04/2013  06:55:00       67.146       59.690       51.647       41.511       23.454       32.070     1723.161      550.111     1028.465        0.702        0.165       89.841       14.436        0.026      338.528       11.242      859.199
05/04/2013  06:56:00       19.103       58.176       59.539       26.007       26.096       14.216      676.348      681.008      202.094        0.443        0.078       61.232       10.498        0.029      338.565       11.304      859.191
05/04/2013  06:57:00       55.375       51.794       22.902       23.636       18.582       23.276      558.661      345.291      541.793        0.386        0.072       75.822       11.614        0.023      338.517       11.223      859.191
05/04/2013  06:58:00      120.188       77.319       10.660       22.767       20.989       32.034      518.328      440.545     1026.179        1.126        0.099      142.910       19.333        0.018      338.503       11.197      859.172
05/04/2013  06:59:00       33.924       59.741       63.999       36.470       40.554       15.586     1330.074     1644.613      242.922        0.602        0.161       68.701        8.854        0.017      338.613       11.384      859.148
05/04/2013  07:00:00       43.390       42.627       35.473       17.019       19.325       20.129      289.635      373.462      405.178        0.301        0.053       60.825        3.622        0.004      338.545       11.270      859.157
05/04/2013  07:01:00       74.819       52.773       16.283       51.113       30.489       27.743     2612.547      929.552      769.656        0.648        0.216       91.558       19.505        0.045      338.615       11.386      859.152
05/04/2013  07:02:00       45.420       81.112       66.269       69.739       44.000       44.618     4863.567     1935.970     1990.742        1.091        0.440       92.963       49.820        0.287      338.690       11.511      859.139
05/04/2013  07:03:00       11.553       53.567       67.629       39.870       44.954       23.819     1589.655     2020.872      567.361        0.588        0.209       54.799       26.061        0.226      338.873       11.822      859.127
05/04/2013  07:04:00       62.156       20.655       31.420       47.927       30.533       26.755     2297.009      932.240      715.816        0.461        0.197       65.498       21.939        0.112      338.899       11.864      859.132
05/04/2013  07:05:00       35.964       42.743       46.498       33.172       39.869       26.393     1100.388     1589.522      696.601        0.433        0.169       55.860       24.440        0.191      338.926       11.909      859.135
05/04/2013  07:06:00       14.808       36.209       39.710       31.566       22.273       22.715      996.395      496.084      515.987        0.256        0.100       39.120       17.858        0.208      339.042       12.104      859.135
05/04/2013  07:07:00       44.054       49.491        6.106       21.418       33.873       26.256      458.716     1147.358      689.397        0.336        0.115       66.258       19.169        0.084      339.035       12.094      859.143
05/04/2013  07:08:00       60.354       13.158        9.689       39.543       18.166       22.722     1563.617      329.998      516.270        0.316        0.120       61.772       22.855        0.137      338.966       11.976      859.133
05/04/2013  07:09:00       -0.662       36.438       43.188       40.600       26.438       25.085     1648.355      698.973      629.256        0.308        0.149       36.444       17.037        0.219      339.083       12.173      859.142
05/04/2013  07:10:00       34.352       77.365       19.735       49.536       39.628       37.695     2453.790     1570.401     1420.945        0.650        0.272       84.649       28.777        0.116      339.197       12.365      859.149
05/04/2013  07:11:00      -35.221       71.809        3.509       74.582       56.129       31.623     5562.547     3150.515     1000.018        0.806        0.486       79.981       23.275        0.085      339.424       12.748      859.163
05/04/2013  07:12:00      -26.629       81.922        6.937       38.612       39.406       31.860     1490.880     1552.816     1015.041        0.576        0.203       86.141       26.761        0.097      339.371       12.659      859.161
05/04/2013  07:13:00       -3.262      158.825      -14.843       56.084       73.039       35.430     3145.467     5334.657     1255.298        1.759        0.487      158.859       38.867        0.060      339.391       12.691      859.159
05/04/2013  07:14:00      -44.312      231.729      -24.251       60.990       54.423       35.237     3719.741     2961.889     1241.666        3.209        0.396      235.928       24.271        0.011      339.299       12.535      859.162
05/04/2013  07:15:00      -21.136      166.929      -10.033       48.550       66.044       29.774     2357.099     4361.874      886.520        1.801        0.380      168.262       29.554        0.031      339.367       12.650      859.146
05/04/2013  07:16:00      -20.792      157.677        2.089       57.469       71.036       41.707     3302.720     5046.066     1739.467        1.769        0.504      159.042       41.751        0.069      339.441       12.776      859.128
05/04/2013  07:17:00      -31.185       81.299        4.925       45.051       71.567       39.695     2029.581     5121.865     1575.661        0.817        0.436       87.075       24.306        0.078      339.502       12.879      859.137
05/04/2013  07:18:00        7.882       91.892       -4.505       56.181       70.901       37.814     3156.267     5026.939     1429.928        0.907        0.481       92.229       27.687        0.090      339.510       12.891      859.132
05/04/2013  07:19:00      -68.645      118.422      -22.801       68.549       70.417       30.682     4698.940     4958.530      941.400        1.493        0.530      136.879       39.083        0.082      339.418       12.736      859.120
05/04/2013  07:20:00      -54.893       63.878        4.336       90.072       51.674       41.364     8112.906     2670.183     1711.019        0.980        0.625       84.224       45.099        0.287      339.585       13.017      859.110
05/04/2013  07:21:00       16.407      167.528       -8.671       69.091      101.883       51.272     4773.506    10380.115     2628.826        2.309        0.889      168.330       56.488        0.113      339.435       12.764      859.089
05/04/2013  07:22:00      -26.477      117.974      -12.215       34.461       99.065       29.963     1187.530     9813.933      897.760        1.333        0.595      120.908       39.168        0.105      339.397       12.702      859.066
05/04/2013  07:23:00       17.244      190.461       -5.492       48.896       87.557       51.568     2390.843     7666.171     2659.255        2.466        0.636      191.240       53.740        0.079      339.533       12.930      859.050
05/04/2013  07:24:00      -14.138      290.745      -37.379       56.721       72.521       38.047     3217.295     5259.334     1447.546        4.803        0.496      291.089       35.357        0.015      339.329       12.583      859.027
05/04/2013  07:25:00      -41.093      207.359      -17.971       73.641      106.240       48.879     5422.964    11286.833     2389.124        3.205        0.955      211.392       52.712        0.062      339.430       12.756      859.022
05/04/2013  07:26:00      -65.733      175.221      -15.685       45.387       68.964       41.505     2059.984     4756.099     1722.705        2.190        0.427      187.145       38.431        0.042      339.402       12.710      859.015
05/04/2013  07:27:00      -17.057      211.713      -15.435       48.750      103.939       42.753     2376.536    10803.362     1827.796        3.018        0.750      212.399       47.699        0.050      339.460       12.806      858.997
05/04/2013  07:28:00      -65.587      258.334      -24.645       66.428       99.979       52.527     4412.683     9995.705     2759.136        4.440        0.858      266.529       52.302        0.039      339.390       12.687      858.991
05/04/2013  07:29:00      -61.049      199.408      -10.894       80.172       97.870       51.490     6427.610     9578.626     2651.267        3.113        0.933      208.544       54.885        0.069      339.451       12.791      858.985
05/04/2013  07:30:00      -62.748       94.327       -4.917       68.606       65.830       41.744     4706.774     4333.532     1742.581        1.182        0.539      113.291       43.470        0.147      339.644       13.118      858.967
05/04/2013  07:31:00      -94.838      199.585      -13.185       77.524       75.858       54.160     6009.910     5754.373     2933.309        3.185        0.735      220.972       57.659        0.068      339.511       12.891      858.955
05/04/2013  07:32:00      -13.616      245.829      -23.539       48.417       59.835       36.684     2344.188     3580.169     1345.683        3.422        0.364      246.206       23.282        0.009      339.495       12.863      858.922
05/04/2013  07:33:00      -11.345       75.322       14.511       42.403       74.433       31.856     1797.973     5540.330     1014.829        0.718        0.418       76.171       30.745        0.163      339.857       13.478      858.901
05/04/2013  07:34:00      -38.312       40.180        5.857       50.227       58.147       34.834     2522.774     3381.119     1213.409        0.512        0.356       55.518       22.723        0.168      339.795       13.374      858.885
05/04/2013  07:35:00      -27.638      222.204      -13.923       53.038      106.693       43.380     2813.035    11383.295     1881.824        3.320        0.804      223.917       50.073        0.050      339.625       13.083      858.880
05/04/2013  07:36:00      -96.171      209.886      -20.458       71.265       69.085       45.121     5078.675     4772.680     2035.923        3.280        0.594      230.871       46.770        0.041      339.607       13.053      858.874
05/04/2013  07:37:00      -68.289      258.335      -15.776       70.636       96.902       45.096     4989.413     9389.968     2033.642        4.403        0.821      267.208       44.130        0.027      339.605       13.051      858.856
05/04/2013  07:38:00      -40.748      220.442      -18.046       44.548       60.260       33.999     1984.523     3631.230     1155.938        2.868        0.339      224.176       30.774        0.019      339.595       13.032      858.839
05/04/2013  07:39:00      -30.401      233.003      -16.703       74.304       72.012       43.240     5521.129     5185.665     1869.708        3.403        0.629      234.978       32.187        0.019      339.655       13.133      858.828
05/04/2013  07:40:00      -12.066      274.813      -23.891       43.105       62.090       36.512     1858.000     3855.178     1333.139        4.164        0.352      275.078       36.073        0.017      339.605       13.048      858.815
05/04/2013  07:41:00      -65.893      128.436        2.037       55.753       67.659       44.053     3108.379     4577.794     1940.654        1.523        0.481      144.353       38.254        0.070      339.765       13.322      858.801
05/04/2013  07:42:00      -55.510       47.801       11.693      100.041       61.141       47.019    10008.151     3738.198     2210.770        1.073        0.798       73.255       43.442        0.352      339.930       13.602      858.779
05/04/2013  07:43:00      -45.161      170.567      -10.856       55.439       84.492       48.342     3073.440     7138.879     2336.914        2.190        0.627      176.444       42.653        0.058      339.773       13.335      858.768
05/04/2013  07:44:00       33.323      113.996        0.070       53.982      109.603       57.286     2914.049    12012.872     3281.645        1.615        0.910      118.767       62.937        0.281      339.829       13.429      858.759
05/04/2013  07:45:00       21.722       80.286       -8.198       56.824       56.271       30.484     3228.928     3166.427      929.275        0.715        0.366       83.173       27.942        0.113      339.768       13.328      858.766
05/04/2013  07:46:00       37.380      155.683      -17.340       42.967       55.061       33.425     1846.153     3031.680     1117.198        1.596        0.300      160.108       25.654        0.026      339.870       13.499      858.754
05/04/2013  07:47:00      -22.713      275.494      -32.452       73.263       90.556       35.624     5367.468     8200.332     1269.069        4.615        0.742      276.429       32.957        0.014      339.684       13.182      858.764
05/04/2013  07:48:00      -80.114      243.708      -23.328       59.476       65.507       39.079     3537.377     4291.227     1527.193        3.785        0.468      256.538       33.025        0.017      339.642       13.112      858.765
05/04/2013  07:49:00      -81.370      132.501      -13.693       57.371       62.119       34.164     3291.377     3858.802     1167.152        1.634        0.416      155.492       31.631        0.041      339.736       13.271      858.766
05/04/2013  07:50:00     -125.709      149.241      -29.367       70.806       65.175       38.541     5013.495     4247.729     1485.409        2.484        0.537      195.130       49.482        0.064      339.753       13.299      858.763
05/04/2013  07:51:00        9.810      128.479       -9.044       46.329       83.534       38.836     2146.332     6978.011     1508.226        1.366        0.532      128.853       42.453        0.109      340.004       13.725      858.757
05/04/2013  07:52:00       -8.098      114.142       -7.200       51.062       91.668       46.516     2607.294     8403.019     2163.754        1.316        0.659      114.429       55.100        0.232      340.121       13.921      858.748
05/04/2013  07:53:00      -63.201      126.062      -11.424       95.459       59.115       48.556     9112.454     3494.630     2357.673        1.749        0.748      141.018       43.141        0.094      340.009       13.734      858.743
05/04/2013  07:54:00      -47.343      130.816      -16.956       77.407       68.570       38.890     5991.914     4701.892     1512.417        1.592        0.610      139.119       40.502        0.085      339.902       13.552      858.728
05/04/2013  07:55:00     -132.407      196.248      -31.165       50.906       68.173       35.315     2591.408     4647.619     1247.123        3.275        0.424      236.738       28.092        0.014      339.697       13.204      858.712
05/04/2013  07:56:00      -74.897      191.606      -27.183       69.985       59.919       37.147     4897.832     3590.335     1379.897        2.646        0.493      205.724       32.525        0.025      339.758       13.307      858.711
05/04/2013  07:57:00      -82.971      106.820      -12.580       49.830       68.051       38.007     2483.039     4630.907     1444.505        1.350        0.428      135.258       32.866        0.059      339.812       13.402      858.696
05/04/2013  07:58:00      -88.288      167.275      -16.167       76.146       69.709       38.515     5798.279     4859.387     1483.431        2.409        0.607      189.145       33.868        0.032      339.831       13.432      858.690
05/04/2013  07:59:00     -118.406      190.922      -26.156       67.829       93.505       42.961     4600.812     8743.170     1845.614        3.317        0.759      224.658       30.414        0.018      339.768       13.326      858.679
05/04/2013  08:00:00      -95.413      186.519      -21.053       56.992       65.748       39.333     3248.075     4322.814     1547.056        2.673        0.456      209.507       39.235        0.035      339.815       13.405      858.686
05/04/2013  08:01:00      -28.026      210.698      -13.631       34.406       75.968       31.725     1183.785     5771.208     1006.447        2.666        0.398      212.554       37.098        0.030      339.890       13.529      858.674
05/04/2013  08:02:00     -117.722      228.156      -27.170       66.976       91.503       40.337     4485.811     8372.720     1627.044        4.057        0.724      256.737       38.519        0.023      339.857       13.474      858.663
05/04/2013  08:03:00     -103.282      212.221      -24.905       61.830       68.403       41.432     3822.933     4678.927     1716.638        3.327        0.511      236.019       45.248        0.037      339.903       13.553      858.677
05/04/2013  08:04:00      -66.089      211.059      -12.439       46.497       65.088       38.255     2161.956     4236.438     1463.463        2.846        0.393      221.164       36.625        0.027      339.928       13.596      858.659
05/04/2013  08:05:00     -105.476      173.302      -15.975       85.020      101.223       52.550     7228.450    10246.185     2761.549        3.082        1.012      202.876       64.645        0.102      340.040       13.783      858.653
05/04/2013  08:06:00      -56.921      200.803      -21.244       67.710       68.974       42.744     4584.596     4757.442     1827.037        2.759        0.558      208.715       40.362        0.037      339.823       13.418      858.643
05/04/2013  08:07:00      -96.240      196.639      -20.453       50.278       64.414       39.209     2527.914     4149.148     1537.344        2.828        0.411      218.927       35.178        0.026      339.919       13.580      858.625
05/04/2013  08:08:00      -37.253      118.399        2.008       31.159      104.478       33.731      970.871    10915.718     1137.800        1.422        0.651      124.122       42.669        0.118      340.278       14.189      858.617
05/04/2013  08:09:00      -22.329      323.732      -32.854       35.908       68.382       29.994     1289.401     4676.100      899.624        5.662        0.343      324.501       29.662        0.008      339.863       13.484      858.612
05/04/2013  08:10:00      -61.194      306.902      -31.302       61.667      101.205       35.411     3802.813    10242.365     1253.969        5.710        0.765      312.943       27.654        0.008      339.847       13.456      858.599
05/04/2013  08:11:00      -73.557      257.621      -16.913       63.856       96.051       42.895     4077.536     9225.705     1839.954        4.360        0.757      267.916       40.342        0.023      339.886       13.523      858.602
05/04/2013  08:12:00      -24.945      235.556      -17.249       52.768      114.938       51.014     2784.460    13210.658     2602.391        3.750        0.930      236.873       52.422        0.049      339.942       13.619      858.590
05/04/2013  08:13:00      -46.541      208.603      -24.670       85.300      118.913       44.668     7276.027    14140.383     1995.204        3.485        1.171      213.732       49.740        0.054      339.985       13.693      858.573
05/04/2013  08:14:00      -44.820       83.635        2.498       65.781       56.009       49.836     4327.140     3136.974     2483.651        0.948        0.497       94.888       39.643        0.175      340.208       14.071      858.561
05/04/2013  08:15:00        1.537      132.228       -0.468       54.023       96.931       45.343     2918.486     9395.555     2055.961        1.593        0.719      132.237       48.198        0.133      340.364       14.333      858.552
05/04/2013  08:16:00      -15.371      249.785      -18.440       41.546       94.557       35.535     1726.095     8941.094     1262.730        3.745        0.596      250.257       45.288        0.033      340.126       13.928      858.534
05/04/2013  08:17:00       47.848      137.399       -6.360       60.841      100.146       60.595     3701.654    10029.200     3671.702        1.930        0.870      145.492       65.578        0.203      340.211       14.074      858.529
05/04/2013  08:18:00       13.866       91.247       18.014       37.533       82.597       49.860     1408.704     6822.268     2486.064        0.978        0.536       92.295       52.728        0.326      340.515       14.589      858.513
05/04/2013  08:19:00       14.000       17.180       21.868       49.222       33.011       31.557     2422.833     1089.717      995.836        0.274        0.225       22.162       25.810        1.356      340.674       14.857      858.506
05/04/2013  08:20:00      100.458      112.530       10.326       64.332       60.816       58.750     4138.630     3698.556     3451.599        1.707        0.564      150.846       41.029        0.074      340.396       14.387      858.496
05/04/2013  08:21:00       18.655      176.393      -15.779       51.022       80.839       38.375     2603.244     6534.939     1472.631        2.116        0.531      177.377       43.409        0.060      340.257       14.151      858.496
05/04/2013  08:22:00       73.103      104.718        9.314       91.538       74.538       45.354     8379.245     5555.901     2057.029        1.619        0.800      127.710       42.543        0.111      340.489       14.544      858.483
05/04/2013  08:23:00      146.988       99.890       11.801       74.725       52.689       50.962     5583.875     2776.132     2597.089        2.134        0.548      177.718       38.999        0.048      340.282       14.194      858.477
05/04/2013  08:24:00      129.688       76.603       14.327       44.915       36.801       42.214     2017.331     1354.298     1782.017        1.402        0.258      150.622       21.817        0.021      340.247       14.138      858.463
05/04/2013  08:25:00      104.091       84.360       27.897       55.042       54.438       42.290     3029.593     2963.529     1788.409        1.325        0.389      133.983       20.057        0.022      340.338       14.290      858.451
05/04/2013  08:26:00       95.955      106.799       -0.821       47.964       60.355       37.622     2300.511     3642.692     1415.451        1.399        0.368      143.573       32.809        0.052      340.324       14.266      858.440
05/04/2013  08:27:00       19.623      102.951        5.974       55.273       94.830       51.213     3055.087     8992.678     2622.749        1.284        0.734      104.805       58.247        0.309      340.258       14.153      858.432
05/04/2013  08:28:00       53.603       47.486       17.615       54.273       34.805       34.745     2945.598     1211.358     1207.227        0.540        0.268       71.612       26.811        0.140      340.484       14.537      858.406
05/04/2013  08:29:00       56.948       60.133       73.838       45.894       36.126       33.084     2106.260     1305.117     1094.561        0.841        0.225       82.819       23.217        0.079      340.252       14.145      858.372
05/04/2013  08:30:00       33.657       31.083       29.410       53.480       54.492       43.210     2860.138     2969.407     1867.146        0.533        0.385       45.814       16.994        0.138      340.375       14.353      858.360
05/04/2013  08:31:00       32.188      -13.979       32.455       54.949       60.347       41.038     3019.395     3641.704     1684.089        0.531        0.417       35.092       31.667        0.814      340.403       14.400      858.341
05/04/2013  08:32:00       25.691      -52.492       25.670       55.303       76.500       39.425     3058.473     5852.314     1554.294        0.727        0.523       58.442       45.831        0.615      340.629       14.783      858.332
05/04/2013  08:33:00       33.101      -70.637       -2.787       44.796       72.375       37.208     2006.641     5238.149     1384.419        0.736        0.431       78.008       44.915        0.332      340.574       14.691      858.331
05/04/2013  08:34:00      117.390       86.610       37.742       54.044       35.918       34.841     2920.805     1290.109     1213.905        1.406        0.271      145.882       19.736        0.018      340.334       14.283      858.345
05/04/2013  08:35:00      108.670       94.733       37.850       50.440       42.885       37.149     2544.242     1839.136     1380.046        1.399        0.288      144.165       26.099        0.033      340.473       14.517      858.329
05/04/2013  08:36:00      147.494      103.297       86.986       99.498       75.190       71.973     9899.837     5653.504     5180.169        3.036        1.037      180.069       51.314        0.081      340.227       14.100      858.321
05/04/2013  08:37:00      154.021       81.646       70.712      125.172       85.206       83.349    15668.138     7260.123     6947.016        3.263        1.494      174.323       78.246        0.201      340.318       14.253      858.273
05/04/2013  08:38:00      108.712      108.574       89.792       86.312       58.949       59.124     7449.759     3475.017     3495.596        2.304        0.721      153.645       53.686        0.122      340.221       14.091      858.270
05/04/2013  08:39:00       40.755       90.017       80.992       65.153       60.898       54.675     4244.891     3708.626     2989.389        1.363        0.547       98.813       30.825        0.097      340.548       14.644      858.255
05/04/2013  08:40:00       22.614       44.968       80.066       70.222       54.865       37.067     4931.080     3010.132     1373.998        0.913        0.466       50.334       38.820        0.595      340.532       14.617      858.246
05/04/2013  08:41:00       37.623      -69.332       20.485       60.879       64.897       44.447     3706.209     4211.681     1975.546        0.827        0.495       78.882       47.836        0.368      340.419       14.426      858.241
05/04/2013  08:42:00       44.385      -97.210        0.453       43.601       54.870       34.123     1901.075     3010.771     1164.407        0.875        0.304      106.864       22.349        0.044      340.435       14.453      858.229
05/04/2013  08:43:00       37.236      -30.530       10.201       32.471       44.672       37.128     1054.389     1995.553     1378.474        0.342        0.221       48.152       23.724        0.243      340.245       14.132      858.216
05/04/2013  08:44:00       45.994       18.326       48.008       61.526       68.542       44.909     3785.417     4698.027     2016.830        0.763        0.525       49.510       48.787        0.971      340.324       14.268      858.202
05/04/2013  08:45:00       30.127       18.388       62.205       57.640       87.044       60.272     3322.315     7576.740     3632.765        0.982        0.727       35.295       65.243        3.417      340.183       14.028      858.181
05/04/2013  08:46:00       18.137       -0.569       52.305       38.116       58.723       33.082     1452.829     3448.361     1094.386        0.453        0.300       18.145        9.039        0.248      340.516       14.591      858.176
05/04/2013  08:47:00       42.228      -59.206        4.821       45.971       73.588       45.076     2113.335     5415.192     2031.810        0.743        0.478       72.723       34.444        0.224      340.427       14.440      858.171
05/04/2013  08:48:00       90.594      -64.944       20.230       54.293       49.445       44.124     2947.740     2444.807     1946.903        1.009        0.367      111.467       32.097        0.083      340.233       14.113      858.164
05/04/2013  08:49:00       76.675      -68.979        9.692       55.246       67.527       40.801     3052.170     4559.889     1664.747        1.000        0.464      103.137       38.084        0.136      340.627       14.779      858.155
05/04/2013  08:50:00       65.171       57.171       56.189       67.451       81.288       45.039     4549.687     6607.812     2028.486        1.193        0.659       86.694       40.648        0.220      340.382       14.366      858.136
05/04/2013  08:51:00      111.506       84.404       83.876       88.978       60.892       71.579     7917.117     3707.880     5123.517        2.167        0.837      139.848       58.671        0.176      340.300       14.223      858.132
05/04/2013  08:52:00       47.602       43.253       43.960       30.652       26.147       43.356      939.550      683.681     1879.756        0.479        0.175       64.318       14.095        0.048      340.243       14.129      858.122
05/04/2013  08:53:00      -11.297       90.120        1.110       35.056       67.515       33.054     1228.922     4558.278     1092.549        0.756        0.344       90.825       39.067        0.185      340.627       14.778      858.110
05/04/2013  08:54:00       93.809       55.411       11.973       49.941       40.058       39.203     2494.063     1604.678     1536.910        0.882        0.282      108.952       27.287        0.063      340.502       14.567      858.081
05/04/2013  08:55:00       54.224       28.992       31.492       71.287       54.228       48.017     5081.901     2940.632     2305.662        0.755        0.516       61.488       36.190        0.346      340.878       15.203      858.058
05/04/2013  08:56:00       40.191       25.126       35.351       59.701       86.686       55.431     3564.221     7514.546     3072.621        0.882        0.708       47.399       47.203        0.992      340.533       14.620      858.030
05/04/2013  08:57:00       12.020       25.868       76.215       66.174       93.255       59.937     4379.041     8696.523     3592.421        1.164        0.833       28.525       59.001        4.278      340.676       14.862      858.003
05/04/2013  08:58:00       58.644       19.680       35.605       64.793       82.890       40.926     4198.072     6870.827     1674.970        0.892        0.637       61.858       33.857        0.300      340.484       14.537      857.986
05/04/2013  08:59:00       69.055       32.436       40.893       68.611       86.447       60.428     4707.441     7473.042     3651.487        1.166        0.792       76.293       47.247        0.384      340.463       14.500      857.980
05/04/2013  09:00:00       36.183       -4.777       48.588       51.063       78.813       41.834     2607.421     6211.412     1750.060        0.713        0.528       36.497       34.032        0.869      340.607       14.745      857.967
05/04/2013  09:01:00       80.630       72.222       44.666       73.297       75.629       42.669     5372.505     5719.693     1820.650        1.331        0.646      108.246       43.586        0.162      340.694       14.891      857.974
05/04/2013  09:02:00       84.977       50.610       23.840      115.565       91.720       39.796    13355.319     8412.556     1583.721        1.685        1.168       98.906       45.106        0.208      341.012       15.428      857.943
05/04/2013  09:03:00      168.325       87.894       37.434       97.828       80.615       63.058     9570.247     6498.832     3976.303        2.875        1.002      189.891       44.706        0.055      340.656       14.825      857.930
05/04/2013  09:04:00      108.115       91.124       25.696       73.327       61.645       53.873     5376.905     3800.095     2902.247        1.636        0.604      141.394       36.517        0.067      340.598       14.727      857.912
05/04/2013  09:05:00      169.006      113.678        8.162       79.584       64.913       50.344     6333.590     4213.738     2534.546        2.731        0.654      203.681       35.278        0.030      340.567       14.675      857.875
05/04/2013  09:06:00      200.533      127.317       15.752      112.145       82.423       46.406    12576.549     6793.544     2153.509        3.909        1.076      237.535       37.603        0.025      340.574       14.688      857.849
05/04/2013  09:07:00      110.576       47.651       26.998       97.290       61.364       52.248     9465.260     3765.600     2729.895        1.559        0.798      120.406       45.276        0.141      340.555       14.656      857.845
05/04/2013  09:08:00       23.757       49.667       25.884       49.810       37.074       36.834     2481.067     1374.493     1356.750        0.446        0.261       55.057       21.612        0.154      340.919       15.272      857.811
05/04/2013  09:09:00       57.272      109.802        1.646       78.148       93.382       35.676     6107.170     8720.216     1272.800        1.572        0.805      123.841       34.448        0.077      340.648       14.812      857.806
05/04/2013  09:10:00      102.268       88.739       14.527       84.537       56.685       43.774     7146.423     3213.215     1916.174        1.541        0.614      135.401       34.434        0.065      340.805       15.079      857.790
05/04/2013  09:11:00       61.980       52.579       -1.408       45.996       39.986       37.628     2115.677     1598.863     1415.856        0.587        0.257       81.278       19.234        0.056      340.521       14.599      857.785
05/04/2013  09:12:00       79.349      -78.045       39.903       67.937       94.397       53.547     4615.381     8910.772     2867.255        1.518        0.820      111.298       50.907        0.209      340.701       14.904      857.755
05/04/2013  09:13:00      116.372      100.161       62.549      106.859       70.990       69.365    11418.886     5039.646     4811.543        2.438        1.064      153.541       34.806        0.051      340.909       15.254      857.760
05/04/2013  09:14:00      129.803       68.554       27.788       60.203       54.801       51.549     3624.360     3003.154     2657.309        1.580        0.464      146.794       31.688        0.047      340.802       15.074      857.761
05/04/2013  09:15:00      140.726       83.392       34.357       90.900       48.220       43.314     8262.883     2325.212     1876.062        2.020        0.623      163.579       28.539        0.030      340.711       14.919      857.770
05/04/2013  09:16:00       39.714       67.693       80.208       52.523       51.256       50.518     2758.697     2627.140     2552.024        1.026        0.397       78.483       39.673        0.256      340.706       14.911      857.769
05/04/2013  09:17:00       -0.537       56.305       89.943       48.109       63.915       31.971     2314.461     4085.114     1022.154        0.934        0.371       56.308       33.267        0.349      340.755       14.993      857.776
05/04/2013  09:18:00       67.390       79.321       67.942       48.918       49.666       49.511     2392.943     2466.749     2451.377        1.138        0.366      104.082       16.172        0.024      340.804       15.078      857.772
05/04/2013  09:19:00       88.285       97.872       69.784       66.156       50.284       54.795     4376.680     2528.478     3002.451        1.607        0.495      131.807       14.242        0.012      340.584       14.706      857.777
05/04/2013  09:20:00      190.858      108.873       41.660       85.397       71.257       68.429     7292.653     5077.513     4682.542        3.353        0.853      219.727       40.860        0.035      340.486       14.536      857.779
05/04/2013  09:21:00      210.824      144.993       33.835      103.150       75.223       69.943    10639.911     5658.487     4891.960        4.390        1.060      255.871       50.313        0.039      340.628       14.778      857.768
05/04/2013  09:22:00      192.438      139.719       34.520       73.989       59.516       56.670     5474.319     3542.110     3211.464        3.498        0.611      237.811       40.913        0.030      340.535       14.619      857.767
05/04/2013  09:23:00      141.551       76.980       33.597       58.166       50.618       45.368     3383.249     2562.190     2058.227        1.755        0.400      161.129       30.756        0.036      340.562       14.667      857.758
05/04/2013  09:24:00      175.478      125.306       18.374       82.855       62.473       48.442     6864.993     3902.895     2346.606        2.997        0.656      215.625       43.851        0.041      340.611       14.749      857.744
05/04/2013  09:25:00      120.839       86.409       14.657       98.211       59.938       53.071     9645.416     3592.615     2816.508        1.917        0.803      148.555       26.636        0.032      340.777       15.029      857.728
05/04/2013  09:26:00       41.471      103.262        3.193       45.148       56.649       45.260     2038.311     3209.102     2048.436        0.984        0.365      111.278       38.850        0.122      340.928       15.288      857.718
05/04/2013  09:27:00       72.245       32.326       45.419       62.221       68.477       56.141     3871.485     4689.142     3151.865        1.002        0.586       79.147       28.667        0.131      340.988       15.389      857.714
05/04/2013  09:28:00       66.532      111.447      108.350       79.713       64.285       54.405     6354.165     4132.594     2959.882        2.101        0.672      129.796       41.705        0.103      340.899       15.237      857.708
05/04/2013  09:29:00      100.033      136.949      110.819      100.283       84.983       86.855    10056.692     7222.082     7543.711        3.293        1.241      169.593       69.662        0.169      341.023       15.446      857.718
05/04/2013  09:30:00      227.356      172.653       75.721       96.854       51.170       75.731     9380.667     2618.411     5735.141        5.248        0.887      285.482       66.588        0.054      340.361       14.324      857.736
05/04/2013  09:31:00      113.378       76.051       24.109       67.036       64.542       50.949     4493.759     4165.606     2595.783        1.524        0.563      136.522       30.088        0.049      340.588       14.711      857.731
05/04/2013  09:32:00      135.130       65.789       -8.115       77.069       67.244       44.236     5939.625     4521.699     1956.844        1.753        0.621      150.294       10.790        0.005      340.807       15.081      857.727
05/04/2013  09:33:00      137.258       88.271       33.458       62.395       47.188       46.565     3893.176     2226.691     2168.300        1.802        0.414      163.192       28.374        0.030      340.649       14.813      857.717
05/04/2013  09:34:00        1.052       57.454       -8.020       51.099       57.644       25.040     2611.064     3322.791      627.013        0.496        0.328       57.464       22.949        0.159      340.631       14.785      857.694
05/04/2013  09:35:00       22.317       54.534       26.911       39.992       33.953       38.041     1599.377     1152.787     1447.151        0.420        0.210       58.924       15.783        0.072      340.872       15.193      857.674
05/04/2013  09:36:00      -58.926       55.028       -0.514       52.099       42.767       36.643     2714.341     1828.977     1342.684        0.619        0.294       80.625       29.129        0.131      340.821       15.106      857.643
05/04/2013  09:37:00       42.248       -2.875        7.607       37.119       40.769       37.543     1377.797     1662.122     1409.487        0.315        0.222       42.346       15.547        0.135      341.031       15.462      857.622
05/04/2013  09:38:00        1.101      -24.496       18.778       33.191       39.492       30.843     1101.632     1559.625      951.274        0.228        0.181       24.521       21.383        0.760      341.378       16.049      857.602
05/04/2013  09:39:00       39.285      -97.955        6.335       71.336       56.068       45.168     5088.760     3143.621     2040.171        1.072        0.514      105.539       34.886        0.109      340.909       15.254      857.589
05/04/2013  09:40:00        5.610      -39.770       29.439       37.108       51.285       29.216     1376.989     2630.166      853.583        0.367        0.243       40.164       22.619        0.317      341.353       16.007      857.579
05/04/2013  09:41:00       -2.555      -52.912       13.627       37.902       56.399       35.992     1436.528     3180.837     1295.437        0.445        0.296       52.974       34.084        0.414      341.273       15.872      857.566
05/04/2013  09:42:00       89.456     -161.225      -43.107      105.681       99.383       56.463    11168.421     9877.041     3188.074        3.004        1.212      184.380       69.450        0.142      341.022       15.444      857.551
05/04/2013  09:43:00       59.430      -29.307       29.618       62.823       88.158       52.437     3946.676     7771.808     2749.650        0.987        0.723       66.263       64.026        0.934      341.266       15.860      857.561
05/04/2013  09:44:00        8.265      -23.679       39.776       35.487       39.723       29.595     1259.331     1577.890      875.868        0.296        0.186       25.080       10.763        0.184      341.088       15.559      857.554
05/04/2013  09:45:00       24.527      -43.477       37.180       58.010      100.661       38.952     3365.134    10132.621     1517.238        0.944        0.751       49.918       42.925        0.739      340.864       15.180      857.547
05/04/2013  09:46:00       83.932      -85.048       15.083       62.083       85.683       41.470     3854.278     7341.624     1719.795        1.371        0.646      119.490       51.287        0.184      340.976       15.366      857.542
05/04/2013  09:47:00      -20.319     -119.664       -1.734       71.762       83.616       53.960     5149.815     6991.705     2911.725        1.489        0.753      121.377       40.151        0.109      341.018       15.437      857.508
05/04/2013  09:48:00       58.947       30.868       48.900      102.792       50.963       47.098    10566.224     2597.238     2218.233        1.110        0.769       66.540       23.640        0.126      341.639       16.492      857.539
05/04/2013  09:49:00      170.963      113.908       94.959      199.532      107.380      108.482    39812.849    11530.375    11768.330        5.716        3.156      205.434       98.525        0.230      340.995       15.399      857.522
05/04/2013  09:50:00      229.045      145.222       53.387      107.502       76.629       85.188    11556.768     5871.985     7256.958        5.054        1.234      271.203       62.501        0.053      340.721       14.933      857.533
05/04/2013  09:51:00      219.578       89.193       39.460      121.174       87.972       82.549    14683.042     7739.027     6814.265        4.348        1.462      237.002       64.253        0.073      340.864       15.178      857.540
05/04/2013  09:52:00      241.359      143.206       21.901       83.465       79.615       62.829     6966.360     6338.600     3947.444        4.824        0.863      280.646       39.705        0.020      340.981       15.373      857.551
05/04/2013  09:53:00      278.527      187.388       27.597       99.268       61.188       67.641     9854.175     3744.006     4575.289        6.581        0.909      335.696       45.875        0.019      340.827       15.112      857.550
05/04/2013  09:54:00      169.541      104.458        9.215      114.485       55.492       52.303    13106.895     3079.326     2735.602        2.933        0.946      199.137       44.015        0.049      340.768       15.016      857.555
05/04/2013  09:55:00      173.118      120.219       66.828       97.156       84.554       67.583     9439.362     7149.311     4567.514        3.502        1.058      210.766       62.033        0.087      340.924       15.277      857.537
05/04/2013  09:56:00      203.991      124.321       15.828      102.423       78.448       56.094    10490.494     6154.085     3146.554        3.855        0.990      238.889       37.334        0.024      340.935       15.297      857.548
05/04/2013  09:57:00      133.065       84.729       37.724       60.953       48.939       61.673     3715.230     2395.023     3803.510        1.811        0.496      157.751       21.568        0.019      341.052       15.496      857.532
05/04/2013  09:58:00      131.385       78.605       19.908       86.166       64.465       42.897     7424.513     4155.762     1840.181        1.863        0.671      153.104       17.110        0.012      341.042       15.479      857.528
05/04/2013  09:59:00       59.439       94.262      103.487       84.536       77.888       69.881     7146.317     6066.616     4883.350        2.061        0.905      111.438       56.718        0.259      341.167       15.690      857.507
05/04/2013  10:00:00       -1.376       14.948       73.537       44.597       64.279       59.434     1988.853     4131.742     3532.424        0.764        0.483       15.011       42.774        8.119      341.024       15.449      857.483
05/04/2013  10:01:00       63.471      -12.582       22.271       46.324       64.188       37.998     2145.893     4120.044     1443.819        0.620        0.385       64.706       28.731        0.197      340.925       15.283      857.486
05/04/2013  10:02:00      190.080      133.071       21.114       88.384       70.635       55.897     7811.800     4989.282     3124.482        3.510        0.796      232.031       37.555        0.026      340.836       15.128      857.472
05/04/2013  10:03:00      191.350      151.357       27.198       52.580       51.357       42.826     2764.684     2637.499     1834.091        3.375        0.362      243.975       28.699        0.014      340.765       15.009      857.455
05/04/2013  10:04:00      240.416      125.269       24.483       90.058       62.878       61.512     8110.440     3953.649     3783.681        4.497        0.792      271.095       47.846        0.031      340.906       15.246      857.441
05/04/2013  10:05:00       85.686       63.435       29.082       55.376       40.069       39.879     3066.466     1605.559     1590.373        0.924        0.313      106.612       16.686        0.024      341.047       15.489      857.428
05/04/2013  10:06:00      223.628      184.328       39.362      162.776       98.019       78.632    26496.099     9607.644     6183.054        6.390        2.114      289.804       36.976        0.016      341.097       15.571      857.401
05/04/2013  10:07:00      210.470      113.052       95.406      154.001       86.129       85.207    23716.303     7418.179     7260.196        5.228        1.920      238.911       71.626        0.090      341.341       15.984      857.414
05/04/2013  10:08:00      159.530      117.948       72.678       85.983       70.530       74.974     7393.086     4974.520     5621.044        3.131        0.899      198.397       55.485        0.078      341.157       15.672      857.428
05/04/2013  10:09:00      133.690       95.322       83.408       73.347       76.253       57.792     5379.741     5814.513     3339.861        2.422        0.727      164.193       35.144        0.046      341.161       15.681      857.425
05/04/2013  10:10:00      198.317      119.472       63.009       94.387       65.757       79.600     8908.989     4323.923     6336.199        3.857        0.978      231.524       58.964        0.065      341.151       15.661      857.405
05/04/2013  10:11:00      156.619       99.317       32.055       91.550       71.412       63.698     8381.387     5099.642     4057.396        2.648        0.877      185.454       31.379        0.029      341.104       15.582      857.383
05/04/2013  10:12:00      126.403      118.181       19.987       80.036       66.719       54.605     6405.730     4451.449     2981.751        2.209        0.692      173.044       45.663        0.070      341.205       15.755      857.375
05/04/2013  10:13:00       10.719      164.865      -14.061       53.994       74.310       41.789     2915.346     5522.031     1746.327        1.884        0.509      165.213       43.083        0.068      341.274       15.871      857.337
05/04/2013  10:14:00       18.945      176.891      -16.203       60.829       78.717       39.011     3700.226     6196.426     1521.867        2.166        0.571      177.903       42.221        0.056      341.433       16.141      857.313
05/04/2013  10:15:00      131.732      104.827       14.926       78.187       53.610       53.206     6113.227     2874.072     2830.931        2.019        0.591      168.351       16.330        0.009      341.341       15.984      857.313
05/04/2013  10:16:00      154.122       95.639       15.554       46.298       37.499       41.391     2143.501     1406.200     1713.239        1.920        0.263      181.385       19.563        0.012      341.208       15.760      857.295
05/04/2013  10:17:00      155.493      112.387       11.574       55.936       55.286       44.516     3128.882     3056.579     1981.649        2.255        0.408      191.857       24.743        0.017      341.019       15.439      857.285
05/04/2013  10:18:00      106.102       63.478       18.821       75.790       41.097       46.177     5744.077     1688.973     2132.327        1.260        0.478      123.640       21.201        0.029      341.198       15.744      857.271
05/04/2013  10:19:00       67.965       40.318       34.172       75.903       59.652       44.225     5761.257     3558.334     1955.879        0.934        0.564       79.024       40.115        0.258      341.013       15.432      857.284
05/04/2013  10:20:00       68.041       38.155       77.911       80.822      109.499       68.277     6532.276    11990.023     4661.769        1.767        1.159       78.009       66.121        0.718      341.278       15.879      857.279
05/04/2013  10:21:00       20.739       30.582       84.328       63.157      106.189       61.061     3988.771    11276.059     3728.453        1.373        0.950       36.951       57.677        2.436      341.415       16.112      857.220
05/04/2013  10:22:00      100.193     -122.048        5.646      103.645      131.702       73.797    10742.272    17345.341     5446.036        2.924        1.677      157.906       80.879        0.262      341.429       16.133      857.210
05/04/2013  10:23:00       79.986      -39.942       54.608       72.560      107.771       68.343     5264.975    11614.617     4670.708        1.626        1.078       89.404       68.705        0.591      341.675       16.552      857.190
05/04/2013  10:24:00      194.435      183.346      158.279      128.834      118.262      109.036    16598.198    13985.819    11888.767        6.947        2.124      267.246       86.714        0.105      341.276       15.872      857.187
05/04/2013  10:25:00      154.083      139.908       92.334       99.862       79.305       95.636     9972.401     6289.241     9146.249        3.862        1.270      208.124       74.224        0.127      341.479       16.217      857.186
05/04/2013  10:26:00      247.540      162.243       52.139      138.017       79.271       74.297    19048.732     6283.905     5520.054        6.058        1.543      295.971       43.342        0.021      341.620       16.457      857.166
05/04/2013  10:27:00      217.990      132.233       46.346       79.512       99.742       56.425     6322.082     9948.513     3183.819        4.330        0.973      254.961       41.909        0.027      341.397       16.078      857.131
05/04/2013  10:28:00      168.743       97.826       27.954      134.761       99.047       60.856    18160.567     9810.218     3703.473        3.524        1.584      195.049       25.122        0.017      341.797       16.759      857.113
05/04/2013  10:29:00      341.737      143.475       43.893      195.654      142.553      108.658    38280.447    20321.401    11806.564       10.484        3.520      370.634       58.440        0.025      341.605       16.430      857.087
05/04/2013  10:30:00      182.270      102.598       86.560      148.894       95.896       94.500    22169.507     9196.051     8930.229        4.576        2.015      209.162       95.234        0.207      341.445       16.160      857.119
05/04/2013  10:31:00       76.528      114.787       89.835       89.611       68.484       96.451     8030.060     4690.025     9302.716        2.456        1.101      137.959       76.789        0.310      341.389       16.065      857.091
05/04/2013  10:32:00      144.547       80.425       51.908      131.039       91.139       97.499    17171.126     8306.307     9506.056        3.251        1.749      165.414       46.787        0.080      341.925       16.973      857.083
05/04/2013  10:33:00      165.868      187.390      163.750      186.684      107.010       88.601    34851.097    11451.061     7850.094        7.179        2.708      250.254       70.832        0.080      341.442       16.156      857.070
05/04/2013  10:34:00      114.076       89.545       32.970      116.657       96.846       70.740    13608.920     9379.224     5004.185        2.505        1.400      145.023       52.129        0.129      341.621       16.459      857.072
05/04/2013  10:35:00       87.123       43.470       29.758       93.338       83.829       56.217     8712.009     7027.360     3160.363        1.463        0.945       97.366        9.252        0.009      341.882       16.902      857.037
05/04/2013  10:36:00      108.739      -10.724       74.624      109.242      172.590       93.353    11933.770    29787.188     8714.708        3.396        2.522      109.267      105.947        0.940      341.870       16.880      857.007
05/04/2013  10:37:00       81.659      -69.879       58.175      109.012      152.641       85.131    11883.687    23299.283     7247.252        2.868        2.122      107.476       83.600        0.605      341.886       16.909      856.968
05/04/2013  10:38:00       81.855       41.228       78.368       81.115       81.582       61.078     6579.609     6655.645     3730.475        1.575        0.848       91.652       48.979        0.286      341.762       16.700      856.969
05/04/2013  10:39:00       41.720      -25.860       34.214      129.604      110.317       73.732    16797.265    12169.941     5436.415        1.899        1.720       49.084       62.358        1.614      341.762       16.699      856.922
05/04/2013  10:40:00      112.557        2.887      157.936      167.996      221.423      154.101    28222.696    49028.079    23747.058        6.929        5.050      112.594      156.416        1.930      342.045       17.180      856.879
05/04/2013  10:41:00      183.055      156.536      141.373      149.858      118.544      105.551    22457.511    14052.789    11141.040        6.282        2.383      240.858       60.206        0.062      341.899       16.929      856.876
05/04/2013  10:42:00      302.728      154.380      126.174      224.674      179.027      137.906    50478.459    32050.506    19018.039       11.646        5.077      339.820      136.361        0.161      341.695       16.582      856.906
05/04/2013  10:43:00      156.778      119.111       50.996      157.697      106.065       94.717    24868.391    11249.857     8971.404        4.322        2.254      196.893       76.491        0.151      341.873       16.885      856.902
05/04/2013  10:44:00      271.050      182.299       44.236      110.481       95.768       70.320    12206.148     9171.502     4944.847        6.749        1.316      326.651       36.436        0.012      341.678       16.554      856.897
05/04/2013  10:45:00      207.881      188.829      107.536      132.057       74.712       98.799    17438.947     5581.929     9761.162        6.160        1.639      280.840       92.531        0.109      341.542       16.324      856.897
05/04/2013  10:46:00       48.487       46.527       77.717       60.859       95.185       59.238     3703.872     9060.124     3509.167        1.341        0.814       67.200       44.983        0.448      341.809       16.778      856.893
05/04/2013  10:47:00      129.293      127.968       89.789       86.717       70.135       62.704     7519.793     4918.965     3931.785        2.876        0.819      181.914       56.624        0.097      341.311       15.932      856.861
05/04/2013  10:48:00       86.629        0.057       18.494       52.692       95.669       35.562     2776.483     9152.547     1264.633        1.052        0.660       86.629       36.979        0.182      341.486       16.231      856.851
05/04/2013  10:49:00      113.696       15.430       65.324      139.459      134.903       75.538    19448.784    18198.895     5706.061        3.039        2.168      114.738       59.683        0.271      342.053       17.192      856.826
05/04/2013  10:50:00      155.477      155.646      147.950      124.370      110.353       90.251    15467.997    12177.737     8145.244        5.303        1.790      219.997       83.450        0.144      341.626       16.466      856.804
05/04/2013  10:51:00       88.043      -52.532       44.888      113.364      100.816       68.029    12851.289    10163.932     4627.942        2.008        1.382      102.524       62.069        0.367      341.921       16.970      856.770
05/04/2013  10:52:00      124.744     -104.400       35.691      109.005      163.856       84.233    11882.183    26848.774     7095.236        3.677        2.291      162.666       98.050        0.363      342.052       17.191      856.756
05/04/2013  10:53:00      169.428     -152.657        9.747       99.906      151.996       93.452     9981.205    23102.796     8733.258        4.695        2.091      228.057       98.239        0.186      341.844       16.836      856.740
05/04/2013  10:54:00      100.102      -39.639       84.372      104.164      164.239       94.759    10850.080    26974.367     8979.266        3.275        2.340      107.665      113.432        1.110      341.902       16.935      856.741
05/04/2013  10:55:00       64.052      -33.196       57.529       83.366      149.766       66.205     6949.912    22429.833     4383.167        2.113        1.688       72.143       58.939        0.667      342.166       17.384      856.717
05/04/2013  10:56:00      196.507     -146.449       18.537      142.959      189.562       94.379    20437.225    35933.698     8907.469        6.283        3.264      245.076      123.924        0.256      341.983       17.072      856.665
05/04/2013  10:57:00      103.643      -84.289       73.487      107.357      186.711      116.234    11525.542    34861.069    13510.424        4.156        2.995      133.591      119.203        0.796      342.152       17.359      856.650
05/04/2013  10:58:00      175.636     -152.022       53.241      142.312      217.711      110.279    20252.782    47398.084    12161.408        6.829        3.991      232.290      129.331        0.310      341.846       16.839      856.598
05/04/2013  10:59:00      144.880      -33.024       88.355      130.552      150.504       97.890    17043.942    22651.308     9582.386        3.957        2.464      148.597       94.778        0.407      342.091       17.257      856.613
05/04/2013  11:00:00      154.254     -203.926       -4.538      120.739      173.919       85.046    14578.004    30247.661     7232.885        5.872        2.603      255.696       97.670        0.146      341.887       16.909      856.604
05/04/2013  11:01:00      147.194      -35.423       53.429      136.967      108.899       87.328    18760.053    11859.018     7626.226        3.200        1.912      151.396       53.568        0.125      342.235       17.501      856.612
05/04/2013  11:02:00      213.046       84.658      151.672      172.208      154.659      107.489    29655.727    23919.347    11553.867        7.033        3.256      229.250      108.817        0.225      341.784       16.732      856.632
05/04/2013  11:03:00      174.397      169.894      151.667      154.246      135.293      129.453    23791.833    18304.078    16758.119        7.056        2.943      243.471      105.084        0.186      341.660       16.523      856.606
05/04/2013  11:04:00      110.152       97.804      107.727      146.347      160.292      112.276    21417.482    25693.602    12605.844        4.650        2.986      147.306       98.246        0.445      341.759       16.691      856.599
05/04/2013  11:05:00      155.708       78.341      108.350      110.445      119.187       98.591    12198.058    14205.520     9720.179        3.912        1.806      174.305       70.815        0.165      341.621       16.457      856.600
05/04/2013  11:06:00      178.014      106.191       31.544      127.867       92.914       72.052    16349.950     8633.035     5191.419        3.706        1.509      207.281       53.809        0.067      341.866       16.874      856.583
05/04/2013  11:07:00      128.835     -119.971       -1.138      139.315      150.051       71.306    19408.563    22515.348     5084.593        3.899        2.350      176.044       88.505        0.253      342.437       17.845      856.579
05/04/2013  11:08:00       73.147      -44.898       38.557       73.077      123.113       61.396     5340.294    15156.752     3769.514        1.656        1.213       85.827       50.313        0.344      342.567       18.066      856.601
05/04/2013  11:09:00      206.843      141.756       80.741      167.929      110.664       93.683    28200.182    12246.612     8776.481        5.930        2.461      250.756       77.589        0.096      342.119       17.303      856.625
05/04/2013  11:10:00      291.877      139.416       33.294      168.079      123.536       96.850    28250.479    15261.044     9379.958        7.931        2.645      323.465       64.124        0.039      341.834       16.818      856.599
05/04/2013  11:11:00      244.142      123.396       31.107       96.099       84.986       70.726     9234.936     7222.605     5002.232        4.863        1.073      273.554       41.145        0.023      342.158       17.368      856.599
05/04/2013  11:12:00      181.620       82.371       92.592      168.336      151.199      114.649    28337.172    22861.215    13144.341        5.633        3.217      199.427      105.311        0.279      342.269       17.557      856.579
05/04/2013  11:13:00      209.976      117.914      135.863      165.991      152.369      106.598    27552.937    23216.160    11363.125        6.928        3.107      240.818       84.459        0.123      342.073       17.224      856.603
05/04/2013  11:14:00      237.158      137.196       90.693      163.765      110.359      106.157    26819.040    12179.192    11269.219        6.677        2.513      273.983       88.597        0.105      341.686       16.568      856.626
05/04/2013  11:15:00      173.109      132.197       96.162      136.225      130.740      117.441    18557.197    17092.869    13792.438        5.306        2.472      217.814      109.046        0.251      341.609       16.437      856.610
05/04/2013  11:16:00       99.606       22.922       24.357       88.688       73.408       61.467     7865.479     5388.678     3778.173        1.403        0.852      102.209       42.105        0.170      342.282       17.581      856.589
05/04/2013  11:17:00      121.202      111.879        5.317       97.305       72.187       59.369     9468.198     5210.924     3524.667        2.272        0.910      164.945       42.075        0.065      341.937       16.995      856.554
05/04/2013  11:18:00      127.552       71.204       24.158       98.701       68.127       55.212     9741.865     4641.326     3048.381        1.967        0.872      146.081       37.686        0.067      342.039       17.167      856.523
05/04/2013  11:19:00      159.128       97.040       32.636       67.559       70.536       60.644     4564.268     4975.313     3677.682        2.451        0.661      186.382       25.969        0.019      341.823       16.800      856.513
05/04/2013  11:20:00      146.578      149.550      129.135       93.806       84.568       84.913     8799.516     7151.831     7210.176        4.184        1.158      209.405       63.034        0.091      342.148       17.351      856.507
05/04/2013  11:21:00      199.187      210.903      159.358      180.058      119.884      112.154    32421.032    14372.218    12578.578        8.445        2.969      290.095      118.182        0.166      342.065       17.211      856.504
05/04/2013  11:22:00      240.220      113.276       46.845      135.706      108.682       95.006    18416.166    11811.677     9026.176        5.599        1.963      265.588       64.194        0.058      342.133       17.327      856.499
05/04/2013  11:23:00      187.831      133.187       30.544       85.331       55.151       61.069     7281.431     3041.617     3729.456        3.400        0.703      230.259       19.392        0.007      342.451       17.868      856.502
05/04/2013  11:24:00      147.527      146.168      112.449      112.701       87.628       69.565    12701.527     7678.623     4839.302        4.049        1.261      207.676       60.476        0.085      342.540       18.018      856.492
05/04/2013  11:25:00       86.504      111.403       93.378       82.039       62.291       66.092     6730.404     3880.207     4368.135        2.179        0.749      141.045       55.104        0.153      341.569       16.372      856.492
05/04/2013  11:26:00      231.095      125.124       35.616      102.483       78.003       64.912    10502.778     6084.400     4213.633        4.556        1.040      262.795       46.190        0.031      341.743       16.664      856.451
05/04/2013  11:27:00      121.612       37.955       36.179       80.866       93.446       61.954     6539.379     8732.230     3838.269        1.832        0.955      127.397       52.536        0.170      342.007       17.117      856.426
05/04/2013  11:28:00       51.994      -46.509       58.864       75.867      115.167       86.466     5755.761    13263.379     7476.304        1.741        1.325       69.760       84.875        1.480      342.054       17.194      856.379
05/04/2013  11:29:00      217.231     -285.354      -30.817      140.306      180.842       78.570    19685.710    32703.862     6173.210        9.405        2.928      358.631      111.384        0.096      341.808       16.776      856.344
05/04/2013  11:30:00      173.027     -123.201       40.758      145.673      169.416       87.982    21220.586    28701.940     7740.901        5.221        2.883      212.407      113.728        0.287      341.917       16.962      856.327
05/04/2013  11:31:00       99.750     -215.438      -19.415       55.752       56.218       37.144     3108.311     3160.441     1379.658        3.219        0.382      237.410       28.167        0.014      341.534       16.309      856.305
05/04/2013  11:32:00       13.993      -72.246       42.870       48.265       79.112       46.982     2329.551     6258.673     2207.294        0.902        0.540       73.589       46.558        0.400      342.171       17.394      856.261
05/04/2013  11:33:00       37.894        3.512       39.961       57.533       59.286       37.825     3310.055     3514.773     1430.733        0.565        0.413       38.056       29.641        0.607      341.948       17.015      856.253
05/04/2013  11:34:00       51.155       40.511       93.700       92.148       83.404       61.803     8491.214     6956.164     3819.664        1.615        0.963       65.253       42.921        0.433      342.420       17.816      856.233
05/04/2013  11:35:00      184.773      -89.044       58.879      178.764      184.021      100.869    31956.647    33863.665    10174.589        6.075        3.800      205.110      102.412        0.249      342.061       17.205      856.206
05/04/2013  11:36:00      123.829       18.857      135.468      134.455      228.597      126.230    18078.169    52256.604    15933.949        6.014        4.313      125.256      144.369        1.328      342.307       17.622      856.167
05/04/2013  11:37:00      126.309       89.629      137.369      110.281      162.771       92.089    12161.818    26494.451     8480.362        4.499        2.357      154.879      108.551        0.491      341.726       16.635      856.220
05/04/2013  11:38:00       66.542      -93.502       18.583       83.134       94.973       54.591     6911.254     9019.937     2980.210        1.621        0.946      114.762       52.669        0.211      342.345       17.690      856.227
05/04/2013  11:39:00       93.604     -151.379       -7.361       66.106       73.314       47.608     4370.038     5374.964     2266.495        2.187        0.601      177.981       36.929        0.043      342.016       17.129      856.206
05/04/2013  11:40:00       56.982     -134.223        1.494       59.130       73.530       60.278     3496.326     5406.596     3633.394        1.690        0.627      145.817       52.674        0.130      342.144       17.347      856.193
05/04/2013  11:41:00       45.315     -172.533        1.565       75.500      111.608       47.844     5700.194    12456.299     2289.051        2.613        1.022      178.385       38.447        0.046      341.833       16.818      856.165
05/04/2013  11:42:00       61.507     -123.070       -3.531       96.237      106.418       66.305     9261.549    11324.866     4396.327        2.196        1.249      137.584       66.929        0.237      342.497       17.945      856.160
05/04/2013  11:43:00      148.305       58.896      176.041      165.100      219.084      142.117    27257.932    47997.779    20197.163        7.594        4.773      159.572      157.314        0.972      342.322       17.647      856.142
05/04/2013  11:44:00      234.802       65.428      161.960      194.005      192.397      149.087    37637.880    37016.430    22226.967        9.125        4.844      243.748      169.473        0.483      341.971       17.051      856.106
05/04/2013  11:45:00      137.521      -87.174       39.797       99.775      117.846       74.701     9955.132    13887.576     5580.263        2.875        1.471      162.823       78.030        0.230      342.352       17.701      856.126
05/04/2013  11:46:00       55.257       69.572      111.437       89.022      102.787       86.068     7924.923    10565.136     7407.661        2.310        1.295       88.846       79.168        0.794      342.398       17.779      856.101
05/04/2013  11:47:00      124.445      -40.648       78.065       93.069      121.510       79.467     8661.777    14764.668     6315.057        2.648        1.487      130.915       76.812        0.344      342.244       17.517      856.088
05/04/2013  11:48:00       56.309       25.114       69.308       68.672       90.072       56.278     4715.809     8113.037     3167.267        1.230        0.800       61.655       55.126        0.799      342.787       18.441      856.097
05/04/2013  11:49:00      196.764      131.294       21.788      104.063       64.165       58.765    10829.184     4117.110     3453.301        3.741        0.920      236.546       36.563        0.024      342.031       17.154      856.093
05/04/2013  11:50:00       98.609       56.715       55.842       70.135       60.361       64.678     4918.952     3643.476     4183.271        1.440        0.637      113.755       35.152        0.095      341.936       16.995      856.046
05/04/2013  11:51:00       39.057      -81.631       22.400       52.571       86.199       53.090     2763.713     7430.302     2818.595        1.085        0.651       90.494       43.863        0.235      342.119       17.306      856.004
05/04/2013  11:52:00       69.014      -67.704       32.493      107.043      149.326       78.635    11458.109    22298.249     6183.484        2.516        1.997       96.679       83.798        0.751      342.554       18.044      855.961
05/04/2013  11:53:00       67.057      -21.560       55.230       93.707       83.685       58.258     8780.989     7003.213     3394.051        1.359        0.959       70.437       38.787        0.303      343.131       19.026      855.949
05/04/2013  11:54:00      204.620      151.752       63.401      124.106       80.105       81.540    15402.402     6416.753     6648.751        4.869        1.423      254.751       34.505        0.018      342.751       18.377      855.990
05/04/2013  11:55:00      349.539      234.513       -4.846      167.579      126.624      115.726    28082.687    16033.547    13392.534       11.734        2.875      420.921       80.474        0.037      342.188       17.420      855.970
05/04/2013  11:56:00      144.956      166.999       19.638      164.961      113.536       82.943    27212.159    12890.347     6879.612        4.813        2.349      221.135       58.069        0.069      342.162       17.377      855.954
05/04/2013  11:57:00      145.561      153.602       25.917      105.669       85.533       78.609    11165.968     7315.824     6179.343        3.505        1.233      211.617       59.727        0.080      342.467       17.895      855.948
05/04/2013  11:58:00      149.643      111.544       12.471      101.659       90.938       73.116    10334.567     8269.711     5345.921        2.947        1.198      186.641       59.004        0.100      342.531       18.003      855.954
05/04/2013  11:59:00      160.410      151.501       -2.060      126.601       73.584       54.561    16027.811     5414.619     2976.922        3.655        1.221      220.644       46.955        0.045      342.322       17.648      855.935
05/04/2013  12:00:00      111.322      124.838       13.601      130.565       98.360       64.102    17047.117     9674.648     4109.065        2.949        1.542      167.263       54.423        0.106      342.366       17.723      855.952
05/04/2013  12:01:00      218.406      144.608       25.375       94.113       75.187       64.379     8857.220     5653.042     4144.692        4.395        0.933      261.940       55.318        0.045      341.906       16.942      855.956
05/04/2013  12:02:00      170.404       83.571       36.207       57.701       50.804       46.529     3329.455     2581.094     2164.933        2.270        0.404      189.794       31.258        0.027      342.126       17.315      855.951
05/04/2013  12:03:00      210.430      144.444        9.366       99.415       78.744       58.614     9883.360     6200.598     3435.543        4.237        0.976      255.235       30.589        0.014      342.043       17.174      855.952
05/04/2013  12:04:00       29.198      202.468      -21.513       67.589       73.957       42.192     4568.236     5469.641     1780.165        2.706        0.591      204.563       41.942        0.042      341.814       16.785      855.959
05/04/2013  12:05:00      157.101      107.823       86.369      152.559      107.861       88.107    23274.362    11633.983     7762.882        4.321        2.134      190.543       55.421        0.085      342.313       17.633      855.934
05/04/2013  12:06:00      148.784      180.669      139.774      118.400       78.983       71.034    14018.558     6238.243     5045.801        4.980        1.265      234.047       67.047        0.082      341.922       16.969      855.942
05/04/2013  12:07:00       96.775      -18.217       75.117      125.765      157.738       80.449    15816.760    24881.227     6472.047        3.125        2.359       98.475       95.815        0.947      342.014       17.127      855.953
05/04/2013  12:08:00      145.125     -287.518      -32.553      116.684      140.757       74.468    13615.054    19812.580     5545.460        7.187        1.949      322.068       86.084        0.071      342.060       17.203      855.922
05/04/2013  12:09:00       98.238     -201.186      -33.772       98.032      115.113       69.102     9610.271    13250.960     4775.109        3.945        1.382      223.890       63.834        0.081      342.113       17.292      855.945
05/04/2013  12:10:00       -7.813     -133.930       -1.707       71.326       65.997       49.268     5087.360     4355.630     2427.339        1.493        0.594      134.158       25.236        0.035      342.246       17.520      855.955
05/04/2013  12:11:00      -10.723      -78.918       21.979       61.660       65.525       40.626     3801.996     4293.555     1650.461        0.828        0.487       79.643       24.820        0.097      342.464       17.892      855.944
05/04/2013  12:12:00       28.958      -75.329        1.403       88.145       60.559       42.784     7769.614     3667.344     1830.476        0.989        0.663       80.703       24.644        0.093      342.206       17.453      855.943
05/04/2013  12:13:00      -23.828     -107.174       14.204       69.350       64.593       44.467     4809.486     4172.290     1977.292        1.161        0.548      109.791       38.510        0.123      342.006       17.113      855.934
05/04/2013  12:14:00     -102.653      -16.813       15.331       48.597       49.231       30.276     2361.691     2423.708      916.647        0.838        0.285      104.021       28.464        0.075      342.162       17.379      855.902
05/04/2013  12:15:00      -66.621       50.308       -1.044       47.548       35.218       33.274     2260.785     1240.283     1107.151        0.579        0.230       83.482       35.989        0.186      342.373       17.737      855.879
05/04/2013  12:16:00      -73.208      -26.090      -11.754       42.747       31.771       24.671     1827.309     1009.401      608.651        0.481        0.172       77.718       27.991        0.130      341.904       16.941      855.842
05/04/2013  12:17:00     -102.765     -109.199       12.286      105.380       66.621       42.669    11105.011     4438.417     1820.614        2.000        0.868      149.950       43.923        0.086      342.397       17.776      855.827
05/04/2013  12:18:00     -229.234     -174.437      -17.688       84.454       90.196       50.360     7132.503     8135.269     2536.121        5.054        0.890      288.057       49.779        0.030      341.746       16.669      855.807
05/04/2013  12:19:00     -131.392      -55.012        3.032       58.927      118.284       34.509     3472.372    13991.203     1190.888        1.947        0.933      142.444       36.733        0.066      341.920       16.966      855.797
05/04/2013  12:20:00     -125.787      -40.030      -13.097       56.982       46.207       25.944     3246.940     2135.054      673.077        1.182        0.303      132.003       25.439        0.037      342.161       17.378      855.764
05/04/2013  12:21:00        9.039      -95.207        0.273       86.356      121.791       52.655     7457.289    14832.929     2772.551        1.710        1.253       95.635       49.039        0.263      342.664       18.230      855.726
05/04/2013  12:22:00      -65.845     -136.737        3.432       81.525       84.906       51.396     6646.292     7209.101     2641.523        1.977        0.825      151.765       39.069        0.066      342.753       18.381      855.719
05/04/2013  12:23:00     -141.867     -132.943       10.074      118.322       80.871       51.528    14000.026     6540.141     2655.186        3.054        1.160      194.422       28.679        0.022      342.518       17.981      855.720
05/04/2013  12:24:00       -6.304      -39.376       43.085       76.387       97.713       46.516     5834.963     9547.873     2163.745        1.049        0.877       39.877       52.635        1.742      342.772       18.416      855.707
05/04/2013  12:25:00        0.269       18.252       52.909       44.527       27.298       28.485     1982.623      745.199      811.397        0.334        0.177       18.253       24.544        1.808      343.206       19.156      855.720
05/04/2013  12:26:00       33.856       33.909       46.382      103.096       84.911       84.903    10628.879     7209.842     7208.556        1.474        1.252       47.917       74.389        2.410      342.393       17.771      855.742
05/04/2013  12:27:00      227.321       88.117       70.274      146.317      111.080       72.807    21408.646    12338.689     5300.925        5.171        1.952      243.802       40.927        0.028      342.104       17.279      855.730
05/04/2013  12:28:00      159.564       86.092       73.244      127.909      109.378       93.687    16360.659    11963.578     8777.268        3.766        1.855      181.308       42.417        0.055      342.412       17.801      855.697
05/04/2013  12:29:00      366.825      229.584       18.644      114.659       80.652       80.651    13146.604     6504.741     6504.517       10.688        1.308      432.746       44.487        0.011      341.879       16.895      855.705
05/04/2013  12:30:00      160.144       96.178       26.845      101.948       83.877       57.598    10393.361     7035.383     3317.518        2.818        1.037      186.805       24.030        0.017      342.250       17.526      855.719
05/04/2013  12:31:00       34.500      100.118      -10.431       39.979       79.753       44.053     1598.300     6360.497     1940.632        1.061        0.495      105.896       37.167        0.123      342.119       17.305      855.706
05/04/2013  12:32:00       74.257      -68.755       31.848       61.072       84.986       61.871     3729.740     7222.636     3828.068        1.302        0.739      101.199       52.246        0.267      341.659       16.525      855.693
05/04/2013  12:33:00       57.238       14.679       34.970       65.311       68.943       40.200     4265.513     4753.079     1616.035        0.767        0.532       59.090       31.795        0.290      341.890       16.918      855.664
05/04/2013  12:34:00      115.551       69.118       10.829       39.027       39.670       41.713     1523.140     1573.689     1739.975        1.154        0.242      134.645       20.103        0.022      341.716       16.622      855.661
05/04/2013  12:35:00       61.395       53.208       20.689       25.358       29.635       24.030      643.013      878.254      577.419        0.456        0.105       81.243       12.344        0.023      341.782       16.733      855.634
05/04/2013  12:36:00       41.641      -54.636        7.619       41.778       77.346       32.687     1745.388     5982.329     1068.423        0.679        0.440       68.696       36.954        0.289      342.194       17.434      855.614
05/04/2013  12:37:00      -58.764       -4.522      -14.497       53.855       65.184       29.024     2900.328     4248.982      842.375        0.584        0.400       58.938       23.645        0.161      342.456       17.877      855.575
05/04/2013  12:38:00      -58.328       11.208       -5.444       35.962       47.325       19.136     1293.241     2239.647      366.196        0.373        0.195       59.395       16.653        0.079      341.935       16.994      855.520
05/04/2013  12:39:00      -34.679       30.333        7.989       39.376       30.666       35.288     1550.491      940.406     1245.254        0.296        0.187       46.073       27.131        0.347      342.415       17.809      855.479
05/04/2013  12:40:00      -93.160       25.352        0.748       38.424       29.894       23.128     1476.412      893.633      534.883        0.611        0.145       96.548       20.767        0.046      342.268       17.558      855.459
05/04/2013  12:41:00      -76.171       39.709        2.654       70.257       30.737       33.605     4936.075      944.747     1129.316        0.720        0.351       85.900       38.193        0.198      342.785       18.441      855.440
05/04/2013  12:42:00     -146.704      -26.437       -6.606       43.642       56.712       24.921     1904.632     3216.226      621.036        1.400        0.287      149.067       21.564        0.021      342.101       17.274      855.415
05/04/2013  12:43:00      -81.873       -4.315      -15.868       35.002       15.823       16.063     1225.172      250.361      258.025        0.435        0.087       81.986        7.899        0.009      341.773       16.718      855.400
05/04/2013  12:44:00      -53.778       37.805       -1.953       34.257       67.687       29.571     1173.516     4581.533      874.416        0.548        0.331       65.736       27.601        0.176      342.149       17.357      855.401
05/04/2013  12:45:00       24.696       96.890       12.965       66.648       86.302       30.953     4441.919     7447.955      958.089        1.150        0.642       99.987       35.753        0.128      342.639       18.191      855.406
05/04/2013  12:46:00        0.243      229.578      -17.593       88.641      166.917       67.593     7857.219    27861.326     4568.769        4.664        2.014      229.578       83.594        0.133      342.535       18.009      855.359
05/04/2013  12:47:00      144.258      183.250        6.368      117.965      112.019       67.580    13915.676    12548.244     4567.001        4.273        1.552      233.219       52.519        0.051      342.779       18.425      855.334
05/04/2013  12:48:00       53.098      121.935       17.798       81.627       87.339       67.399     6663.009     7628.057     4542.640        1.842        0.942      132.994       47.667        0.128      342.805       18.470      855.342
05/04/2013  12:49:00       83.630       72.853       54.323       67.299       69.197       51.280     4529.180     4788.251     2629.612        1.360        0.597      110.912       45.082        0.165      341.943       17.007      855.348
05/04/2013  12:50:00       51.183      -86.069        5.378       53.040       53.939       30.571     2813.264     2909.396      934.577        0.836        0.333      100.138       25.572        0.065      341.996       17.098      855.316
05/04/2013  12:51:00      -68.478      -46.624      -23.859       83.141       71.270       39.091     6912.353     5079.343     1528.109        1.047        0.676       82.843       22.262        0.072      342.331       17.666      855.277
05/04/2013  12:52:00     -153.228      -26.997      -10.182       49.939       47.222       31.935     2493.896     2229.908     1019.850        1.503        0.287      155.588       28.982        0.035      342.024       17.144      855.232
05/04/2013  12:53:00       -0.931       52.171       15.240      137.647       54.356       47.783    18946.680     2954.626     2283.262        1.357        1.209       52.179       56.637        1.178      342.330       17.663      855.227
05/04/2013  12:54:00      144.213      115.684       80.617       94.478       87.271       58.159     8926.053     7616.273     3382.523        3.030        0.996      184.879       32.212        0.030      342.467       17.895      855.202
05/04/2013  12:55:00      140.164       32.567       72.475      137.315      128.759       80.009    18855.382    16578.940     6401.510        3.389        2.092      143.897       76.502        0.283      342.418       17.812      855.166
05/04/2013  12:56:00      145.754       56.139      132.123      118.527      128.324       73.719    14048.714    16466.984     5434.517        3.890        1.798      156.191       71.844        0.212      342.484       17.923      855.130
05/04/2013  12:57:00       49.078       -0.400       73.323       90.980      105.392       58.086     8277.423    11107.381     3373.954        1.527        1.138       49.080       40.390        0.677      342.749       18.376      855.123
05/04/2013  12:58:00       70.869       21.167      127.181      138.275      164.331       95.146    19119.858    27004.582     9052.774        3.840        2.759       73.962      106.391        2.069      342.850       18.547      855.071
05/04/2013  12:59:00      110.169     -161.629       -1.071       82.597      125.067       50.357     6822.284    15641.633     2535.832        3.163        1.250      195.604       42.129        0.046      342.550       18.036      855.053
05/04/2013  13:00:00      115.229      -77.812       21.137      112.637      141.123       86.899    12687.006    19915.781     7551.515        2.996        2.008      139.041       95.040        0.467      342.662       18.227      855.032
05/04/2013  13:01:00       81.376      -46.411       96.982       94.419      166.809       89.691     8915.001    27825.207     8044.544        3.148        2.239       93.680       98.762        1.111      342.797       18.457      855.005
05/04/2013  13:02:00      167.192     -168.547       29.959      101.130      209.269      112.276    10227.376    43793.686    12605.864        6.193        3.331      237.405      136.167        0.329      342.478       17.914      854.976
05/04/2013  13:03:00       81.560      132.740      166.327      112.323      149.374       82.529    12616.566    22312.647     6811.015        4.683        2.087      155.795       86.348        0.307      342.758       18.388      854.985
05/04/2013  13:04:00      208.086       21.294       70.491      131.091      124.511       89.127    17184.896    15502.887     7943.534        4.467        2.032      209.173       66.450        0.101      342.417       17.809      854.994
05/04/2013  13:05:00      278.515      184.431      133.370      164.221      133.787      115.417    26968.514    17899.032    13321.161        9.377        2.909      334.044       92.240        0.076      342.296       17.603      854.975
05/04/2013  13:06:00      195.420       88.203      179.372      160.268      187.971      127.910    25685.785    35333.230    16361.005        7.775        3.869      214.403      133.890        0.390      342.376       17.739      854.983
05/04/2013  13:07:00      108.992       34.812       53.042      136.602      105.919       72.692    18660.238    11218.769     5284.148        2.553        1.758      114.416       58.115        0.258      342.675       18.250      854.977
05/04/2013  13:08:00       38.948       95.535       93.687       93.260      137.011       84.449     8697.497    18772.043     7131.645        2.701        1.730      103.169       40.568        0.155      343.009       18.817      854.959
05/04/2013  13:09:00      195.630      109.956       49.623      127.780       84.259       77.204    16327.776     7099.540     5960.475        4.110        1.469      224.414       27.808        0.015      342.745       18.365      854.919
05/04/2013  13:10:00      290.245      209.117       51.212      185.648      127.305       77.993    34465.079    16206.600     6082.938        9.367        2.838      357.732       39.746        0.012      342.605       18.129      854.908
05/04/2013  13:11:00      221.808      107.173       28.642      109.944       86.308       54.994    12087.678     7449.143     3024.342        4.203        1.128      246.343       30.908        0.016      342.243       17.514      854.928
05/04/2013  13:12:00      138.115       86.332       58.081       98.986       61.861       73.801     9798.141     3826.809     5446.592        2.448        0.954      162.877       45.631        0.078      342.642       18.193      854.890
05/04/2013  13:13:00      218.184      102.151       51.104      142.756       89.671       73.636    20379.160     8040.849     5422.226        4.724        1.692      240.913       52.974        0.048      342.811       18.480      854.870
05/04/2013  13:14:00      125.347       74.760       56.073       83.186       61.119       51.434     6919.955     3735.491     2645.425        1.887        0.665      145.949       22.731        0.024      342.462       17.886      854.897
05/04/2013  13:15:00       64.386       54.493       45.083       55.048       69.367       56.485     3030.312     4811.838     3190.539        1.009        0.552       84.351       46.054        0.298      342.444       17.857      854.860
05/04/2013  13:16:00      103.033       54.519       21.039      105.442       68.947       67.710    11117.982     4753.684     4584.647        1.724        1.023      116.568       68.454        0.345      342.308       17.625      854.814
05/04/2013  13:17:00      360.760      183.525       93.288      168.367      124.768      111.471    28347.605    15567.039    12425.681       11.443        2.817      404.758       91.133        0.051      342.467       17.893      854.789
05/04/2013  13:18:00      254.131      180.707       80.557      121.115      109.926      115.661    14668.833    12083.741    13377.430        7.192        2.007      311.829       50.029        0.026      342.438       17.844      854.801
05/04/2013  13:19:00      196.056      149.490       52.122      124.980       97.951       89.165    15619.900     9594.437     7950.323        4.833        1.658      246.546       33.764        0.019      342.719       18.324      854.816
05/04/2013  13:20:00      174.464      105.670       71.852      159.484      115.918      104.338    25435.062    13436.956    10886.436        4.825        2.488      203.970       78.846        0.149      342.501       17.951      854.815
05/04/2013  13:21:00      139.752      147.063      135.638      119.292       98.572       97.768    14230.693     9716.516     9558.534        4.653        1.675      202.875       79.287        0.153      342.722       18.327      854.793
05/04/2013  13:22:00      140.427      113.476       73.189      139.124       93.674       73.734    19355.559     8774.880     5436.718        3.575        1.678      180.545       60.261        0.111      342.654       18.213      854.800
05/04/2013  13:23:00       92.056      120.895       49.316      110.762       86.843       79.491    12268.299     7541.664     6318.785        2.582        1.306      151.954       50.740        0.112      342.984       18.775      854.768
05/04/2013  13:24:00       88.724      142.389       -4.376       68.455      112.989       61.947     4686.100    12766.507     3837.408        2.472        1.065      167.769       60.343        0.129      342.718       18.321      854.765
05/04/2013  13:25:00      220.448      160.424       10.301       90.976       84.933       58.969     8276.677     7213.617     3477.374        4.670        0.948      272.641       40.104        0.022      342.566       18.062      854.758
05/04/2013  13:26:00       98.787      154.904        6.613      101.143      107.060       69.244    10229.826    11461.821     4794.795        3.014        1.324      183.723       67.304        0.134      342.677       18.251      854.760
05/04/2013  13:27:00      117.691      139.533        9.308       65.684       92.413       61.269     4314.441     8540.080     3753.839        2.501        0.830      182.540       52.510        0.083      342.940       18.700      854.754
05/04/2013  13:28:00       63.741      166.903      -16.867      111.415       75.768       45.694    12413.324     5740.831     2087.943        2.622        1.012      178.661       47.608        0.071      342.496       17.944      854.767
05/04/2013  13:29:00        3.513      142.255       -6.770       87.979       79.663       44.782     7740.256     6346.213     2005.389        1.819        0.805      142.298       50.100        0.124      342.558       18.051      854.768
05/04/2013  13:30:00       89.714       68.286       28.687       61.989       39.118       43.239     3842.694     1530.239     1869.595        1.039        0.362      112.746       27.850        0.061      342.816       18.491      854.753
05/04/2013  13:31:00       97.230      100.308       97.982       79.207       60.160       45.011     6273.787     3619.173     2025.948        2.052        0.596      139.697       29.015        0.043      342.940       18.700      854.733
05/04/2013  13:32:00      173.213       44.557       55.517      100.504       75.263       59.980    10101.101     5664.516     3597.604        2.721        0.968      178.852       42.043        0.055      342.876       18.591      854.710
05/04/2013  13:33:00      219.891       90.054       60.266      131.915      121.528       71.232    17401.563    14768.981     5074.027        4.866        1.862      237.617       47.351        0.040      342.612       18.142      854.688
05/04/2013  13:34:00      104.574       28.548        3.608       76.736       60.712       42.318     5888.347     3685.891     1790.826        1.156        0.568      108.400       13.449        0.015      342.768       18.409      854.706
05/04/2013  13:35:00      118.193      172.523      146.637      107.059       82.807       78.030    11461.594     6856.961     6088.742        4.482        1.220      209.127       66.854        0.102      342.477       17.910      854.689
05/04/2013  13:36:00      126.150       90.137       54.618       53.874       58.323       53.115     2902.456     3401.540     2821.239        1.807        0.456      155.043       44.861        0.084      342.045       17.179      854.686
05/04/2013  13:37:00       50.660       40.198       67.288       60.505       48.212       41.421     3660.868     2324.378     1715.695        0.820        0.385       64.671       32.879        0.258      342.464       17.892      854.667
05/04/2013  13:38:00       48.377       80.598      102.694       62.098       74.690       47.244     3856.101     5578.539     2231.950        1.552        0.583       94.003       36.460        0.150      342.562       18.058      854.654
05/04/2013  13:39:00      194.596      117.322       23.980      121.780       81.592       58.887    14830.320     6657.197     3467.709        3.858        1.248      227.227       55.736        0.060      342.692       18.277      854.657
05/04/2013  13:40:00      163.982       89.937       19.363      128.738      103.299       64.136    16573.513    10670.750     4113.406        3.335        1.568      187.026       22.578        0.015      342.820       18.495      854.626
05/04/2013  13:41:00      258.988      180.022       61.457      120.351       73.261       67.909    14484.403     5367.240     4611.571        6.386        1.223      315.409       30.572        0.009      342.555       18.043      854.604
05/04/2013  13:42:00      179.698      104.850       82.818       95.360       64.058       71.606     9093.537     4103.428     5127.427        3.423        0.916      208.050       48.930        0.055      342.506       17.961      854.610
05/04/2013  13:43:00      132.930       90.621       72.080       61.556       53.316       62.147     3789.186     2842.609     3862.262        2.078        0.525      160.881       35.051        0.047      342.490       17.933      854.577
05/04/2013  13:44:00      135.533      -46.288       48.216      109.184       79.601       65.426    11921.042     6336.259     4280.570        2.268        1.127      143.220       61.860        0.187      342.426       17.826      854.556
05/04/2013  13:45:00      106.126     -117.246        9.479       80.693       58.545       47.770     6511.281     3427.563     2281.962        1.866        0.611      158.143       42.390        0.072      342.555       18.046      854.539
05/04/2013  13:46:00      101.075       82.410      117.882      148.055      115.224       97.941    21920.335    13276.512     9592.386        3.784        2.239      130.413       95.448        0.536      342.940       18.699      854.552
05/04/2013  13:47:00      215.341      143.371      114.516      152.835      123.068      108.392    23358.655    15145.761    11748.725        6.514        2.513      258.703       91.655        0.126      342.485       17.925      854.568
05/04/2013  13:48:00       60.948      110.662      111.720       63.410       92.009       61.844     4020.817     8465.690     3824.699        2.237        0.816      126.336       53.322        0.178      342.289       17.593      854.577
05/04/2013  13:49:00       77.862      -62.669        6.529       43.936       50.906       38.716     1930.355     2591.384     1498.962        0.803        0.301       99.949       29.952        0.090      342.142       17.345      854.573
05/04/2013  13:50:00       45.106       -1.401        8.636       78.070       60.916       42.221     6094.886     3710.708     1782.588        0.685        0.579       45.128       31.922        0.500      342.439       17.849      854.564
05/04/2013  13:51:00      251.064      143.979       41.784       85.177       81.844       61.466     7255.062     6698.439     3778.039        5.162        0.887      289.419       39.597        0.019      342.378       17.742      854.565
05/04/2013  13:52:00       41.840        6.366       19.160       77.893       71.158       42.803     6067.328     5063.392     1832.104        0.756        0.648       42.322       23.340        0.304      342.348       17.693      854.558
05/04/2013  13:53:00       19.063       16.529       59.894       50.148       64.835       39.044     2514.857     4203.513     1524.438        0.623        0.412       25.231       39.343        2.431      342.501       17.955      854.522
05/04/2013  13:54:00       31.030       64.487        8.234       86.734       60.064       44.298     7522.742     3607.704     1962.351        0.914        0.655       71.564       28.710        0.161      342.471       17.903      854.494
05/04/2013  13:55:00        7.442       22.495       30.058       20.798       27.933       24.534      432.536      780.274      601.915        0.164        0.091       23.695       22.299        0.886      342.834       18.519      854.449
05/04/2013  13:56:00       -5.416      -13.643        4.538       26.847       17.499       19.185      720.740      306.225      368.054        0.082        0.070       14.679       11.130        0.575      342.898       18.630      854.424
05/04/2013  13:57:00      -18.216       -8.905       33.741       19.064       34.013       20.787      363.433     1156.887      432.093        0.175        0.098       20.276       22.671        1.250      342.894       18.624      854.403
05/04/2013  13:58:00        8.134      -33.337       -0.160       36.817       47.562       29.212     1355.496     2262.161      853.326        0.282        0.224       34.315       19.002        0.307      342.667       18.238      854.373
05/04/2013  13:59:00       27.412      -20.210       35.188       33.907       43.670       34.327     1149.669     1907.092     1178.338        0.332        0.212       34.057       29.714        0.761      342.812       18.485      854.360
05/04/2013  14:00:00       -0.532       21.416       34.476       40.816       51.151       42.566     1665.936     2616.376     1811.871        0.387        0.305       21.422       39.512        3.402      342.614       18.147      854.348
05/04/2013  14:01:00       32.723       -2.689       55.911       48.797       57.231       38.184     2381.112     3275.363     1458.021        0.566        0.356       32.833       29.347        0.799      342.879       18.598      854.340
05/04/2013  14:02:00       66.187      -20.916       35.715       56.235       75.648       48.063     3162.321     5722.561     2310.028        0.864        0.560       69.413       51.864        0.558      342.270       17.563      854.342
05/04/2013  14:03:00       50.683      -26.932       12.261       58.997      106.348       40.336     3480.610    11309.944     1627.018        0.993        0.821       57.394       11.143        0.038      342.656       18.219      854.330
05/04/2013  14:04:00       33.046        0.927       44.223       46.647       87.069       38.880     2175.920     7580.970     1511.634        0.716        0.563       33.059       39.828        1.451      343.028       18.852      854.314
05/04/2013  14:05:00      214.748      156.778      102.464      176.868      163.928      129.755    31282.139    26872.308    16836.425        7.808        3.750      265.887      124.300        0.219      342.489       17.932      854.273
05/04/2013  14:06:00      195.220      139.314      117.941      165.368      139.120      114.884    27346.662    19354.236    13198.297        6.565        2.995      239.832      106.273        0.196      342.551       18.037      854.252
05/04/2013  14:07:00      108.619       96.078       73.785      116.177      104.776       85.816    13497.059    10978.054     7364.392        2.915        1.592      145.014       71.935        0.246      342.796       18.456      854.258
05/04/2013  14:08:00       35.444        6.193       54.540       63.355       97.987       63.052     4013.839     9601.515     3975.597        1.093        0.880       35.981       59.280        2.714      342.744       18.367      854.262
05/04/2013  14:09:00       45.951      -66.574       11.489       55.618       95.881       52.138     3093.342     9193.088     2718.378        1.084        0.750       80.893       37.091        0.210      343.062       18.910      854.242
05/04/2013  14:10:00       27.412      -37.464       24.395       63.306       94.020       43.710     4007.676     8839.697     1910.528        0.875        0.738       46.422       55.123        1.410      343.061       18.907      854.246
05/04/2013  14:11:00       65.369      -44.494       27.017       89.714      100.950       58.987     8048.580    10190.885     3479.523        1.435        1.086       79.075       46.311        0.343      342.904       18.640      854.231
05/04/2013  14:12:00       27.168       -0.034       58.867       47.484       97.871       57.623     2254.773     9578.731     3320.356        0.968        0.758       27.168       59.498        4.796      342.794       18.452      854.213
05/04/2013  14:13:00       25.422      -25.047       30.360       38.694       83.153       44.165     1497.222     6914.361     1950.545        0.628        0.518       35.688       56.487        2.505      342.876       18.593      854.176
05/04/2013  14:14:00       72.476      113.258       84.801       84.618       81.675       67.225     7160.135     6670.795     4519.176        2.181        0.918      134.463       55.240        0.169      342.642       18.193      854.201
05/04/2013  14:15:00       83.096       60.467      104.458       95.453       90.422       61.160     9111.196     8176.196     3740.544        2.125        1.051      102.768       55.179        0.288      342.616       18.149      854.198
05/04/2013  14:16:00      125.559       65.071       79.144      117.533       91.282       65.375    13813.962     8332.395     4273.885        2.634        1.321      141.419       69.137        0.239      342.667       18.234      854.198
05/04/2013  14:17:00       25.917      -72.858        5.656       69.771       80.034       36.566     4867.970     6405.491     1337.069        0.931        0.631       77.331       47.853        0.383      342.462       17.888      854.190
05/04/2013  14:18:00       57.806       -6.534       57.536       73.333      132.197       58.933     5377.724    17476.079     3473.116        1.651        1.316       58.174       79.122        1.850      342.682       18.262      854.136
05/04/2013  14:19:00       81.655      -24.150       49.845       81.648      102.677       46.543     6666.335    10542.499     2166.215        1.455        0.969       85.152       54.839        0.415      342.594       18.111      854.113
05/04/2013  14:20:00       97.624       55.135       59.536       98.758       86.315       60.552     9753.233     7450.290     3666.485        1.849        1.044      112.117       50.580        0.204      342.847       18.541      854.098
05/04/2013  14:21:00       78.760       -2.756       73.203       66.416       87.687       71.216     4411.105     7689.026     5071.677        1.437        0.859       78.809       53.885        0.468      343.003       18.807      854.076
05/04/2013  14:22:00      192.065      181.019       92.178      138.052       85.745      112.013    19058.399     7352.144    12546.871        5.855        1.948      263.925       90.740        0.118      342.689       18.271      854.074
05/04/2013  14:23:00      148.046      129.625       28.313      104.749       63.765       68.274    10972.307     4065.979     4661.396        2.961        0.985      196.775       43.374        0.049      342.648       18.202      854.075
05/04/2013  14:24:00       98.122      104.659       11.473       93.421       91.720       58.269     8727.503     8412.606     3395.286        2.062        1.027      143.462       50.877        0.126      342.623       18.161      854.091
05/04/2013  14:25:00      140.428       92.675        6.999       53.087       45.297       44.792     2818.266     2051.812     2006.316        1.762        0.344      168.252       29.394        0.031      342.533       18.008      854.128
05/04/2013  14:26:00       35.232      122.351       15.529       78.572       81.145       40.448     6173.612     6584.552     1636.011        1.542        0.720      127.322       54.064        0.180      342.683       18.262      854.124
05/04/2013  14:27:00     -125.835      138.417      -20.460       70.504      117.507       52.791     4970.875    13807.782     2786.865        2.849        1.078      187.066       40.573        0.047      342.585       18.096      854.087
05/04/2013  14:28:00      -22.821      180.861       -5.527       67.574      108.646       57.801     4566.179    11803.847     3340.989        2.648        0.986      182.295       59.748        0.107      342.688       18.270      854.082
05/04/2013  14:29:00       47.455      364.039      -30.891      177.477      245.416       80.511    31498.203    60229.150     6481.987       11.695        4.910      367.119      115.828        0.100      342.592       18.106      854.043
05/04/2013  14:30:00      -73.802      426.091      -45.516      136.741      142.767       67.147    18698.209    20382.331     4508.758       11.632        2.179      432.435       62.620        0.021      342.766       18.402      854.005
05/04/2013  14:31:00      101.582      189.690       17.531      117.172      170.113       97.025    13729.217    28938.415     9413.899        4.934        2.604      215.177       92.163        0.183      342.896       18.624      853.982
05/04/2013  14:32:00      105.111      197.665       -4.831      114.747      156.879       84.644    13166.892    24610.887     7164.583        4.754        2.247      223.875       89.501        0.160      342.960       18.734      853.995
05/04/2013  14:33:00      319.448      191.403       51.776      117.601      114.285       89.182    13829.982    13061.085     7953.362        8.810        1.742      372.400       53.250        0.020      342.826       18.504      853.976
05/04/2013  14:34:00      195.963      114.118       33.382      125.110       85.193       65.118    15652.567     7257.903     4240.302        3.984        1.358      226.770       45.582        0.040      343.000       18.800      853.983
05/04/2013  14:35:00       48.957      247.317       -4.811       98.393      189.846       84.781     9681.238    36041.616     7187.774        5.824        2.646      252.116       92.124        0.134      342.826       18.505      853.978
05/04/2013  14:36:00       73.791      102.046       35.860      109.280       89.002       72.583    11942.042     7921.435     5268.332        2.113        1.257      125.931       44.968        0.128      342.747       18.370      853.983
05/04/2013  14:37:00      125.417       98.851       50.621       71.342       64.301       56.474     5089.748     4134.661     3189.362        2.024        0.621      159.690       44.298        0.077      342.544       18.026      853.973
05/04/2013  14:38:00      173.113      128.448       43.338      111.986       81.216       64.641    12540.755     6595.974     4178.465        3.583        1.166      215.562       42.410        0.039      342.639       18.186      853.952
05/04/2013  14:39:00      174.332      114.337       15.963      118.976       63.233       45.929    14155.343     3998.412     2109.444        3.199        1.013      208.481       24.629        0.014      342.649       18.205      853.937
05/04/2013  14:40:00      132.989      167.895        6.244      136.509       85.766       64.085    18634.590     7355.726     4106.910        3.800        1.505      214.184       41.105        0.037      342.645       18.198      853.955
05/04/2013  14:41:00       47.542      196.352      -22.339       46.522       99.050       41.972     2164.284     9810.906     1761.635        2.752        0.687      202.025       53.169        0.069      342.483       17.922      853.928
05/04/2013  14:42:00     -101.790       81.456      -25.255       71.112       70.035       30.677     5056.954     4904.962      941.074        1.427        0.545      130.370       31.091        0.057      342.432       17.836      853.895
05/04/2013  14:43:00       -4.319       16.079        9.606       40.089       36.201       43.402     1607.100     1310.482     1883.769        0.258        0.240       16.649       25.422        2.332      342.762       18.400      853.838
05/04/2013  14:44:00       26.079       35.197       33.169       39.193       25.022       25.948     1536.088      626.095      673.307        0.293        0.142       43.806       11.088        0.064      342.685       18.267      853.812
05/04/2013  14:45:00       33.175      162.560      -20.394       37.201       99.117       37.303     1383.892     9824.194     1391.498        2.027        0.630      165.910       49.753        0.090      342.616       18.148      853.833
05/04/2013  14:46:00      115.525      177.536       11.539      120.246      130.155       86.972    14459.210    16940.358     7564.091        4.197        1.948      211.814       77.657        0.134      342.691       18.273      853.775
05/04/2013  14:47:00      180.186      128.110       13.164      115.486       85.166       78.958    13337.091     7253.270     6234.305        3.793        1.341      221.087       47.770        0.047      342.799       18.459      853.764
05/04/2013  14:48:00      141.287      134.955       22.994      141.942      112.540       88.688    20147.607    12665.312     7865.502        3.968        2.034      195.384       63.837        0.107      342.749       18.375      853.726
05/04/2013  14:49:00      162.609      185.273       -4.200      131.322      120.451       89.188    17245.431    14508.475     7954.491        5.024        1.985      246.512       69.512        0.080      342.670       18.239      853.705
05/04/2013  14:50:00      175.344      221.400       14.868      182.740      126.313      107.563    33394.036    15954.869    11569.774        7.044        3.046      282.424       79.925        0.080      342.664       18.228      853.664
05/04/2013  14:51:00      261.485      208.117       19.392      167.504      106.610       94.070    28057.718    11365.733     8849.237        8.016        2.414      334.196       63.666        0.036      342.626       18.164      853.633
05/04/2013  14:52:00      227.476      132.960       22.870      153.022      101.110       71.070    23415.580    10223.283     5050.958        5.431        1.934      263.484       57.134        0.047      342.726       18.334      853.606
05/04/2013  14:53:00      263.507      160.304       38.130      111.411      101.094       81.371    12412.476    10219.915     6621.241        6.292        1.463      308.437       34.823        0.013      342.761       18.393      853.573
05/04/2013  14:54:00      280.831      151.376       34.003      151.983       96.667       92.250    23098.760     9344.480     8510.139        7.194        2.048      319.031       74.230        0.054      342.719       18.323      853.560
05/04/2013  14:55:00      258.091      173.668       33.531      115.336       74.317       81.328    13302.287     5522.969     6614.258        6.166        1.272      311.081       50.899        0.027      342.635       18.180      853.524
05/04/2013  14:56:00       32.705      132.354        8.645      102.127       72.651       53.628    10429.900     5278.191     2875.990        1.862        0.929      136.335       51.171        0.141      342.734       18.349      853.510
05/04/2013  14:57:00      111.331      140.687       11.691      116.180       84.994       62.675    13497.785     7223.903     3928.210        2.848        1.232      179.409       54.723        0.093      342.789       18.443      853.504
05/04/2013  14:58:00      274.237      205.867       27.638      172.801      123.198       83.366    29860.022    15177.813     6949.878        8.516        2.599      342.910       58.779        0.029      342.750       18.376      853.482
05/04/2013  14:59:00      231.345      123.587       33.657      141.193      106.463       76.193    19935.519    11334.415     5805.415        5.349        1.854      262.286       46.947        0.032      342.666       18.231      853.462
05/04/2013  15:00:00      216.403      117.396       24.431      151.228      100.351       58.643    22870.008    10070.355     3439.028        4.879        1.819      246.195       36.083        0.021      342.760       18.391      853.461
05/04/2013  15:01:00      303.033      167.493       46.684      132.757       87.639       69.500    17624.370     7680.658     4830.224        7.609        1.507      346.241       60.534        0.031      342.566       18.063      853.433
05/04/2013  15:02:00      212.026      154.183       23.613      116.609       77.879       55.792    13597.622     6065.080     3112.727        4.603        1.139      262.159       28.115        0.012      342.590       18.103      853.422
05/04/2013  15:03:00      196.015      162.466       45.569       98.540       80.636       59.008     9710.126     6502.184     3481.975        4.329        0.985      254.592       39.359        0.024      342.628       18.167      853.410
05/04/2013  15:04:00      299.547      168.099       39.355      117.148      100.638       80.987    13723.647    10127.997     6558.827        7.497        1.521      343.490       58.538        0.029      342.776       18.418      853.390
05/04/2013  15:05:00      205.920      150.758       21.531      112.929       83.475       70.141    12752.957     6968.013     4919.740        4.511        1.232      255.208       48.328        0.036      342.827       18.507      853.408
05/04/2013  15:06:00      145.327      149.832       17.045      100.571       92.752       69.998    10114.458     8602.974     4899.697        3.373        1.181      208.733       48.262        0.053      342.937       18.694      853.424
05/04/2013  15:07:00      250.689      158.975       17.613      144.662      112.281       76.215    20927.088    12606.989     5808.683        6.388        1.967      296.847       75.320        0.064      342.699       18.289      853.427
05/04/2013  15:08:00       83.855      146.469       -7.660       81.124       79.041       42.955     6581.146     6247.538     1845.138        2.161        0.734      168.775       37.809        0.050      342.691       18.275      853.424
05/04/2013  15:09:00       11.204      162.991      -24.578       67.245       73.281       38.526     4521.845     5370.032     1484.267        1.933        0.569      163.376       39.559        0.059      342.840       18.530      853.422
05/04/2013  15:10:00      -44.049      313.763      -29.189       76.826      113.175       40.574     5902.261    12808.631     1646.249        6.079        1.018      316.840       44.647        0.020      342.638       18.186      853.411
05/04/2013  15:11:00      -27.618      271.556      -34.364       41.046       60.379       23.477     1684.734     3645.613      551.154        4.078        0.294      272.957       17.951        0.004      342.476       17.909      853.397
05/04/2013  15:12:00      -21.070      202.007      -23.190       41.279       50.168       31.886     1703.925     2516.836     1016.737        2.351        0.262      203.103       27.891        0.019      342.540       18.019      853.368
05/04/2013  15:13:00      -34.794      179.012      -19.834       68.427       42.882       29.424     4682.274     1838.892      865.751        2.052        0.369      182.362       13.471        0.005      342.557       18.047      853.330
05/04/2013  15:14:00       70.215       98.386       23.632       78.907       62.316       42.497     6226.343     3883.314     1806.015        1.354        0.596      120.872       31.189        0.067      342.735       18.352      853.302
05/04/2013  15:15:00       93.930      105.316       77.338       58.538       67.606       63.902     3426.695     4570.544     4083.483        1.899        0.604      141.118       44.119        0.098      342.448       17.863      853.251
05/04/2013  15:16:00       64.993      153.643      -10.321       73.277      101.105       59.219     5369.558    10222.123     3506.906        2.351        0.955      166.824       57.878        0.120      342.595       18.112      853.234
05/04/2013  15:17:00      164.029      116.143       27.305      112.641       64.454       61.879    12687.902     4154.377     3828.974        3.090        1.034      200.985       28.568        0.020      342.671       18.241      853.190
05/04/2013  15:18:00       46.105      106.190      -11.645       86.910       80.836       53.217     7553.313     6534.517     2832.043        1.523        0.846      115.767       38.144        0.109      342.765       18.402      853.183
05/04/2013  15:19:00       54.302      351.135      -44.307       74.604      130.023       65.204     5565.785    16905.992     4251.592        7.746        1.336      355.309       68.185        0.037      342.640       18.187      853.171
05/04/2013  15:20:00       -3.963      149.708       -6.112       63.810       93.859       54.403     4071.694     8809.424     2959.637        1.915        0.792      149.760       52.603        0.123      342.761       18.396      853.177
05/04/2013  15:21:00      -17.977      225.630       -5.285       70.648       81.141       55.162     4991.125     6583.787     3042.871        3.294        0.731      226.345       44.765        0.039      342.788       18.439      853.164
05/04/2013  15:22:00       -8.449      188.938       -4.483       55.928      111.405       50.725     3127.929    12411.037     2573.046        2.695        0.906      189.127       50.165        0.070      342.822       18.499      853.158
05/04/2013  15:23:00       13.849      328.367      -24.219       93.148      205.715       73.052     8676.521    42318.613     5336.544        8.246        2.817      328.659       96.143        0.086      342.745       18.367      853.128
05/04/2013  15:24:00       49.588      350.838      -24.486      104.345      199.376       67.000    10887.926    39750.785     4488.970        9.063        2.756      354.325       88.744        0.063      342.696       18.284      853.122
05/04/2013  15:25:00      169.129      106.337       26.895       66.801       53.324       50.095     4462.331     2843.397     2509.508        2.522        0.491      199.780       30.135        0.023      342.796       18.452      853.132
05/04/2013  15:26:00      156.746      127.239       13.297      103.641       87.672       56.451    10741.505     7686.366     3186.731        3.127        1.081      201.888       33.006        0.027      342.715       18.316      853.124
05/04/2013  15:27:00      211.449      125.994       28.009      101.894       79.374       62.489    10382.340     6300.241     3904.813        4.098        1.029      246.141       45.893        0.035      342.675       18.247      853.113
05/04/2013  15:28:00      170.998      120.500       30.341       91.769       78.856       65.208     8421.529     6218.204     4252.056        3.178        0.945      209.190       39.659        0.036      342.679       18.254      853.104
05/04/2013  15:29:00       87.571      144.684        4.257       78.121      111.345       72.593     6102.816    12397.747     5269.677        2.619        1.189      169.122       68.074        0.162      342.653       18.211      853.096
05/04/2013  15:30:00       69.259      101.400       22.078       75.892       80.797       60.664     5759.563     6528.156     3680.096        1.576        0.798      122.796       49.726        0.164      342.712       18.313      853.077
05/04/2013  15:31:00      179.520      185.450        7.312      134.900      105.465       71.095    18197.881    11122.961     5054.477        5.052        1.719      258.107       50.047        0.038      342.666       18.232      853.063
05/04/2013  15:32:00      278.374      222.288       15.156      149.721      112.990       83.589    22416.335    12766.734     6987.153        8.464        2.109      356.236       65.897        0.034      342.614       18.144      853.036
05/04/2013  15:33:00      374.338      229.646       50.062      133.717      102.322       79.133    17880.261    10469.741     6262.001       11.499        1.731      439.165       27.322        0.004      342.608       18.135      853.000
05/04/2013  15:34:00      298.700      207.138       17.588      195.665      139.211       96.068    38284.949    19379.765     9229.124        9.965        3.345      363.494       54.098        0.022      342.638       18.186      852.993
05/04/2013  15:35:00      183.856      195.556       15.154      167.594      112.935       97.045    28087.676    12754.304     9417.747        6.126        2.513      268.412       86.829        0.105      342.609       18.137      853.012
05/04/2013  15:36:00      103.103      213.285        5.185      118.864      143.127       84.257    14128.618    20485.381     7099.310        4.892        2.086      236.898       68.322        0.083      342.593       18.108      853.006
05/04/2013  15:37:00      202.669      177.141        2.703      176.440      112.274       75.493    31131.123    12605.560     5699.178        6.094        2.472      269.172       59.544        0.049      342.575       18.077      852.979
05/04/2013  15:38:00      167.909      126.120       15.656       73.930       56.258       56.611     5465.611     3164.981     3204.755        2.809        0.592      209.999       35.046        0.028      342.541       18.020      852.989
05/04/2013  15:39:00      152.575      153.365       11.299      116.888      103.476       74.897    13662.850    10707.335     5609.615        3.845        1.499      216.333       58.970        0.074      342.606       18.131      852.989
05/04/2013  15:40:00       10.959      264.332      -44.278       69.868       87.152       40.996     4881.551     7595.484     1680.673        4.305        0.708      264.559       45.157        0.029      342.629       18.169      852.989
05/04/2013  15:41:00       33.060      236.066      -35.647       83.334      116.351       65.708     6944.526    13537.657     4317.550        4.144        1.240      238.369       53.490        0.050      342.677       18.251      853.013
05/04/2013  15:42:00       53.972      148.976        1.635       70.886       90.014       67.796     5024.808     8102.527     4596.341        2.141        0.886      158.451       54.393        0.118      342.673       18.245      853.014
05/04/2013  15:43:00       78.486      165.441       14.128      142.459      118.669       78.222    20294.626    14082.260     6118.712        3.711        2.025      183.114       71.298        0.152      342.554       18.042      853.019
05/04/2013  15:44:00       75.062      208.097      -20.263       85.349      102.489       72.242     7284.370    10503.960     5218.935        3.617        1.150      221.221       59.062        0.071      342.580       18.085      852.992
05/04/2013  15:45:00       82.322      153.415       24.179      120.832      151.480       93.350    14600.288    22946.054     8714.154        3.857        2.313      174.106       90.317        0.269      342.587       18.099      852.988
05/04/2013  15:46:00       50.864      164.242       -1.482      102.806      152.048       62.334    10569.040    23118.541     3885.527        3.356        1.879      171.937       70.505        0.168      342.584       18.093      852.976
05/04/2013  15:47:00      -35.649      184.409      -24.845       55.849      107.304       36.818     3119.156    11514.092     1355.582        2.594        0.799      187.823       42.831        0.052      342.558       18.049      852.949
05/04/2013  15:48:00        2.802      124.110        3.037       62.832       81.541       51.871     3947.827     6648.892     2690.598        1.435        0.664      124.142       47.321        0.145      342.606       18.133      852.944
05/04/2013  15:49:00       43.677      133.734        5.586       60.022       73.475       56.640     3602.588     5398.524     3208.051        1.601        0.610      140.686       51.870        0.136      342.620       18.156      852.964
05/04/2013  15:50:00       77.537      235.856       -2.033      114.590      168.612      104.173    13130.878    28430.023    10852.055        5.702        2.621      248.274      103.866        0.175      342.567       18.065      852.961
05/04/2013  15:51:00       29.710      327.100      -24.717       90.173      162.065       71.655     8131.198    26265.165     5134.407        7.400        1.977      328.447       86.043        0.069      342.536       18.012      852.951
05/04/2013  15:52:00       91.837      169.230       -0.727      103.086      174.377       85.542    10626.687    30407.221     7317.440        4.270        2.418      192.543       87.376        0.206      342.561       18.054      852.939
05/04/2013  15:53:00      163.555      182.758        8.392      134.038      113.275       91.910    17966.174    12831.177     8447.393        4.973        1.962      245.257       73.552        0.090      342.512       17.970      852.922
05/04/2013  15:54:00      153.320      209.190        4.597      177.963      114.616       87.891    31670.867    13136.738     7724.784        5.990        2.627      259.360       77.657        0.090      342.505       17.960      852.903
05/04/2013  15:55:00       60.952      225.752      -21.581       94.321      143.182       71.153     8896.374    20501.037     5062.714        4.480        1.723      233.836       80.082        0.117      342.551       18.038      852.901
05/04/2013  15:56:00       46.139      122.027        6.982       67.115       82.986       55.910     4504.385     6886.710     3125.955        1.579        0.726      130.459       42.735        0.107      342.580       18.088      852.890
05/04/2013  15:57:00       28.663      188.463        6.400       81.380      190.567       86.656     6622.732    36315.701     7509.252        4.341        2.522      190.630       98.914        0.269      342.561       18.056      852.881
05/04/2013  15:58:00       32.137      156.228       -5.126       90.751      139.468       64.298     8235.816    19451.240     4134.213        2.864        1.591      159.500       77.413        0.236      342.550       18.038      852.845
05/04/2013  15:59:00       59.846      275.399       -5.680      119.613      186.856       95.278    14307.202    34915.276     9077.912        6.887        2.915      281.826      102.941        0.133      342.527       17.994      852.808
05/04/2013  16:00:00       88.306      245.458      -16.522      100.532      157.001       90.995    10106.693    24649.435     8280.065        5.567        2.152      260.859       93.195        0.128      342.528       18.000      852.786
05/04/2013  16:01:00      119.361      208.707        9.457      116.729      132.663      106.670    13625.735    17599.593    11378.505        5.024        2.130      240.428       92.356        0.148      342.479       17.913      852.768
05/04/2013  16:02:00      115.586      188.366       -8.393      113.554      111.597       82.683    12894.499    12453.883     6836.423        4.054        1.609      221.002       69.704        0.099      342.481       17.917      852.720
05/04/2013  16:03:00       11.371      313.194      -32.170       78.858      137.601       60.700     6218.528    18934.137     3684.542        6.404        1.442      313.401       65.546        0.044      342.498       17.946      852.714
05/04/2013  16:04:00       62.014      321.765      -22.049      110.908      188.461       94.246    12300.600    35517.614     8882.216        8.227        2.835      327.686       99.697        0.093      342.493       17.939      852.680
05/04/2013  16:05:00      -37.140      194.951      -16.471       65.836      138.917       61.348     4334.368    19297.950     3763.585        3.352        1.370      198.457       62.243        0.098      342.549       18.035      852.694
05/04/2013  16:06:00       31.148      306.039      -18.429      125.632      207.167       92.889    15783.290    42918.308     8628.285        8.114        3.366      307.620      112.223        0.133      342.496       17.944      852.715
05/04/2013  16:07:00       47.906      283.933       -3.076      135.039      181.650      111.000    18235.472    32996.810    12320.970        7.323        3.178      287.946      111.505        0.150      342.445       17.857      852.727
05/04/2013  16:08:00       37.611      337.352      -35.903      108.325      133.673       82.648    11734.212    17868.444     6830.669        7.647        1.822      339.442       78.160        0.053      342.467       17.894      852.762
05/04/2013  16:09:00       47.959      273.416      -29.446      107.547      188.750       91.055    11566.427    35626.651     8290.977        6.669        2.774      277.591       97.133        0.122      342.469       17.897      852.803
05/04/2013  16:10:00       95.294      179.220        6.380      103.706      130.582       73.283    10754.876    17051.553     5370.341        3.720        1.659      202.979       77.970        0.148      342.505       17.959      852.864
05/04/2013  16:11:00        6.245      235.751      -24.686       73.084      154.343       51.681     5341.206    23821.692     2670.896        4.403        1.592      235.834       68.896        0.085      342.499       17.949      852.912
05/04/2013  16:12:00      -57.658      334.536      -30.086      109.217      104.445       81.405    11928.391    10908.758     6626.754        7.280        1.473      339.469       72.121        0.045      342.490       17.933      852.953
05/04/2013  16:13:00      -87.951      267.874      -19.154       85.587      164.522       71.776     7325.050    27067.554     5151.856        5.969        1.977      281.943       86.606        0.094      342.469       17.896      852.992
05/04/2013  16:14:00       -4.743      422.538      -40.686      112.585      166.474       83.111    12675.279    27713.534     6907.507       11.375        2.365      422.565       87.062        0.042      342.409       17.797      853.023
05/04/2013  16:15:00        4.499      396.553      -54.496       77.703      156.006       63.661     6037.689    24337.915     4052.735        9.733        1.721      396.578       69.013        0.030      342.432       17.834      853.024
05/04/2013  16:16:00      -44.612      273.271      -26.551      117.855      165.487       81.172    13889.744    27385.813     6588.926        6.261        2.393      276.888       90.239        0.106      342.451       17.868      853.018
05/04/2013  16:17:00      -23.543      399.727      -42.707      122.732      130.188       65.946    15063.161    16948.968     4348.904        9.925        1.818      400.420       61.243        0.023      342.434       17.837      853.011
05/04/2013  16:18:00       11.190      365.105      -23.416      107.993      155.164       78.305    11662.382    24075.951     6131.687        8.792        2.094      365.277       86.387        0.056      342.381       17.747      852.972
05/04/2013  16:19:00      -28.269      378.307      -35.067       74.132      164.093       62.241     5495.566    26926.591     3873.983        9.071        1.815      379.362       75.860        0.040      342.367       17.723      852.962
05/04/2013  16:20:00       10.440      382.023      -34.553       94.094      179.960       74.618     8853.602    32385.456     5567.829        9.702        2.340      382.165       78.754        0.042      342.403       17.784      852.960
05/04/2013  16:21:00      -14.192      466.495      -50.046      130.122      149.467       86.565    16931.818    22340.305     7493.431       13.354        2.338      466.711       77.746        0.028      342.378       17.742      852.984
05/04/2013  16:22:00      -43.834      566.309      -62.242      146.277      221.164       90.711    21396.873    48913.423     8228.484       20.251        3.927      568.002      113.752        0.040      342.211       17.458      853.014
05/04/2013  16:23:00     -169.376      405.989      -45.867      118.157      183.021       87.474    13961.114    33496.621     7651.661       12.535        2.755      439.903       79.753        0.033      342.058       17.199      853.072
05/04/2013  16:24:00     -267.140      429.971      -81.902      212.066      166.149       90.010    44971.954    27605.382     8101.719       17.180        4.034      506.200       94.531        0.035      341.952       17.019      853.027
05/04/2013  16:25:00     -203.582      401.378      -24.126      194.468      215.699      113.742    37817.787    46526.241    12937.210       15.019        4.864      450.055      114.646        0.065      341.845       16.838      853.084
05/04/2013  16:26:00     -269.445      366.022      -56.067      175.992      157.894       90.419    30973.230    24930.529     8175.613       13.689        3.204      454.503       95.720        0.044      341.692       16.578      853.108
05/04/2013  16:27:00     -320.559      355.344      -59.184      170.021      180.029       94.222    28907.117    32410.438     8877.783       15.135        3.510      478.568       86.750        0.033      341.612       16.441      853.106
05/04/2013  16:28:00     -306.032      345.284      -63.195      200.071      191.024      109.459    40028.319    36490.290    11981.310       15.267        4.425      461.386      118.552        0.066      341.568       16.369      853.145
05/04/2013  16:29:00     -475.938      242.680      -84.998      220.341      276.592      105.811    48550.235    76503.088    11196.051       21.442        6.812      534.238      113.529        0.045      341.411       16.100      853.133
05/04/2013  16:30:00     -333.930      151.207      -33.985      243.590      206.058      123.992    59336.287    42460.027    15374.105       12.633        5.859      366.569       98.980        0.073      341.324       15.952      853.124
05/04/2013  16:31:00     -354.739       -8.640       -5.869      251.402      258.734      145.304    63203.116    66943.404    21113.391       13.858        7.563      354.844      128.333        0.131      341.223       15.784      853.184
05/04/2013  16:32:00     -279.461      271.797      -46.982      204.550      252.122      116.012    41840.542    63565.607    13458.879       13.650        5.943      389.836      119.116        0.093      341.203       15.750      853.203
05/04/2013  16:33:00     -245.330      185.503      -40.934      133.618      177.065       74.865    17853.780    31351.907     5604.841        7.553        2.741      307.568       56.779        0.034      341.224       15.785      853.266
05/04/2013  16:34:00     -398.501      164.617      -51.281      229.719      268.848      110.435    52770.596    72279.146    12195.981       16.287        6.862      431.164      111.656        0.067      341.212       15.764      853.334
05/04/2013  16:35:00     -360.570      112.341      -76.668      195.110      230.786      115.051    38067.789    53262.167    13236.631       12.652        5.228      377.665      115.115        0.093      341.081       15.544      853.400
05/04/2013  16:36:00     -336.034       83.525      -26.476      219.848      193.185      119.508    48333.263    37320.269    14282.262       11.025        4.997      346.259       92.797        0.072      341.038       15.470      853.496
05/04/2013  16:37:00     -237.650      150.252      -28.116      179.222      157.801      103.432    32120.676    24901.148    10698.234        7.377        3.386      281.164      112.199        0.159      340.963       15.344      853.610
05/04/2013  16:38:00     -236.822      104.172      -41.888      154.912      177.262       86.738    23997.709    31421.840     7523.455        6.581        3.147      258.721       68.679        0.070      340.927       15.282      853.730
05/04/2013  16:39:00     -407.698      161.336      -72.499      221.457      228.922      109.015    49043.047    52405.151    11884.290       15.540        5.667      438.460      102.738        0.055      340.779       15.032      853.811
05/04/2013  16:40:00     -287.874       54.267      -17.175      194.706      216.316      105.538    37910.375    46792.457    11138.305        9.096        4.792      292.944      106.164        0.131      340.752       14.986      853.884
05/04/2013  16:41:00     -246.344       51.752      -24.405      203.281      197.186       99.747    41323.114    38882.478     9949.429        7.704        4.508      251.721      102.266        0.165      340.763       15.005      853.940
05/04/2013  16:42:00     -327.431       90.221      -42.518      207.764      168.667      108.611    43165.713    28448.684    11796.293       10.027        4.171      339.633      116.882        0.118      340.845       15.143      854.034
05/04/2013  16:43:00     -419.946      196.531      -75.703      217.010      173.851       87.025    47093.459    30224.251     7573.394       15.279        4.245      463.658      101.578        0.048      340.837       15.129      854.150
05/04/2013  16:44:00     -359.915      141.654      -62.270      146.834      205.373       78.362    21560.277    42177.865     6140.597       11.167        3.494      386.788       69.740        0.033      340.830       15.118      854.183
05/04/2013  16:45:00     -335.480      103.754      -37.126      150.206      143.771       96.621    22561.992    20670.017     9335.679        8.862        2.628      351.158       88.675        0.064      340.821       15.102      854.194
05/04/2013  16:46:00     -329.599       59.407      -37.393      155.994      127.705       83.805    24334.266    16308.451     7023.213        8.061        2.383      334.910       69.615        0.043      340.853       15.157      854.201
05/04/2013  16:47:00     -398.762      118.622      -36.986      201.985      151.490       98.677    40797.768    22949.322     9737.088       12.396        3.674      416.032       80.620        0.038      340.870       15.186      854.240
05/04/2013  16:48:00     -293.187      119.737      -47.550      149.009      151.364       83.333    22203.581    22910.945     6944.355        7.730        2.603      316.694       70.693        0.050      340.885       15.209      854.247
05/04/2013  16:49:00     -194.987      -51.246        6.082      157.053      159.267       93.436    24665.510    25366.056     8730.208        4.971        2.938      201.608       63.413        0.099      340.867       15.182      854.243
05/04/2013  16:50:00     -329.655      -10.622      -46.600      181.896      197.722       93.157    33086.326    39094.106     8678.215        9.589        4.043      329.826       80.348        0.059      340.780       15.035      854.258
05/04/2013  16:51:00     -244.690       72.029       -5.198      199.229      169.227      105.488    39692.119    28637.827    11127.656        7.226        3.973      255.072      108.727        0.182      340.715       14.924      854.299
05/04/2013  16:52:00     -305.511      140.924      -28.381      149.557      232.787       96.311    22367.401    54189.912     9275.745        9.990        4.292      336.447       85.140        0.064      340.697       14.893      854.326
05/04/2013  16:53:00     -335.508      123.215      -39.808      211.623      163.379       97.391    44784.204    26692.582     9484.942       10.513        4.048      357.418       91.286        0.065      340.628       14.777      854.311
05/04/2013  16:54:00     -268.725      212.457      -45.130      180.140      153.916       91.785    32450.583    23690.180     8424.541        9.197        3.228      342.565       92.835        0.073      340.523       14.599      854.379
05/04/2013  16:55:00     -313.890      268.189      -49.863      196.751      305.277      117.817    38710.772    93194.350    13880.791       15.934        7.289      412.858      117.081        0.080      340.452       14.478      854.453
05/04/2013  16:56:00     -226.534      286.378      -46.479      132.435      185.035       83.230    17539.035    34237.822     6927.283        9.709        2.935      365.143       91.373        0.063      340.398       14.389      854.448
05/04/2013  16:57:00     -225.911      259.485      -43.686      105.985      148.905       70.177    11232.776    22172.673     4924.757        7.930        1.917      344.047       60.035        0.030      340.375       14.348      854.452
05/04/2013  16:58:00     -346.439      161.198      -61.436      201.396      139.409      105.751    40560.233    19434.937    11183.191       11.047        3.559      382.106      104.267        0.074      340.330       14.275      854.443
05/04/2013  16:59:00     -267.989      114.467      -27.809      229.191      277.645      119.332    52528.537    77086.843    14240.104       11.475        7.193      291.412      113.213        0.151      340.306       14.233      854.408
05/04/2013  17:00:00     -334.299      265.354      -49.567      143.254      204.931       90.479    20521.848    41996.900     8186.384       12.765        3.535      426.812       98.889        0.054      340.168       13.998      854.519
05/04/2013  17:01:00     -276.008      294.372      -41.828      200.930      206.999       98.402    40372.792    42848.731     9682.927       12.873        4.645      403.529      101.094        0.063      340.061       13.818      854.581
05/04/2013  17:02:00     -161.330      174.245      -44.518      129.906      169.755       75.208    16875.547    28816.914     5656.180        5.485        2.567      237.463       71.692        0.091      340.065       13.826      854.617
05/04/2013  17:03:00     -133.033      286.326      -32.629      120.376      112.694       71.278    14490.337    12699.959     5080.547        6.650        1.614      315.722       70.794        0.050      340.029       13.764      854.681
05/04/2013  17:04:00     -277.958      272.306      -62.851      129.666      182.020       76.275    16813.266    33131.301     5817.871       10.555        2.788      389.116       83.172        0.046      340.017       13.743      854.726
05/04/2013  17:05:00     -303.943      333.169      -54.283      183.928      202.826      102.219    33829.474    41138.300    10448.773       14.586        4.271      450.980      116.364        0.067      339.967       13.659      854.778
05/04/2013  17:06:00     -258.469      384.542      -46.687      171.365      157.021       99.311    29365.812    24655.517     9862.760       14.036        3.194      463.334       97.103        0.044      339.964       13.655      854.854
05/04/2013  17:07:00     -182.454      423.492      -55.154      129.377      165.734       94.243    16738.360    27467.865     8881.770       13.437        2.654      461.124       80.008        0.030      339.945       13.622      854.902
05/04/2013  17:08:00     -269.333      392.387      -60.455      143.503      183.986       79.961    20592.981    33850.999     6393.787       14.549        3.042      475.928       93.986        0.039      339.895       13.538      854.945
05/04/2013  17:09:00     -310.208      368.777      -78.199      126.462      166.738       79.081    15992.559    27801.395     6253.738       14.419        2.502      481.898       79.888        0.027      339.895       13.538      854.874
05/04/2013  17:10:00     -257.282      379.984      -64.550      149.553      147.516       83.724    22366.083    21760.900     7009.744       13.293        2.557      458.892       97.088        0.045      339.864       13.483      854.839
05/04/2013  17:11:00     -149.402      429.540      -51.663       99.669      129.207       65.976     9933.935    16694.374     4352.806       12.023        1.549      454.781       61.816        0.018      339.834       13.434      854.835
05/04/2013  17:12:00      -75.806      426.539      -39.137       81.679      164.413       59.858     6671.397    27031.591     3583.030       11.324        1.864      433.223       73.626        0.029      339.825       13.419      854.790
05/04/2013  17:13:00      -11.886      513.378      -65.059      114.047      205.157       75.521    13006.773    42089.388     5703.495       16.435        3.040      513.515       92.896        0.033      339.840       13.445      854.741
05/04/2013  17:14:00      -68.606      404.927      -38.006       97.872      103.066       66.570     9578.992    10622.616     4431.535        9.737        1.232      410.698       59.759        0.021      339.853       13.466      854.759
05/04/2013  17:15:00     -218.446      393.522      -57.256      119.293      164.021       86.236    14230.851    26902.876     7436.685       12.721        2.429      450.087       93.514        0.043      340.003       13.719      854.770
05/04/2013  17:16:00     -256.208      466.093      -67.304      128.189      195.717       83.429    16432.496    38305.111     6960.356       17.455        3.085      531.870       80.317        0.023      340.101       13.887      854.731
05/04/2013  17:17:00     -241.085      426.328      -64.810      109.073      163.111       80.214    11896.893    26605.089     6434.359       14.450        2.247      489.773       71.996        0.022      340.078       13.848      854.804
05/04/2013  17:18:00     -207.190      188.286      -35.984      102.306      102.380       66.341    10466.558    10481.701     4401.090        5.251        1.267      279.963       62.328        0.050      340.114       13.908      854.805
05/04/2013  17:19:00     -184.181      176.439      -17.691       95.536      108.150       67.846     9127.080    11696.504     4603.100        4.539        1.271      255.056       57.049        0.050      340.098       13.880      854.807
05/04/2013  17:20:00     -219.108      298.235      -54.580      111.511      124.529       65.243    12434.759    15507.354     4256.689        8.606        1.610      370.070       60.990        0.027      340.076       13.843      854.810
05/04/2013  17:21:00     -225.329      281.098      -48.836      112.141      117.763       77.798    12575.689    13868.105     6052.452        8.233        1.625      360.262       78.522        0.048      340.100       13.884      854.781
05/04/2013  17:22:00     -248.744      398.412      -67.350      144.390      193.792       88.313    20848.467    37555.258     7799.265       14.566        3.310      469.687      102.183        0.047      340.062       13.820      854.780
05/04/2013  17:23:00     -252.716      290.553      -40.529      142.339      184.928       82.907    20260.406    34198.222     6873.530       10.562        3.067      385.080       69.366        0.032      340.147       13.963      854.715
05/04/2013  17:24:00     -446.694      366.957     -107.311      168.549      146.973       92.363    28408.801    21601.185     8530.905       20.211        2.927      578.094       95.278        0.027      340.102       13.887      854.739
05/04/2013  17:25:00     -256.626      356.053      -55.625      131.151      160.939       81.028    17200.485    25901.377     6565.505       12.269        2.483      438.897       75.751        0.030      340.097       13.879      854.678
05/04/2013  17:26:00     -133.554      270.449      -24.746      119.571      143.539       74.043    14297.188    20603.501     5482.330        6.598        2.019      301.627       78.242        0.067      340.139       13.951      854.720
05/04/2013  17:27:00     -170.677      203.241      -40.575      100.247      101.342       59.443    10049.524    10270.197     3533.412        4.796        1.193      265.401       63.133        0.057      340.168       13.999      854.731
05/04/2013  17:28:00     -121.862      160.348      -12.408       86.369       79.406       54.123     7459.626     6305.256     2929.333        2.870        0.835      201.400       46.890        0.054      340.206       14.065      854.728
05/04/2013  17:29:00     -106.159      213.285      -26.356       95.472      145.588       64.066     9114.952    21195.754     4104.513        4.593        1.721      238.244       69.146        0.084      340.203       14.059      854.720
05/04/2013  17:30:00     -234.744      312.372      -61.619       85.627      100.394       53.887     7331.996    10079.054     2903.762        8.839        1.016      390.744       51.434        0.017      340.178       14.016      854.725
05/04/2013  17:31:00     -144.179      285.034      -36.538      103.196       79.449       67.567    10649.345     6312.219     4565.338        6.244        1.076      319.424       54.189        0.029      340.211       14.070      854.758
05/04/2013  17:32:00      -63.212      397.856      -46.376       94.721      138.692       54.684     8972.070    19235.561     2990.357        9.781        1.560      402.846       62.890        0.024      340.174       14.009      854.782
05/04/2013  17:33:00      -72.300      465.607      -50.842      100.529      102.360       52.467    10106.041    10477.475     2752.811       12.397        1.167      471.187       48.644        0.011      340.158       13.981      854.807
05/04/2013  17:34:00      -61.191      424.194      -53.535      102.252      147.893       74.007    10455.383    21872.416     5476.980       11.217        1.890      428.585       77.806        0.033      340.187       14.031      854.800
05/04/2013  17:35:00     -137.921      360.498      -38.112       86.100      161.932       72.370     7413.269    26222.124     5237.421        9.465        1.944      385.981       77.077        0.040      340.292       14.208      854.795
05/04/2013  17:36:00      -69.249      379.333      -53.427      108.562      138.662       60.240    11785.655    19227.261     3628.803        9.309        1.732      385.602       61.274        0.025      340.299       14.219      854.831
05/04/2013  17:37:00      -11.390      285.769      -31.017       86.161      132.438       52.266     7423.640    17539.923     2731.727        5.522        1.385      285.996       49.782        0.030      340.241       14.122      854.834
05/04/2013  17:38:00       38.585      119.278        3.237      117.320       66.407       73.122    13763.922     4409.917     5346.833        1.962        1.176      125.363       65.112        0.270      340.263       14.162      854.820
05/04/2013  17:39:00      -23.911      137.132        8.217       75.904       98.155       49.102     5761.363     9634.337     2411.036        1.862        0.890      139.201       51.329        0.136      340.358       14.321      854.812
05/04/2013  17:40:00      -20.783      331.885      -25.762       96.702      128.421       72.579     9351.214    16492.072     5267.746        7.117        1.556      332.535       74.217        0.050      340.210       14.069      854.826
05/04/2013  17:41:00     -120.935      405.254      -49.887      125.198      143.654       60.806    15674.466    20636.555     3697.381       11.067        2.000      422.914       60.533        0.020      340.219       14.085      854.829
05/04/2013  17:42:00     -124.370      381.568      -40.576      105.449      153.443       53.396    11119.477    23544.832     2851.167       10.011        1.876      401.325       55.074        0.019      340.211       14.072      854.838
05/04/2013  17:43:00     -173.996      230.643      -34.625      100.553      127.990       72.577    10110.991    16381.558     5267.460        5.821        1.588      288.913       65.144        0.051      340.152       13.970      854.830
05/04/2013  17:44:00      -93.400      286.629      -43.003      121.307      146.481       72.145    14715.497    21456.587     5204.908        6.705        2.069      301.462       68.124        0.051      340.131       13.935      854.845
05/04/2013  17:45:00      -91.908      359.829      -40.428       86.248      176.840       58.967     7438.662    31272.514     3477.111        9.087        2.109      371.381       70.982        0.037      340.118       13.914      854.833
05/04/2013  17:46:00     -133.248      205.652      -26.547       83.064      117.048       54.527     6899.692    13700.136     2973.237        4.216        1.179      245.047       56.038        0.052      340.115       13.909      854.845
05/04/2013  17:47:00      -41.844      120.560       -3.505       59.326       82.962       34.189     3519.563     6882.668     1168.868        1.393        0.579      127.615       32.554        0.065      340.161       13.989      854.865
05/04/2013  17:48:00      -81.656      242.926      -22.528       61.435       76.830       46.658     3774.210     5902.899     2176.975        3.902        0.593      256.282       35.582        0.019      340.100       13.884      854.882
05/04/2013  17:49:00     -118.893      162.977      -25.544       73.761      120.400       39.434     5440.712    14496.263     1555.006        3.142        1.075      201.735       29.289        0.021      340.195       14.045      854.882
05/04/2013  17:50:00     -113.563      124.810      -16.767       65.205      127.070       45.511     4251.732    16146.808     2071.267        2.561        1.123      168.742       56.293        0.111      340.152       13.973      854.892
05/04/2013  17:51:00     -191.350       78.914      -28.458       71.026      144.969       52.201     5044.714    21015.885     2724.910        3.621        1.439      206.984       43.212        0.044      340.174       14.009      854.877
05/04/2013  17:52:00     -154.424      122.651      -46.125       52.027       92.648       38.812     2706.840     8583.637     1506.344        2.691        0.640      197.206       40.344        0.042      340.154       13.977      854.864
05/04/2013  17:53:00     -102.293       76.698      -15.292       48.104       60.855       29.059     2313.968     3703.354      844.414        1.172        0.343      127.854       20.745        0.026      340.168       14.000      854.863
05/04/2013  17:54:00      -66.146      109.258      -16.836       41.362       67.663       24.261     1710.783     4578.308      588.573        1.174        0.344      127.721       21.884        0.029      340.214       14.080      854.881
05/04/2013  17:55:00      -73.002      229.018      -29.945       84.132      126.548       38.952     7078.140    16014.402     1517.268        4.164        1.230      240.372       47.579        0.039      340.158       13.981      854.880
05/04/2013  17:56:00      -68.178      235.424      -36.934       37.960      110.763       30.485     1440.991    12268.523      929.358        3.804        0.732      245.098       42.448        0.030      340.167       13.997      854.876
05/04/2013  17:57:00      -41.484      169.959      -18.031       37.209       66.772       34.810     1384.539     4458.492     1211.713        1.899        0.353      174.948       27.826        0.025      340.203       14.059      854.869
05/04/2013  17:58:00      -67.672      210.910      -29.661       65.298       88.757       41.149     4263.869     7877.825     1693.212        3.189        0.692      221.501       38.064        0.030      340.170       14.002      854.871
05/04/2013  17:59:00      -54.083       77.551      -16.450       40.627       46.872       27.565     1650.519     2197.006      759.815        0.691        0.230       94.547       24.103        0.065      340.283       14.197      854.871
05/04/2013  18:00:00      -69.260       38.060      -16.227       61.653       50.078       28.429     3801.070     2507.834      808.213        0.681        0.356       79.029       31.928        0.163      340.304       14.231      854.873
05/04/2013  18:01:00      -79.619       52.155      -11.599       68.029       80.279       40.350     4627.907     6444.647     1628.111        1.095        0.635       95.180       44.496        0.219      340.262       14.160      854.858
05/04/2013  18:02:00     -123.404      150.122      -24.638       86.888      124.356       43.739     7549.476    15464.471     1913.079        3.165        1.246      194.332       63.500        0.107      340.175       14.012      854.842
05/04/2013  18:03:00     -141.807      167.527      -32.096       58.428       75.551       34.178     3413.798     5707.983     1168.142        2.975        0.514      219.487       34.479        0.025      340.179       14.019      854.825
05/04/2013  18:04:00      -82.182      172.010      -13.098       67.774       87.886       51.251     4593.276     7723.897     2626.665        2.573        0.747      190.634       56.668        0.088      340.183       14.025      854.824
05/04/2013  18:05:00      -94.997       43.260      -17.499       94.105       73.660       42.170     8855.781     5425.862     1778.278        1.363        0.803      104.383       46.872        0.202      340.256       14.150      854.822
05/04/2013  18:06:00     -101.051      161.378      -22.391       63.543       98.248       42.805     4037.716     9652.572     1832.276        2.614        0.776      190.405       48.900        0.066      340.227       14.099      854.815
05/04/2013  18:07:00      -73.806      124.952      -18.934       48.246       58.397       40.606     2327.693     3410.183     1648.853        1.440        0.369      145.122       36.598        0.064      340.264       14.163      854.832
05/04/2013  18:08:00      -68.031      193.967       -6.262       62.083       67.737       39.282     3854.319     4588.350     1543.039        2.614        0.499      205.552       36.469        0.031      340.281       14.190      854.834
05/04/2013  18:09:00        1.884      180.549       -6.317       54.114      111.279       44.317     2928.275    12382.928     1964.022        2.496        0.864      180.559       56.111        0.097      340.263       14.161      854.835
05/04/2013  18:10:00      -75.560      274.543      -28.116       46.511      107.666       32.537     2163.237    11591.985     1058.647        4.834        0.741      284.751       31.128        0.012      340.256       14.146      854.811
05/04/2013  18:11:00      -55.817      218.970      -22.402       46.333       73.610       43.555     2146.732     5418.382     1897.023        3.051        0.473      225.972       40.935        0.033      340.267       14.167      854.798
05/04/2013  18:12:00      -36.653      204.610      -19.520       59.390       74.168       36.371     3527.204     5500.856     1322.833        2.697        0.518      207.867       36.425        0.031      340.235       14.111      854.787
05/04/2013  18:13:00      -46.165      206.556      -24.581       45.447       61.800       25.363     2065.386     3819.183      643.274        2.596        0.326      211.652       21.055        0.010      340.216       14.081      854.785
05/04/2013  18:14:00      -41.321      127.120        5.073       68.143       78.360       42.256     4643.430     6140.227     1785.578        1.523        0.628      133.667       40.052        0.090      340.276       14.182      854.772
05/04/2013  18:15:00      -40.158       97.842       -5.757       39.425       56.535       30.125     1554.300     3196.194      907.491        0.844        0.283      105.763       26.583        0.063      340.275       14.184      854.776
05/04/2013  18:16:00      -78.118       80.820       -8.270       70.684       58.633       31.195     4996.241     3437.783      973.103        1.105        0.470      112.402       21.151        0.035      340.266       14.166      854.775
05/04/2013  18:17:00      -97.282       97.892      -16.279       59.900       73.989       40.354     3588.069     5474.327     1628.437        1.500        0.535      138.010       34.603        0.063      340.239       14.121      854.797
05/04/2013  18:18:00      -92.610      138.490      -20.865       39.713       49.351       33.950     1577.084     2435.570     1152.605        1.668        0.258      166.602       25.057        0.023      340.283       14.196      854.816
05/04/2013  18:19:00      -73.419       74.707       -8.956       43.677       49.511       28.718     1907.701     2451.382      824.730        0.812        0.259      104.745       16.859        0.026      340.341       14.296      854.823
05/04/2013  18:20:00      -92.174       78.742      -38.637       28.549       29.361       17.351      815.057      862.049      301.044        0.908        0.099      121.229       13.367        0.012      340.311       14.243      854.819
05/04/2013  18:21:00      -43.985       39.539      -15.956       32.605       26.096       22.295     1063.100      680.979      497.073        0.300        0.112       59.145       15.865        0.072      340.313       14.247      854.811
05/04/2013  18:22:00        7.996       42.544        9.470       29.712       47.929       22.971      882.781     2297.149      527.688        0.283        0.185       43.289       24.263        0.314      340.360       14.325      854.783
05/04/2013  18:23:00      -33.133        2.947        1.694       29.628       17.835       14.304      877.811      318.087      204.615        0.125        0.070       33.263       15.220        0.209      340.359       14.326      854.763
05/04/2013  18:24:00       76.458       58.536       16.969       40.638       20.138       19.527     1651.428      405.522      381.291        0.600        0.122       96.293       11.573        0.014      340.341       14.294      854.745
05/04/2013  18:25:00        5.107        2.244       -7.198       57.749       35.093       26.755     3334.928     1231.546      715.815        0.268        0.264        5.579       26.505       22.574      340.364       14.332      854.714
05/04/2013  18:26:00       74.634       40.103       27.897       49.170       29.465       22.425     2417.710      868.181      502.864        0.587        0.189       84.726       22.571        0.071      340.397       14.389      854.697
05/04/2013  18:27:00       99.069       70.594       49.192       57.549       45.857       47.226     3311.875     2102.857     2230.254        1.243        0.382      121.647       39.411        0.105      340.411       14.414      854.696
05/04/2013  18:28:00      108.651       74.207       45.238       34.840       28.354       27.468     1213.822      803.968      754.484        1.106        0.139      131.574       18.232        0.019      340.366       14.337      854.685
05/04/2013  18:29:00       77.909       41.587       54.038       37.008       44.587       33.432     1369.621     1988.018     1117.718        0.760        0.224       88.313       29.674        0.113      340.365       14.336      854.652
05/04/2013  18:30:00       10.892      -90.295       -5.339       47.707       37.439       26.344     2275.964     1401.685      693.995        0.634        0.219       90.949       15.784        0.030      340.418       14.426      854.617
05/04/2013  18:31:00        9.754       29.125       48.990       22.007       24.156       14.382      484.305      583.527      206.836        0.231        0.064       30.715       10.922        0.126      340.525       14.605      854.615
05/04/2013  18:32:00        9.114       17.927       55.569       31.868       59.674       35.578     1015.568     3560.943     1265.760        0.467        0.292       20.111       38.941        3.749      340.520       14.597      854.629
05/04/2013  18:33:00       74.408      -81.613       -6.540       27.164       47.005       27.803      737.891     2209.437      772.982        0.798        0.186      110.441       19.740        0.032      340.479       14.528      854.625
05/04/2013  18:34:00       68.423     -125.497       -7.246       24.738       30.431       17.184      611.974      926.045      295.303        1.116        0.092      142.938       11.851        0.007      340.467       14.507      854.610
05/04/2013  18:35:00       78.260      -57.142       -1.086       41.713       58.929       32.670     1740.000     3472.647     1067.327        0.783        0.314       96.901       37.438        0.149      340.522       14.600      854.612
05/04/2013  18:36:00       65.340      -79.368        1.822       58.355       81.748       42.598     3405.345     6682.714     1814.617        1.124        0.595      102.803       54.077        0.277      340.531       14.615      854.610
05/04/2013  18:37:00       60.520     -151.851      -11.776       48.410       41.055       22.657     2343.572     1685.505      513.358        1.570        0.227      163.467       17.012        0.011      340.482       14.531      854.607
05/04/2013  18:38:00       67.183      -98.278      -24.211       39.352       36.261       21.750     1548.544     1314.885      473.076        0.905        0.167      119.046       14.561        0.015      340.616       14.760      854.580
05/04/2013  18:39:00      -50.711      -35.529        7.449       63.165       31.877       23.672     3989.775     1016.123      560.369        0.473        0.278       61.919       22.022        0.126      340.630       14.784      854.541
05/04/2013  18:40:00     -102.331      -40.582        2.586       40.228       47.236       28.108     1618.268     2231.218      790.064        0.838        0.232      110.084       23.206        0.044      340.510       14.582      854.505
05/04/2013  18:41:00      -58.951      -77.585       -1.132       49.923       46.220       25.003     2492.349     2136.287      625.138        0.737        0.263       97.440       28.442        0.085      340.420       14.427      854.487
05/04/2013  18:42:00      -29.674      -99.316        3.857       29.721       32.396       21.786      883.332     1049.506      474.644        0.658        0.120      103.655       13.365        0.017      340.411       14.414      854.481
05/04/2013  18:43:00       70.773     -114.475      -19.438       82.241       81.295       38.499     6763.567     6608.942     1482.154        1.667        0.743      134.586       44.804        0.111      340.451       14.479      854.457
05/04/2013  18:44:00       24.529     -107.322       -6.913       91.183       84.604       34.476     8314.305     7157.826     1188.586        1.441        0.833      110.090       37.056        0.113      340.509       14.577      854.404
05/04/2013  18:45:00       34.853      -53.212       20.626       34.578       44.926       40.041     1195.623     2018.361     1603.321        0.464        0.241       63.611       21.256        0.112      340.570       14.684      854.308
05/04/2013  18:46:00       80.410       74.846       78.874      121.820       96.575       48.412    14840.107     9326.663     2343.682        2.240        1.326      109.853       49.053        0.199      340.535       14.619      854.275
05/04/2013  18:47:00       99.683      138.788      139.262       90.286       89.234       80.139     8151.593     7962.748     6422.246        3.556        1.127      170.877       78.921        0.213      340.442       14.462      854.256
05/04/2013  18:48:00      101.163       62.486       68.567       83.097       67.921       41.674     6905.160     4613.272     1736.684        1.605        0.663      118.905       28.455        0.057      340.495       14.553      854.213
05/04/2013  18:49:00       93.787       90.759       36.948       57.407       27.406       43.697     3295.605      751.103     1909.405        1.218        0.298      130.512       41.893        0.103      340.545       14.639      854.195
05/04/2013  18:50:00       46.674       33.463       61.224       56.738       63.328       55.381     3219.231     4010.497     3067.108        0.867        0.515       57.431       48.451        0.712      340.607       14.745      854.183
05/04/2013  18:51:00       97.639       48.390       82.888       91.639       75.466       52.282     8397.768     5695.048     2733.431        1.778        0.841      108.973       52.637        0.233      340.587       14.710      854.176
05/04/2013  18:52:00      181.076       74.562       71.201       97.560      111.856       59.087     9517.995    12511.670     3491.256        3.447        1.276      195.827       53.839        0.076      340.578       14.692      854.167
05/04/2013  18:53:00      245.330      106.632       91.858      167.989      117.553      105.932    28220.220    13818.645    11221.559        6.662        2.663      267.501       87.308        0.107      340.554       14.652      854.166
05/04/2013  18:54:00      103.698       99.217      133.167      107.504      116.992       89.122    11557.110    13687.176     7942.739        3.575        1.659      143.517       97.706        0.463      340.592       14.716      854.170
05/04/2013  18:55:00      128.052       60.300       74.180       77.972       56.537       64.308     6079.666     3196.396     4135.533        1.947        0.671      141.539       46.712        0.109      340.588       14.710      854.174
05/04/2013  18:56:00      121.515       59.673       64.099       87.118       63.680       56.591     7589.563     4055.099     3202.552        1.864        0.742      135.377       50.042        0.137      340.576       14.691      854.155
05/04/2013  18:57:00      118.115       81.701       58.888       98.471       75.445       62.722     9696.539     5691.967     3934.014        2.171        0.966      143.618       39.578        0.076      340.571       14.683      854.156
05/04/2013  18:58:00      109.605       77.247       50.346       99.630       83.090       58.809     9926.216     6903.943     3458.493        2.040        1.014      134.091       46.488        0.120      340.556       14.655      854.145
05/04/2013  18:59:00       95.029       32.956       46.154       83.778       70.032       57.923     7018.736     4904.470     3355.090        1.376        0.764      100.581       47.072        0.219      340.559       14.662      854.162
05/04/2013  19:00:00      104.530       99.334       69.232       81.376       78.824       66.136     6621.989     6213.211     4374.029        2.140        0.860      144.200       55.955        0.151      340.554       14.653      854.181
05/04/2013  19:01:00        7.808       81.396      116.352       46.779       63.862       53.751     2188.316     4078.349     2889.158        1.469        0.458       81.769       54.347        0.442      340.581       14.700      854.193
05/04/2013  19:02:00       31.759       -6.552       46.841       44.658       47.128       31.189     1994.300     2221.080      972.748        0.422        0.259       32.428       28.496        0.772      340.638       14.797      854.198
05/04/2013  19:03:00      106.721      -78.647       14.347       85.403       81.438       51.648     7293.744     6632.095     2667.478        1.718        0.830      132.569       62.081        0.219      340.596       14.724      854.193
05/04/2013  19:04:00      128.809      -88.433       32.506      101.418      136.857       76.519    10285.513    18729.932     5855.183        3.016        1.744      156.244       97.877        0.392      340.601       14.733      854.178
05/04/2013  19:05:00       -9.723       73.903      104.996       31.875       56.440       34.711     1016.002     3185.500     1204.861        1.099        0.270       74.540       27.068        0.132      340.597       14.729      854.179
05/04/2013  19:06:00       31.451      -91.188       19.692       66.065       89.758       41.855     4364.612     8056.516     1751.876        1.193        0.709       96.460       37.559        0.152      340.725       14.942      854.170
05/04/2013  19:07:00      152.627     -154.446      -12.338       79.719       95.209       62.865     6355.079     9064.811     3952.008        3.333        0.969      217.137       57.781        0.071      340.644       14.803      854.149
05/04/2013  19:08:00       49.244      -29.284       14.880       56.519       69.978       43.166     3194.432     4896.958     1863.321        0.673        0.498       57.293       31.431        0.301      340.681       14.870      854.155
05/04/2013  19:09:00       92.706      -34.783       36.514      101.922       86.516       60.832    10388.013     7485.099     3700.563        1.635        1.079       99.016       71.181        0.517      340.604       14.739      854.162
05/04/2013  19:10:00      101.413      -15.029       72.591      108.404      122.800       68.764    11751.383    15079.816     4728.458        2.366        1.578      102.520       86.292        0.708      340.565       14.672      854.162
05/04/2013  19:11:00      122.525     -100.103       35.360       91.005      143.459       74.330     8281.873    20580.491     5524.963        3.033        1.719      158.218       96.114        0.369      340.561       14.666      854.166
05/04/2013  19:12:00       69.910     -101.191        5.240       78.382       98.343       68.688     6143.676     9671.263     4717.995        1.784        1.027      122.992       53.784        0.191      340.575       14.689      854.151
05/04/2013  19:13:00       76.121      -51.194       46.084       82.187      151.230       72.977     6754.630    22870.508     5325.682        2.274        1.748       91.734      100.046        1.189      340.556       14.657      854.154
05/04/2013  19:14:00      127.479     -113.779       -1.822      102.959      120.233       60.368    10600.657    14455.905     3644.257        2.895        1.435      170.870       75.851        0.197      340.520       14.595      854.152
05/04/2013  19:15:00       94.520      -51.011       30.069      102.992       92.930       70.207    10607.260     8635.930     4929.036        1.830        1.209      107.407       88.936        0.686      340.504       14.567      854.152
05/04/2013  19:16:00      143.393     -114.421       -4.124       57.725       74.676       61.666     3332.221     5576.540     3802.637        2.319        0.636      183.450       60.591        0.109      340.465       14.501      854.131
05/04/2013  19:17:00       37.074     -115.773      -15.004       82.186       47.953       30.033     6754.558     2299.445      902.011        1.248        0.498      121.564       25.507        0.044      340.531       14.615      854.114
05/04/2013  19:18:00       20.143     -112.713      -12.466       58.362       42.881       31.851     3406.175     1838.795     1014.463        0.976        0.313      114.498       27.882        0.059      340.620       14.766      854.121
05/04/2013  19:19:00       51.531      -90.567       -8.617       62.891       57.491       45.671     3955.223     3305.185     2085.837        1.014        0.467      104.201       42.016        0.163      340.623       14.771      854.111
05/04/2013  19:20:00       42.984      -98.295       -3.770       52.169       61.977       45.500     2721.590     3841.128     2070.287        1.008        0.432      107.282       38.590        0.129      340.655       14.826      854.115
05/04/2013  19:21:00       70.709      -86.456        0.729       66.948       74.098       44.040     4482.074     5490.567     1939.515        1.219        0.596      111.689       47.890        0.184      340.601       14.734      854.115
05/04/2013  19:22:00      130.808     -212.572      -34.278       84.710       56.171       48.438     7175.744     3155.223     2346.213        3.807        0.634      249.595       50.344        0.041      340.514       14.581      854.131
05/04/2013  19:23:00       58.260     -120.372        1.881       72.618       92.939       62.620     5273.422     8637.701     3921.303        1.786        0.892      133.729       62.855        0.221      340.519       14.594      854.134
05/04/2013  19:24:00       10.482      -46.620       21.474       48.508       68.800       47.166     2352.979     4733.382     2224.659        0.603        0.466       47.784       45.824        0.920      340.510       14.580      854.135
05/04/2013  19:25:00       16.067      -36.416       29.002       30.312       42.955       23.480      918.789     1845.137      551.329        0.287        0.166       39.803       23.528        0.349      340.517       14.592      854.135
05/04/2013  19:26:00       10.721      -13.582       31.379       30.985       41.813       23.196      960.097     1748.362      538.062        0.226        0.162       17.304       23.954        1.916      340.558       14.663      854.125
05/04/2013  19:27:00      -30.163      -45.662       18.212       43.505       49.099       29.217     1892.647     2410.664      853.644        0.424        0.258       54.724       29.396        0.289      340.570       14.682      854.103
05/04/2013  19:28:00        7.284      -18.156       11.254       26.125       32.578       19.662      682.530     1061.351      386.603        0.132        0.107       19.563        9.258        0.224      340.554       14.657      854.073
05/04/2013  19:29:00       60.406      -52.977       28.143       54.967       56.075       41.490     3021.425     3144.445     1721.420        0.757        0.394       80.346       41.461        0.266      340.552       14.652      854.047
05/04/2013  19:30:00       27.627      -74.020       19.459       53.405       62.864       48.993     2852.123     3951.903     2400.269        0.791        0.460       79.008       32.184        0.166      340.519       14.595      854.014
05/04/2013  19:31:00       71.445      -99.503        0.823       70.895       77.456       40.310     5026.089     5999.452     1624.920        1.383        0.633      122.496       40.913        0.112      340.488       14.542      853.983
05/04/2013  19:32:00      -60.128     -180.575        3.774       62.675       78.448       40.021     3928.197     6154.068     1601.680        2.396        0.584      190.323       30.876        0.026      340.544       14.635      853.950
05/04/2013  19:33:00       41.837      -69.842       17.848       98.217       83.601       55.101     9646.674     6989.104     3036.115        1.331        0.984       81.414       51.714        0.403      340.514       14.587      853.921
05/04/2013  19:34:00       -2.556      -70.871       -5.221       42.497       47.735       33.398     1806.026     2278.593     1115.434        0.513        0.260       70.917       31.107        0.192      340.537       14.625      853.907
05/04/2013  19:35:00      -41.784      -65.857       -2.541       51.464       50.199       28.833     2648.528     2519.969      831.340        0.604        0.300       77.994       20.554        0.069      340.488       14.542      853.894
05/04/2013  19:36:00      -52.943      -74.759       -4.643       35.355       39.072       18.940     1249.995     1526.659      358.727        0.577        0.157       91.607       14.571        0.025      340.515       14.589      853.864
05/04/2013  19:37:00      -30.722      -53.331        1.791       50.677       27.257       19.327     2568.129      742.942      373.538        0.374        0.184       61.547        9.250        0.023      340.422       14.433      853.848
05/04/2013  19:38:00      -45.262      -54.212        6.757       45.418       45.711       23.772     2062.814     2089.509      565.092        0.487        0.236       70.623       17.453        0.061      340.352       14.314      853.831
05/04/2013  19:39:00      -70.980      -72.449       13.179       62.453       44.203       34.742     3900.339     1953.944     1207.035        0.876        0.353      101.425       34.032        0.113      340.289       14.205      853.815
05/04/2013  19:40:00      -45.823     -100.337        8.291       50.243       85.129       34.539     2524.391     7246.871     1192.908        1.160        0.548      110.305       36.882        0.112      340.258       14.152      853.818
05/04/2013  19:41:00     -113.534     -122.203        7.765       69.388       78.669       37.161     4814.704     6188.833     1380.955        2.013        0.619      166.804       30.198        0.033      340.238       14.118      853.809
05/04/2013  19:42:00     -104.819     -133.516        8.262       90.882       83.509       43.284     8259.492     6973.774     1873.533        2.299        0.855      169.746       55.457        0.107      340.196       14.048      853.810
05/04/2013  19:43:00     -122.924     -142.285      -18.980       74.893       77.416       39.015     5608.906     5993.287     1522.137        2.442        0.656      188.030       26.294        0.020      340.219       14.086      853.812
05/04/2013  19:44:00     -150.586      -92.425       -0.439       83.913       65.177       41.958     7041.322     4247.979     1760.464        2.213        0.652      176.688       40.827        0.053      340.186       14.031      853.815
05/04/2013  19:45:00     -143.511      -79.936        5.143       88.217       70.027       43.112     7782.174     4903.763     1858.680        2.078        0.727      164.272       46.026        0.079      340.154       13.978      853.819
05/04/2013  19:46:00      -90.587     -132.866       -8.546       59.531       92.262       35.079     3543.970     8512.330     1230.540        1.961        0.664      160.809       22.127        0.019      340.199       14.052      853.835
05/04/2013  19:47:00     -114.362     -107.621        5.226       77.163       81.341       40.005     5954.129     6616.294     1600.430        1.943        0.709      157.038       39.701        0.064      340.166       13.998      853.847
05/04/2013  19:48:00     -130.835     -133.403       -5.887       56.031       68.511       31.471     3139.464     4693.763      990.402        2.188        0.441      186.853       25.917        0.019      340.184       14.027      853.844
05/04/2013  19:49:00      -99.842     -101.269       10.779       72.078       65.826       40.497     5195.193     4333.083     1639.985        1.575        0.558      142.211       36.686        0.067      340.150       13.970      853.845
05/04/2013  19:50:00     -123.811     -106.277        3.757       74.832       77.059       41.662     5599.795     5938.095     1735.702        1.995        0.664      163.169       41.511        0.065      340.145       13.962      853.855
05/04/2013  19:51:00     -143.701      -80.040        3.988       57.147       61.206       32.592     3265.754     3746.160     1062.270        1.757        0.404      164.488       34.024        0.043      340.124       13.926      853.850
05/04/2013  19:52:00     -160.596      -70.085        3.189       66.743       55.471       26.205     4454.569     3077.002      686.685        1.946        0.411      175.223       26.033        0.022      340.130       13.936      853.843
05/04/2013  19:53:00      -74.034      -25.834       17.522       71.975       54.668       32.352     5180.429     2988.536     1046.625        0.783        0.461       78.412       31.162        0.158      340.103       13.892      853.841
05/04/2013  19:54:00     -104.722      -67.578        1.155       72.057       44.838       32.367     5192.240     2010.478     1047.638        1.189        0.413      124.633       30.499        0.060      340.115       13.911      853.853
05/04/2013  19:55:00     -135.533     -153.502       -0.949      102.520       74.971       47.372    10510.256     5620.685     2244.114        3.015        0.919      204.773       56.470        0.076      340.089       13.866      853.868
05/04/2013  19:56:00     -174.728      -62.932        1.253       79.223       51.467       34.348     6276.324     2648.824     1179.756        2.230        0.505      185.716       36.506        0.039      340.068       13.832      853.883
05/04/2013  19:57:00     -170.667      -82.742       -6.182       61.918       49.707       28.658     3833.808     2470.753      821.255        2.157        0.356      189.667       22.471        0.014      340.076       13.844      853.899
05/04/2013  19:58:00     -161.393      -68.567       -1.591       60.745       51.459       29.665     3689.955     2648.045      880.017        1.898        0.361      175.354       29.836        0.029      340.059       13.817      853.898
05/04/2013  19:59:00     -177.246     -107.580       -5.478       50.550       41.601       26.518     2555.302     1730.664      703.230        2.400        0.249      207.339       22.717        0.012      340.048       13.796      853.890
05/04/2013  20:00:00      -35.505      -58.329       12.928       56.338       57.300       37.195     3174.008     3283.318     1383.453        0.633        0.392       68.285       33.016        0.234      340.075       13.844      853.870
05/04/2013  20:01:00      -62.068      -40.416       10.137       48.522       31.887       28.943     2354.408     1016.758      837.717        0.490        0.210       74.067       27.104        0.134      340.098       13.885      853.850
05/04/2013  20:02:00     -130.370       -6.464        3.587       88.146       37.282       36.826     7769.750     1389.954     1356.132        1.378        0.526      130.530       46.886        0.129      339.963       13.654      853.842
05/04/2013  20:03:00     -120.437       -1.102        1.180       61.967       53.088       37.087     3839.934     2818.358     1375.431        1.127        0.402      120.442       30.574        0.064      339.922       13.589      853.839
05/04/2013  20:04:00      -68.774      -29.125        3.638       56.141       54.462       25.197     3151.768     2966.124      634.905        0.617        0.338       74.687       31.368        0.176      339.945       13.626      853.838
05/04/2013  20:05:00     -185.581      -55.017       -9.784       69.822       49.190       33.769     4875.068     2419.643     1140.374        2.300        0.422      193.565       39.550        0.042      339.855       13.471      853.839
05/04/2013  20:06:00     -149.687      -49.068      -11.037       53.495       52.645       29.536     2861.739     2771.525      872.395        1.572        0.325      157.524       22.335        0.020      339.923       13.588      853.828
05/04/2013  20:07:00     -197.459      -63.256       -1.978       51.755       46.424       31.931     2678.583     2155.190     1019.585        2.442        0.293      207.343       29.252        0.020      339.868       13.493      853.815
05/04/2013  20:08:00     -118.392      -47.772       -0.220       65.376       38.140       28.425     4274.059     1454.677      807.979        1.142        0.327      127.667       31.404        0.061      339.838       13.444      853.796
05/04/2013  20:09:00      -99.767      -57.817       -2.291       62.635       49.900       31.299     3923.085     2490.005      979.630        1.035        0.370      115.310       28.783        0.062      339.889       13.531      853.779
05/04/2013  20:10:00     -165.194      -47.170       -6.034       55.571       50.932       29.194     3088.093     2594.028      852.262        1.804        0.327      171.796       21.072        0.015      339.853       13.469      853.764
05/04/2013  20:11:00     -135.131      -32.497       -1.917       77.699       49.582       36.558     6037.170     2458.401     1336.459        1.457        0.492      138.983       43.812        0.099      339.826       13.424      853.747
05/04/2013  20:12:00     -130.003      -20.479       -2.388       65.485       53.496       38.475     4288.263     2861.805     1480.337        1.298        0.432      131.606       42.634        0.105      339.820       13.415      853.730
05/04/2013  20:13:00     -163.993      -54.134       -1.125       67.639       48.962       33.251     4575.096     2397.262     1105.598        1.895        0.404      172.696       36.589        0.045      339.827       13.425      853.713
05/04/2013  20:14:00     -197.159      -70.364       -4.038       62.590       52.697       30.737     3917.467     2776.981      944.771        2.574        0.382      209.339       29.350        0.020      339.841       13.449      853.710
05/04/2013  20:15:00     -177.005      -77.391      -10.337       57.300       33.648       23.325     3283.339     1132.221      544.043        2.119        0.248      193.185       23.807        0.015      339.871       13.497      853.710
05/04/2013  20:16:00     -100.486      -75.257       -2.090       59.959       56.745       34.890     3595.117     3219.956     1217.297        1.190        0.402      125.543       31.207        0.062      339.892       13.535      853.719
05/04/2013  20:17:00      -70.642      -43.727        2.756       50.121       57.706       24.178     2512.074     3330.011      584.565        0.667        0.321       83.080       22.974        0.076      339.910       13.566      853.738
05/04/2013  20:18:00      -58.376      -57.748        4.690       78.763       71.745       33.624     6203.592     5147.405     1130.599        0.962        0.624       82.114       47.900        0.340      339.915       13.576      853.752
05/04/2013  20:19:00     -112.353      -89.398        1.431       58.305       43.778       30.178     3399.449     1916.482      910.716        1.342        0.311      143.580       30.152        0.044      339.879       13.514      853.759
05/04/2013  20:20:00      -65.796      -22.660        8.394       54.851       37.219       26.027     3008.686     1385.249      677.390        0.499        0.254       69.589       28.811        0.171      339.932       13.604      853.750
05/04/2013  20:21:00      -67.040      -17.726        6.597       41.461       30.504       21.199     1718.982      930.482      449.388        0.397        0.155       69.344       19.838        0.082      339.888       13.531      853.739
05/04/2013  20:22:00      -97.123      -51.540       -4.444       51.384       30.704       23.466     2640.285      942.713      550.630        0.812        0.207      109.951       22.051        0.040      339.911       13.568      853.729
05/04/2013  20:23:00     -101.353      -51.929        2.526       55.944       35.161       22.247     3129.739     1236.276      494.921        0.892        0.243      113.882       16.586        0.021      339.880       13.517      853.725
05/04/2013  20:24:00      -75.392      -69.111        5.803       56.104       52.110       26.722     3147.678     2715.405      714.081        0.853        0.329      102.276       30.576        0.089      339.906       13.561      853.718
05/04/2013  20:25:00     -100.725      -67.827        2.054       74.737       57.862       32.153     5585.577     3348.043     1033.789        1.236        0.498      121.434       38.657        0.101      339.953       13.639      853.707
05/04/2013  20:26:00     -121.039      -33.228      -11.542       29.045       47.031       22.992      843.624     2211.954      528.636        0.974        0.179      125.517       16.855        0.018      339.922       13.585      853.692
05/04/2013  20:27:00      -78.013      -10.849        1.849       50.259       42.290       18.433     2525.956     1788.458      339.766        0.543        0.233       78.764       17.494        0.049      339.871       13.500      853.683
05/04/2013  20:28:00     -129.689       24.348       -7.099       40.204       35.215       17.803     1616.389     1240.084      316.937        1.032        0.159      131.955       16.107        0.015      339.841       13.451      853.678
05/04/2013  20:29:00     -125.467       -9.084       -6.163       61.569       32.134       23.407     3790.770     1032.564      547.898        1.062        0.269      125.795       26.300        0.044      339.813       13.403      853.682
05/04/2013  20:30:00     -120.637      -15.168       -9.100       34.483       37.558       20.253     1189.051     1410.615      410.173        0.894        0.150      121.587       17.090        0.020      339.814       13.406      853.673
05/04/2013  20:31:00     -129.392       -0.641      -18.062       37.817       32.693       25.866     1430.152     1068.811      669.070        1.012        0.158      129.394       23.600        0.033      339.808       13.396      853.667
05/04/2013  20:32:00     -124.520      -11.792      -11.648       46.431       43.714       18.020     2155.848     1910.922      324.730        1.008        0.220      125.077       14.058        0.013      339.847       13.462      853.663
05/04/2013  20:33:00     -181.526        8.987      -19.359       42.378       30.436       24.001     1795.878      926.380      576.061        1.835        0.165      181.749       20.722        0.013      339.817       13.411      853.657
05/04/2013  20:34:00     -136.390       -3.204      -13.719       24.249       30.430       21.441      588.037      925.955      459.713        1.039        0.099      136.428       11.329        0.007      339.812       13.404      853.662
05/04/2013  20:35:00     -135.475      -41.674      -16.352       36.433       30.694       21.252     1327.349      942.152      451.662        1.154        0.136      141.740       21.713        0.023      339.810       13.400      853.668
05/04/2013  20:36:00      -55.316      -16.042        7.159       36.302       47.207       22.982     1317.825     2228.509      528.187        0.372        0.204       57.595       21.220        0.136      339.807       13.395      853.680
05/04/2013  20:37:00     -100.357      -28.536      -19.139       21.230       18.789       19.036      450.718      353.012      362.384        0.621        0.058      104.335       10.092        0.009      339.872       13.502      853.688
05/04/2013  20:38:00      -69.326      -20.770      -18.917       29.835       34.402       14.933      890.146     1183.523      222.993        0.395        0.115       72.371       11.120        0.024      339.812       13.401      853.693
05/04/2013  20:39:00     -115.460        5.006      -11.849       29.233       23.702       16.814      854.553      561.804      282.715        0.760        0.085      115.569       10.777        0.009      339.780       13.348      853.698
05/04/2013  20:40:00     -135.752      -11.076      -10.443       21.311       17.301       13.762      454.146      299.339      189.379        0.980        0.047      136.203        7.442        0.003      339.755       13.306      853.691
05/04/2013  20:41:00      -94.689      -15.053       -6.320       28.221       22.587       22.020      796.402      510.189      484.902        0.551        0.090       95.878       17.110        0.032      339.716       13.241      853.682
05/04/2013  20:42:00     -120.385        7.092      -12.108       36.847       24.393       15.398     1357.711      595.001      237.090        0.844        0.109      120.594       17.802        0.022      339.723       13.251      853.674
05/04/2013  20:43:00      -75.535      -17.296       -3.559       33.938       27.979       20.112     1151.792      782.816      404.501        0.418        0.117       77.490       22.199        0.082      339.742       13.284      853.664
05/04/2013  20:44:00     -105.729        0.807       -0.436       46.273       33.733       22.067     2141.222     1137.910      486.966        0.747        0.188      105.732       18.095        0.029      339.709       13.229      853.654
05/04/2013  20:45:00     -130.061      -16.472      -16.600       38.328       33.282       24.658     1468.999     1107.685      607.994        1.032        0.159      131.100       21.070        0.026      339.714       13.236      853.658
05/04/2013  20:46:00      -95.622      -26.170       -3.187       33.161       39.232       23.919     1099.673     1539.183      572.098        0.652        0.161       99.139       15.946        0.026      339.700       13.214      853.661
05/04/2013  20:47:00     -105.666      -28.293       -7.617       44.655       39.043       25.480     1994.082     1524.358      649.229        0.810        0.208      109.388       28.059        0.066      339.733       13.270      853.673
05/04/2013  20:48:00     -110.356      -14.288      -11.397       31.066       29.770       22.232      965.107      886.255      494.244        0.743        0.117      111.277       16.074        0.021      339.742       13.285      853.684
05/04/2013  20:49:00      -67.593      -26.868       -8.256       82.650       31.439       31.041     6831.082      988.430      963.515        0.707        0.439       72.738       45.084        0.384      339.759       13.315      853.703
05/04/2013  20:50:00      -75.137      -25.703      -10.252       43.774       46.501       27.845     1916.191     2162.387      775.371        0.563        0.243       79.411       23.799        0.090      339.749       13.297      853.718
05/04/2013  20:51:00      -81.502      -41.974       -1.237       49.213       39.995       22.958     2421.881     1599.582      527.075        0.648        0.227       91.675       27.259        0.088      339.726       13.257      853.731
05/04/2013  20:52:00      -60.083      -35.992      -10.084       48.160       25.848       17.761     2319.372      668.096      315.443        0.415        0.165       70.039       13.571        0.038      339.762       13.319      853.746
05/04/2013  20:53:00      -81.809      -29.717       -3.039       33.154       15.581       16.818     1099.190      242.753      282.848        0.460        0.081       87.039       11.455        0.017      339.748       13.294      853.760
05/04/2013  20:54:00      -77.785      -22.852       -4.980       23.560       16.100       15.256      555.076      259.199      232.737        0.382        0.052       81.072        6.344        0.006      339.766       13.324      853.772
05/04/2013  20:55:00      -44.067      -58.494       -2.087       27.424       27.969       17.366      752.054      782.280      301.578        0.360        0.092       73.235       14.113        0.037      339.852       13.470      853.781
05/04/2013  20:56:00      -28.179      -52.356        1.103       36.671       31.970       26.514     1344.788     1022.086      702.993        0.330        0.153       59.458       27.047        0.207      339.809       13.395      853.784
05/04/2013  20:57:00      -71.839      -34.665       -6.830       19.280       16.780       13.409      371.708      281.564      179.802        0.362        0.042       79.765        7.319        0.008      339.782       13.352      853.792
05/04/2013  20:58:00      -76.481      -27.282       -5.550       35.532       25.493       14.445     1262.519      649.912      208.661        0.437        0.106       81.202       16.212        0.040      339.794       13.372      853.789
05/04/2013  20:59:00     -112.029      -28.045       -0.283       43.828       35.282       23.927     1920.895     1244.831      572.520        0.854        0.187      115.486       23.726        0.042      339.699       13.213      853.793
05/04/2013  21:00:00     -109.309      -53.423        0.341       28.358       25.227       18.412      804.185      636.421      338.994        0.829        0.089      121.665       15.713        0.017      339.738       13.277      853.801
05/04/2013  21:01:00     -121.184      -58.953       -8.555       27.707       26.425       17.403      767.675      698.294      302.860        1.000        0.088      134.762       17.472        0.017      339.740       13.280      853.804
05/04/2013  21:02:00     -122.717      -55.082       -1.131       31.533       28.679       20.688      994.326      822.510      428.011        1.017        0.112      134.512       20.059        0.022      339.729       13.260      853.821
05/04/2013  21:03:00     -108.259      -55.867       -0.422       39.152       17.337       16.411     1532.911      300.569      269.329        0.847        0.105      121.824       13.130        0.012      339.728       13.260      853.843
05/04/2013  21:04:00      -89.547      -53.264        4.839       47.254       30.935       23.733     2232.975      956.983      563.267        0.732        0.188      104.191       18.459        0.031      339.749       13.296      853.873
05/04/2013  21:05:00     -142.196      -50.535       -5.272       27.710       29.505       21.149      767.862      870.521      447.270        1.244        0.104      150.909       16.601        0.012      339.733       13.270      853.890
05/04/2013  21:06:00      -80.961      -21.564       -1.078       39.827       29.874       22.756     1586.190      892.478      517.822        0.501        0.150       83.784       20.891        0.062      339.743       13.286      853.902
05/04/2013  21:07:00      -90.838      -26.062       -8.500       16.783       18.153       11.576      281.660      329.532      134.002        0.487        0.037       94.503        6.717        0.005      339.747       13.293      853.896
05/04/2013  21:08:00      -82.737      -30.872       -3.554       41.717       19.038       11.694     1740.336      362.436      136.746        0.502        0.112       88.309       13.004        0.022      339.758       13.312      853.880
05/04/2013  21:09:00      -81.983      -39.253        0.364       36.701       15.412       14.675     1346.963      237.539      215.353        0.503        0.090       90.896       13.705        0.023      339.762       13.322      853.856
05/04/2013  21:10:00      -63.347      -44.622       -5.509       34.734       21.104       13.237     1206.482      445.360      175.210        0.393        0.091       77.485       12.933        0.028      339.813       13.404      853.832
05/04/2013  21:11:00      -91.859      -51.553       -5.715       25.162       17.161       14.493      633.129      294.512      210.053        0.613        0.057      105.337       10.205        0.009      339.756       13.306      853.807
05/04/2013  21:12:00      -69.740      -45.972       -7.372       22.896       20.993       16.838      524.221      440.725      283.507        0.414        0.062       83.529       13.355        0.026      339.778       13.345      853.791
05/04/2013  21:13:00      -56.562      -39.873       -4.956       21.237       20.484       11.612      451.030      419.606      134.835        0.291        0.050       69.203        8.609        0.015      339.782       13.353      853.782
05/04/2013  21:14:00      -13.473      -24.264       -1.897       24.387       30.282       12.401      594.733      917.018      153.776        0.122        0.083       27.754       12.663        0.208      339.814       13.407      853.779
05/04/2013  21:15:00       -1.698      -46.412      -10.244       17.267       17.264       14.672      298.161      298.063      215.268        0.154        0.041       46.443        6.647        0.020      339.940       13.617      853.792
05/04/2013  21:16:00       -8.382      -42.501       -1.457       10.287       11.927       18.080      105.818      142.246      326.898        0.123        0.029       43.319        8.004        0.034      339.816       13.409      853.804
05/04/2013  21:17:00       -6.403      -27.492       -9.854       17.857       12.800       13.851      318.871      163.829      191.863        0.078        0.034       28.228       11.850        0.176      339.862       13.487      853.818
05/04/2013  21:18:00      -16.423      -23.328        5.509       13.312       19.060       12.343      177.222      363.302      152.360        0.077        0.035       28.529       10.921        0.147      339.842       13.454      853.823
05/04/2013  21:19:00      -10.679      -33.408       -5.423       27.691       10.816       11.124      766.768      116.992      123.753        0.113        0.050       35.073       14.665        0.175      339.849       13.465      853.824
05/04/2013  21:20:00      -46.756      -19.207       -0.207       28.684       12.724        8.624      822.799      161.899       74.374        0.181        0.053       50.547        7.328        0.021      339.827       13.429      853.820
05/04/2013  21:21:00      -89.465      -25.100       -6.005       14.653       24.169        9.422      214.716      584.132       88.772        0.478        0.044       92.920        7.358        0.006      339.868       13.496      853.803
05/04/2013  21:22:00      -89.125      -36.931       -6.166       13.365       11.064       10.531      178.632      122.411      110.894        0.488        0.021       96.474        5.057        0.003      339.868       13.495      853.790
05/04/2013  21:23:00      -54.978      -40.177        0.967       34.423       15.875       17.586     1184.911      252.001      309.275        0.319        0.087       68.094       13.818        0.041      339.846       13.460      853.784
05/04/2013  21:24:00      -20.517      -34.529        2.913       28.839       22.977       16.332      831.693      527.933      266.745        0.162        0.081       40.165       14.895        0.138      339.885       13.525      853.790
05/04/2013  21:25:00       -1.409      -16.181       -4.876       16.448       14.029       13.128      270.550      196.819      172.356        0.046        0.032       16.242        6.284        0.150      339.850       13.467      853.797
05/04/2013  21:26:00        0.012       -0.751       13.541       11.716        6.156        6.684      137.276       37.893       44.671        0.020        0.011        0.751        6.387       72.413      339.866       13.494      853.793
05/04/2013  21:27:00       18.948       19.579       14.243        9.073       10.436       10.811       82.313      108.900      116.888        0.063        0.015       27.247        9.044        0.110      339.759       13.313      853.793
05/04/2013  21:28:00       22.555       32.713       -4.974       11.632       16.689        8.252      135.315      278.512       68.089        0.104        0.024       39.736        7.879        0.039      339.740       13.281      853.782
05/04/2013  21:29:00       18.238       47.185       -6.595       12.703       12.034       10.342      161.354      144.826      106.954        0.151        0.021       50.588        5.325        0.011      339.705       13.221      853.762
05/04/2013  21:30:00       12.936       31.815       -7.002        9.204        9.605        4.967       84.710       92.252       24.670        0.072        0.010       34.344        4.507        0.017      339.758       13.312      853.739
05/04/2013  21:31:00        2.090       16.673       -5.472        2.776        3.460        2.885        7.709       11.969        8.320        0.017        0.001       16.804        1.484        0.008      339.812       13.399      853.723
05/04/2013  21:32:00       -0.874        5.000       -2.976        3.870        7.142        3.488       14.974       51.014       12.163        0.006        0.004        5.076        3.038        0.358      339.817       13.411      853.708
05/04/2013  21:33:00       -1.952       -9.209        3.350        5.334        7.109        8.788       28.452       50.545       77.229        0.013        0.008        9.414        3.593        0.146      339.890       13.533      853.697
05/04/2013  21:34:00       -2.969      -12.670       10.129        9.456       13.341       11.158       89.420      177.972      124.496        0.033        0.020       13.013        6.710        0.266      339.842       13.452      853.705
05/04/2013  21:35:00       -0.139        4.485       22.092        8.309       16.714        7.765       69.041      279.368       60.297        0.046        0.020        4.487        6.777        2.281      339.765       13.323      853.711
05/04/2013  21:36:00        9.322      -29.015       17.000       26.698       35.126       20.351      712.766     1233.822      414.148        0.179        0.118       30.476       20.978        0.474      339.836       13.443      853.722
05/04/2013  21:37:00       15.046      -19.135       27.543       29.534       33.175       23.331      872.252     1100.584      544.345        0.193        0.126       24.342       21.400        0.773      339.839       13.447      853.731
05/04/2013  21:38:00        3.866       14.307       53.504       18.709       37.071       22.319      350.035     1374.295      498.155        0.265        0.111       14.820       19.761        1.778      339.894       13.540      853.743
05/04/2013  21:39:00        1.759       18.674       46.072       11.811       24.084       14.173      139.494      580.042      200.882        0.170        0.046       18.757       14.855        0.627      339.863       13.489      853.748
05/04/2013  21:40:00       -2.305      -14.690       31.064       15.184       35.348       17.022      230.539     1249.456      289.735        0.148        0.088       14.870        8.189        0.303      339.962       13.655      853.745
05/04/2013  21:41:00        7.633      -43.853       22.583       23.250       36.869       20.127      540.571     1359.346      405.109        0.240        0.115       44.512       19.330        0.189      339.970       13.669      853.732
05/04/2013  21:42:00        2.695      -35.680       24.214       16.175       41.219       18.288      261.639     1698.992      334.437        0.208        0.115       35.781       19.564        0.299      339.959       13.651      853.711
05/04/2013  21:43:00       12.215       21.799       28.368       19.599       26.142       15.309      384.129      683.382      234.366        0.137        0.065       24.988        9.584        0.147      339.786       13.358      853.699
05/04/2013  21:44:00       66.020       10.178       18.660       34.193       24.619       18.188     1169.174      606.116      330.791        0.346        0.105       66.800       21.689        0.105      339.739       13.279      853.676
05/04/2013  21:45:00       30.952       25.441       31.924       21.631       18.439       15.484      467.917      339.995      239.749        0.184        0.052       40.066        9.985        0.062      339.726       13.259      853.652
05/04/2013  21:46:00       26.256       32.412       39.785       25.907       18.474       14.155      671.184      341.303      200.361        0.227        0.061       41.712       16.036        0.148      339.731       13.267      853.649
05/04/2013  21:47:00       50.327       36.348       26.800       35.391       18.226       22.274     1252.529      332.169      496.153        0.333        0.104       62.080       13.634        0.048      339.746       13.291      853.643
05/04/2013  21:48:00       77.897       36.213       26.894       41.436       31.467       22.167     1716.940      990.154      491.370        0.565        0.160       85.903       21.229        0.061      339.741       13.282      853.631
05/04/2013  21:49:00       53.373       42.290       41.716       26.406       24.306       23.843      697.268      590.794      568.496        0.412        0.093       68.096       12.180        0.032      339.744       13.288      853.623
05/04/2013  21:50:00       70.621       44.001       40.563       27.089       22.864       24.660      733.828      522.750      608.109        0.522        0.093       83.207       17.606        0.045      339.654       13.135      853.638
05/04/2013  21:51:00       92.742       64.544       34.480       31.374       22.418       31.101      984.344      502.566      967.300        0.820        0.123      112.991       13.222        0.014      339.640       13.113      853.649
05/04/2013  21:52:00       96.177       63.568       49.581       30.528       26.962       30.131      931.960      726.957      907.900        0.916        0.128      115.286       20.601        0.032      339.629       13.093      853.655
05/04/2013  21:53:00       97.721       68.021       17.054       23.587       21.404       25.885      556.329      458.150      670.032        0.808        0.084      119.065       10.321        0.008      339.459       12.806      853.637
05/04/2013  21:54:00       49.724       66.509        4.709       26.050       26.595       16.937      678.601      707.315      286.852        0.430        0.084       83.042        9.705        0.014      339.428       12.754      853.608
05/04/2013  21:55:00       12.681       57.539       -2.019       25.144       28.724       18.671      632.219      825.088      348.589        0.264        0.090       58.919       16.400        0.077      339.479       12.840      853.563
05/04/2013  21:56:00        9.361       55.125      -11.800       15.460       16.709        9.691      239.014      279.182       93.908        0.194        0.031       55.915        3.919        0.005      339.613       13.065      853.526
05/04/2013  21:57:00      -11.076       38.988       -3.491        7.382        9.481        6.661       54.500       89.897       44.367        0.092        0.009       40.531        3.787        0.009      339.657       13.139      853.502
05/04/2013  21:58:00      -27.278       33.078       -6.955        8.826        7.457        6.629       77.902       55.603       43.939        0.103        0.009       42.875        0.583        0.000      339.542       12.946      853.502
05/04/2013  21:59:00        2.098        2.483        6.744       14.307       19.651       10.490      204.690      386.167      110.036        0.038        0.035        3.250       11.506       12.533      339.620       13.077      853.537
05/04/2013  22:00:00       -6.737       24.379       48.919        8.001       20.569       16.122       64.015      423.073      259.933        0.189        0.037       25.293       11.872        0.220      339.621       13.080      853.597
05/04/2013  22:01:00       -6.532       46.826       69.118       16.835       29.387       13.105      283.426      863.583      171.748        0.417        0.066       47.280       11.681        0.061      339.533       12.931      853.638
05/04/2013  22:02:00        3.592       43.469       69.905       19.862       30.522       13.220      394.504      931.595      174.760        0.414        0.075       43.617       14.242        0.107      339.560       12.976      853.675
05/04/2013  22:03:00        5.939       24.680       57.098       19.548       23.428       13.177      382.116      548.892      173.628        0.250        0.055       25.385       10.436        0.169      339.596       13.040      853.681
05/04/2013  22:04:00       25.325      -17.703       24.187       22.459       30.342       27.066      504.418      920.665      732.556        0.185        0.108       30.899       22.202        0.516      339.646       13.123      853.677
05/04/2013  22:05:00       76.242      -70.315        1.882       21.693       28.388       21.398      470.585      805.894      457.881        0.625        0.087      103.716       16.030        0.024      339.720       13.246      853.657
05/04/2013  22:06:00       30.849      -14.359       12.210       27.926       25.466       19.064      779.875      648.503      363.424        0.155        0.090       34.027       19.331        0.323      339.674       13.170      853.643
05/04/2013  22:07:00       15.486        3.908       26.793       22.502       17.527       16.523      506.322      307.207      273.016        0.103        0.054       15.971       11.821        0.548      339.676       13.172      853.633
05/04/2013  22:08:00       36.312      -43.753        5.602       26.010       40.126       22.530      676.544     1610.068      507.615        0.303        0.140       56.858       21.805        0.147      339.727       13.259      853.632
05/04/2013  22:09:00       11.495       18.340       44.556       23.546       30.472       13.638      554.436      928.557      186.004        0.206        0.083       21.645       14.221        0.432      339.710       13.231      853.633
05/04/2013  22:10:00        4.595      -23.336       23.181       15.629       28.105       17.239      244.275      789.878      297.191        0.122        0.067       23.784       10.164        0.183      339.777       13.344      853.628
05/04/2013  22:11:00        8.818      -35.729       13.893       18.768       19.151       24.598      352.245      366.763      605.067        0.144        0.066       36.801        7.789        0.045      339.756       13.308      853.621
05/04/2013  22:12:00       -8.947      -29.291       13.263       20.172       15.844       16.070      406.926      251.041      258.246        0.101        0.046       30.627       13.070        0.182      339.736       13.275      853.616
05/04/2013  22:13:00      -27.922        3.956        3.920       13.579       16.519        9.514      184.384      272.882       90.517        0.068        0.027       28.201        9.336        0.110      339.492       12.860      853.617
05/04/2013  22:14:00      -24.928       22.446       -5.424       13.526       10.460        5.747      182.963      109.419       33.031        0.074        0.016       33.545        5.829        0.030      339.450       12.793      853.609
05/04/2013  22:15:00       -8.674        7.453       12.080        8.907       11.436        8.981       79.333      130.784       80.663        0.028        0.015       11.436        6.917        0.366      339.449       12.790      853.594
05/04/2013  22:16:00        2.513        4.396        4.666        6.863        5.498        4.666       47.106       30.231       21.769        0.007        0.005        5.063        3.852        0.579      339.457       12.805      853.584
05/04/2013  22:17:00       -0.466       10.908       -5.497       12.676        9.980        6.975      160.671       99.607       48.646        0.023        0.015       10.918        7.720        0.500      339.500       12.874      853.572
05/04/2013  22:18:00      -70.758       -5.080      -10.362       24.728       19.191       10.984      611.468      368.312      120.647        0.312        0.055       70.940        7.126        0.010      339.528       12.919      853.566
05/04/2013  22:19:00     -116.481      -49.983       -0.957       40.015       28.743       16.768     1601.219      826.178      281.182        0.939        0.135      126.753       20.076        0.025      339.481       12.843      853.549
05/04/2013  22:20:00      -83.341      -17.642       -2.494       42.155       29.177       19.161     1777.059      851.270      367.135        0.513        0.150       85.188       19.478        0.052      339.334       12.597      853.538
05/04/2013  22:21:00     -103.552      -26.753       -2.321       28.491       25.275       18.021      811.722      638.829      324.773        0.661        0.089      106.952       16.598        0.024      339.287       12.516      853.535
05/04/2013  22:22:00      -41.724      -31.818        9.343       44.709       30.533       19.987     1998.918      932.243      399.473        0.309        0.167       52.472       17.437        0.110      339.317       12.568      853.533
05/04/2013  22:23:00      -83.011      -39.663       -0.434       29.246       27.606       19.098      855.339      762.070      364.729        0.522        0.099       92.000       16.647        0.033      339.280       12.503      853.541
05/04/2013  22:24:00      -88.693       -9.937        2.516       47.379       27.632       21.925     2244.733      763.513      480.708        0.573        0.174       89.248       25.252        0.080      339.274       12.494      853.533
05/04/2013  22:25:00     -123.728      -33.944      -15.900       31.308       26.193       20.993      980.163      686.096      440.715        0.941        0.105      128.300       17.537        0.019      339.318       12.569      853.539
05/04/2013  22:26:00     -106.515      -18.064      -10.803       32.838       36.919       17.328     1078.303     1363.039      300.266        0.726        0.137      108.035       18.102        0.028      339.272       12.493      853.536
05/04/2013  22:27:00      -97.053       18.056       -6.856       27.491       22.266       14.935      755.740      495.769      223.066        0.563        0.074       98.718       11.279        0.013      339.178       12.333      853.527
05/04/2013  22:28:00     -120.830       33.022       -8.331       34.782       26.482       14.577     1209.780      701.323      212.493        0.894        0.106      125.261        8.839        0.005      339.180       12.337      853.521
05/04/2013  22:29:00     -112.909       -7.094       -8.985       29.337       36.269       14.466      860.642     1315.449      209.253        0.763        0.119      113.131        9.812        0.008      339.203       12.376      853.512
05/04/2013  22:30:00      -56.575      -32.001       -3.291       35.056       24.728       18.074     1228.896      611.484      326.677        0.320        0.108       64.999       14.118        0.047      339.246       12.446      853.513
05/04/2013  22:31:00      -75.286      -20.697        0.803       37.851       34.013       19.687     1432.661     1156.860      387.570        0.454        0.149       78.079       12.560        0.026      339.091       12.187      853.523
05/04/2013  22:32:00     -125.735        2.969       -9.516       35.158       19.769       16.372     1236.088      390.798      268.031        0.890        0.095      125.770       19.458        0.024      338.940       11.934      853.517
05/04/2013  22:33:00      -63.831      -21.669        4.603       31.181       28.014       22.884      972.249      784.793      523.680        0.342        0.114       67.409       18.415        0.075      338.958       11.963      853.498
05/04/2013  22:34:00     -126.311        3.216      -15.854       30.769       22.203       17.770      946.752      492.986      315.785        0.899        0.088      126.352       18.165        0.021      338.911       11.884      853.479
05/04/2013  22:35:00     -112.895        3.984       -6.777       34.213       30.157       22.737     1170.551      909.449      516.974        0.770        0.130      112.965       17.929        0.025      338.923       11.905      853.475
05/04/2013  22:36:00     -104.469       34.053      -10.122       24.924       19.660       16.037      621.213      386.519      257.171        0.672        0.063      109.879       11.365        0.011      338.921       11.904      853.474
05/04/2013  22:37:00      -99.251      -29.396      -21.492       16.151       25.070       14.154      260.850      628.522      200.342        0.613        0.054      103.513       10.646        0.011      338.932       11.918      853.464
05/04/2013  22:38:00      -74.004      -29.307       -3.818       27.664       31.862       20.737      765.306     1015.166      430.041        0.428        0.111       79.596       17.793        0.050      338.959       11.966      853.453
05/04/2013  22:39:00     -130.328       -4.677       -8.220       41.604       34.681       25.949     1730.876     1202.803      673.365        1.034        0.180      130.412       28.292        0.047      338.871       11.817      853.435
05/04/2013  22:40:00     -117.878       -1.442      -10.293       40.136       26.479       18.938     1610.872      701.154      358.664        0.834        0.134      117.887       16.413        0.019      338.851       11.785      853.425
05/04/2013  22:41:00     -145.195       14.323      -13.154       32.474       19.402       18.508     1054.586      376.452      342.547        1.162        0.089      145.899       19.241        0.017      338.837       11.759      853.425
05/04/2013  22:42:00     -113.163        4.914      -15.481       23.946       37.497       16.933      573.408     1406.016      286.721        0.767        0.113      113.270       15.782        0.019      338.816       11.726      853.419
05/04/2013  22:43:00     -103.849       25.253      -13.352       29.674       33.835       17.747      880.556     1144.788      314.953        0.697        0.117      106.876       12.403        0.013      338.847       11.777      853.401
05/04/2013  22:44:00      -94.954      -22.685      -20.800       25.271       45.595       20.147      638.610     2078.921      405.900        0.654        0.156       97.626       17.706        0.033      338.903       11.872      853.395
05/04/2013  22:45:00      -62.400      -17.181       -8.259       21.370       25.111       19.576      456.680      630.538      383.209        0.286        0.074       64.722       10.086        0.024      338.882       11.835      853.411
05/04/2013  22:46:00      -76.370      -19.267      -19.029       27.861       19.999       17.898      776.222      399.964      320.333        0.403        0.075       78.763        7.499        0.009      338.891       11.849      853.432
05/04/2013  22:47:00      -71.414       -9.684      -13.447       24.626       23.986       15.992      606.451      575.332      255.750        0.341        0.072       72.067       13.505        0.035      338.899       11.865      853.423
05/04/2013  22:48:00      -68.631      -19.242       -7.975       23.251       27.638       14.788      540.622      763.845      218.681        0.333        0.076       71.278        9.482        0.018      338.877       11.825      853.408
05/04/2013  22:49:00      -85.270       -0.914       -9.242       35.647       25.319       20.215     1270.711      641.038      408.658        0.484        0.116       85.275       19.404        0.052      338.748       11.610      853.382
05/04/2013  22:50:00      -63.659       -1.341      -14.035       24.925       21.760       15.711      621.251      473.481      246.836        0.280        0.067       63.673       10.249        0.026      338.818       11.728      853.362
05/04/2013  22:51:00      -66.880      -11.455      -10.627       28.466       30.587       16.883      810.335      935.577      285.035        0.337        0.102       67.854       12.274        0.033      338.888       11.845      853.369
05/04/2013  22:52:00      -55.536      -17.112       -0.562       26.012       21.987       15.653      676.640      483.422      245.010        0.239        0.070       58.112       11.297        0.038      338.829       11.746      853.360
05/04/2013  22:53:00      -46.236      -20.723       -4.381       20.806       17.142       14.723      432.905      293.840      216.754        0.176        0.047       50.668        8.294        0.027      338.808       11.712      853.360
05/04/2013  22:54:00      -32.724      -20.230        3.734       18.659        8.635       10.554      348.173       74.560      111.389        0.101        0.027       38.472        5.546        0.021      338.865       11.806      853.361
05/04/2013  22:55:00      -18.279       -9.509        3.449       18.986        9.329       11.644      360.467       87.039      135.583        0.051        0.029       20.604       10.815        0.276      338.962       11.969      853.382
05/04/2013  22:56:00      -17.316        9.809        0.028       17.240       15.766       12.992      297.227      248.579      168.780        0.056        0.036       19.901       11.406        0.328      338.948       11.947      853.379
05/04/2013  22:57:00       26.660       20.806       -2.089        8.779       15.058        8.580       77.069      226.731       73.615        0.076        0.019       33.818        4.235        0.016      339.072       12.156      853.366
05/04/2013  22:58:00       24.696       28.333       -3.144       12.341       18.741        8.384      152.308      351.217       70.286        0.100        0.029       37.586        9.390        0.062      339.038       12.097      853.353
05/04/2013  22:59:00       -4.013       19.269       -5.641       12.774       11.906        8.239      163.163      141.761       67.880        0.040        0.019       19.682        2.415        0.015      339.161       12.302      853.349
05/04/2013  23:00:00      -12.984       -7.526       -1.975       15.380       12.743        8.232      236.551      162.383       67.773        0.035        0.023       15.008        7.015        0.218      339.119       12.234      853.354
05/04/2013  23:01:00        8.590        0.733       -0.549       12.163       11.812       13.711      147.932      139.531      187.994        0.027        0.024        8.622        9.088        1.111      339.113       12.223      853.371
05/04/2013  23:02:00       58.744       30.288       12.040       15.906       12.319       18.140      253.000      151.749      329.075        0.262        0.037       66.093        7.757        0.014      339.004       12.043      853.395
05/04/2013  23:03:00       37.846       22.948        1.778       24.497       10.998       13.320      600.092      120.964      177.427        0.143        0.045       44.260        4.877        0.012      338.973       11.989      853.402
05/04/2013  23:04:00       15.441       40.850       -3.038       13.133       22.961        7.056      172.477      527.219       49.794        0.133        0.037       43.671        7.482        0.029      339.033       12.089      853.404
05/04/2013  23:05:00       11.240       69.374       -9.590       10.222       15.112        9.216      104.481      228.362       84.942        0.272        0.021       70.278        7.461        0.011      339.082       12.172      853.396
05/04/2013  23:06:00      -10.679       65.409       -6.300       19.608       27.330       19.311      384.479      746.935      372.899        0.297        0.075       66.275       13.162        0.039      339.083       12.173      853.390
05/04/2013  23:07:00       -9.006       60.149       -9.003       20.744       32.307       14.056      430.317     1043.774      197.560        0.273        0.084       60.819       16.805        0.076      339.166       12.314      853.393
05/04/2013  23:08:00       -5.499      107.856      -11.038       20.639       23.403       13.581      425.975      547.683      184.449        0.647        0.058      107.996       14.436        0.018      339.292       12.526      853.398
05/04/2013  23:09:00       10.624      113.177      -14.790       16.713       17.309       10.440      279.315      299.599      109.000        0.691        0.034      113.675        9.912        0.008      339.235       12.429      853.402
05/04/2013  23:10:00       13.716      114.946      -15.509       16.264       20.264       13.235      264.530      410.612      175.168        0.725        0.043      115.761        8.744        0.006      339.227       12.416      853.410
05/04/2013  23:11:00       15.910       58.068        4.056       24.780       29.816       20.417      614.060      888.978      416.864        0.278        0.096       60.208       17.000        0.080      339.131       12.255      853.406
05/04/2013  23:12:00       16.667       47.177        2.005       23.675       33.658       22.371      560.519     1132.828      500.474        0.235        0.110       50.034       21.395        0.183      339.223       12.409      853.412
05/04/2013  23:13:00       15.724       74.710       -3.209       23.242       33.691       19.819      540.175     1135.054      392.806        0.395        0.103       76.347       13.425        0.031      339.172       12.322      853.412
05/04/2013  23:14:00       19.653      129.985      -14.831       22.886       39.249       17.601      523.755     1540.492      309.807        0.994        0.119      131.463       17.058        0.017      339.155       12.295      853.426
05/04/2013  23:15:00       15.893       74.974        3.512       30.191       45.662       30.918      911.470     2085.061      955.944        0.492        0.198       76.640       25.890        0.114      339.138       12.265      853.432
05/04/2013  23:16:00       90.683       55.977        5.528       25.156       26.718       20.600      632.847      713.853      424.353        0.658        0.089      106.568        9.650        0.008      339.169       12.318      853.435
05/04/2013  23:17:00       81.057       41.711        6.186       30.918       16.956       13.724      955.916      287.493      188.339        0.489        0.072       91.160        8.635        0.009      339.085       12.177      853.436
05/04/2013  23:18:00      118.981       42.815       10.129       40.068       27.448       24.191     1605.434      753.375      585.200        0.952        0.147      126.450       15.798        0.016      339.155       12.293      853.431
05/04/2013  23:19:00      104.004       53.371       32.013       54.059       46.586       38.755     2922.349     2170.281     1501.949        1.064        0.330      116.898       24.987        0.046      339.307       12.551      853.418
05/04/2013  23:20:00       87.429       51.434       28.597       33.883       27.017       22.053     1148.084      729.900      486.336        0.674        0.118      101.436       16.845        0.028      339.364       12.646      853.410
05/04/2013  23:21:00       73.376       44.366       16.052       30.075       20.693       28.238      904.525      428.210      797.364        0.487        0.107       85.746       19.427        0.051      339.375       12.665      853.402
05/04/2013  23:22:00       26.864       19.809        7.445       19.351       21.032       17.945      374.447      442.326      322.024        0.115        0.057       33.378       14.967        0.201      339.285       12.512      853.391
05/04/2013  23:23:00       38.450       29.514        4.253       20.774       15.824       15.123      431.540      250.403      228.707        0.164        0.046       48.471        7.303        0.023      339.264       12.476      853.370
05/04/2013  23:24:00       41.872       43.012        0.673       14.790        9.903        8.788      218.730       98.071       77.223        0.200        0.020       60.028        5.770        0.009      339.249       12.452      853.356
05/04/2013  23:25:00       23.992       40.298       -4.137       17.499       14.634       10.770      306.224      214.166      115.997        0.143        0.032       46.899        9.941        0.045      339.225       12.414      853.342
05/04/2013  23:26:00       15.331       52.094       -5.182       11.687       19.767       13.266      136.590      390.720      175.997        0.184        0.035       54.303       10.610        0.038      339.233       12.425      853.321
05/04/2013  23:27:00       18.797       86.499       -5.757       11.700       21.254       14.049      136.884      451.712      197.370        0.433        0.039       88.518        8.900        0.010      339.291       12.522      853.318
05/04/2013  23:28:00       12.400       63.412       -7.489       11.079       14.909        9.184      122.737      222.271       84.347        0.233        0.021       64.613        7.179        0.012      339.390       12.690      853.314
05/04/2013  23:29:00       12.311       65.006       -1.886        9.350       13.646        9.934       87.426      186.208       98.677        0.238        0.019       66.161        5.417        0.007      339.347       12.617      853.308
05/04/2013  23:30:00       19.645       63.034       -8.193       10.915       29.777       11.089      119.145      886.642      122.956        0.278        0.056       66.024       15.408        0.054      339.373       12.662      853.307
05/04/2013  23:31:00       12.807       77.247      -13.554       10.103        8.134        4.126      102.072       66.168       17.022        0.325        0.009       78.301        2.981        0.001      339.463       12.813      853.305
05/04/2013  23:32:00        4.298       68.742       -9.972        5.422        8.561        5.832       29.396       73.295       34.009        0.249        0.007       68.877        2.166        0.001      339.480       12.844      853.310
05/04/2013  23:33:00        7.266       73.072      -11.856        6.900        8.990        4.242       47.605       80.819       17.993        0.284        0.007       73.433        2.973        0.002      339.496       12.870      853.311
05/04/2013  23:34:00       -3.238       74.369       -6.903        9.186       14.274        5.340       84.387      203.740       28.514        0.295        0.016       74.440        5.413        0.005      339.452       12.795      853.316
05/04/2013  23:35:00      -11.894       57.921       -5.727       11.693       14.872        8.599      136.735      221.179       73.949        0.198        0.022       59.130        7.083        0.014      339.431       12.760      853.317
05/04/2013  23:36:00      -24.943       25.445       -5.804       22.112       31.652        8.591      488.952     1001.861       73.811        0.143        0.078       35.632        8.852        0.062      339.192       12.356      853.311
05/04/2013  23:37:00      -18.936        7.244       -2.679       20.048       10.988        9.477      401.905      120.745       89.804        0.052        0.031       20.274       10.874        0.288      339.183       12.343      853.305
05/04/2013  23:38:00      -10.555       -5.557       -2.467        7.685        6.177        6.695       59.063       38.161       44.827        0.015        0.007       11.929        2.949        0.061      339.072       12.156      853.292
05/04/2013  23:39:00       10.011        1.374       -0.294       13.095       12.999        7.421      171.484      168.986       55.068        0.025        0.020       10.105        7.001        0.480      339.217       12.398      853.288
05/04/2013  23:40:00       44.890       38.001       17.444       12.133       17.305       13.876      147.209      299.478      192.530        0.220        0.032       58.815        9.664        0.027      339.157       12.298      853.288
05/04/2013  23:41:00       46.620       39.144       12.525       11.464       12.273       17.366      131.417      150.627      301.571        0.222        0.029       60.874        9.377        0.024      338.929       11.914      853.282
05/04/2013  23:42:00       28.316       31.234       -5.455       13.172       10.330        7.845      173.490      106.700       61.539        0.107        0.017       42.158        6.459        0.023      338.838       11.760      853.271
05/04/2013  23:43:00        7.853       38.504       -7.488       11.401       18.642        7.754      129.975      347.526       60.124        0.107        0.027       39.296        9.389        0.057      339.080       12.169      853.251
05/04/2013  23:44:00       -2.279       92.955       -7.992       22.683       29.397       10.989      514.505      864.170      120.762        0.510        0.075       92.983       11.352        0.015      339.208       12.385      853.236
05/04/2013  23:45:00       52.024       53.518        0.598       26.740       19.741       16.229      715.015      389.721      263.395        0.347        0.068       74.637       10.223        0.019      339.139       12.267      853.233
05/04/2013  23:46:00        8.967       13.129       -1.861       17.041       25.010       10.169      290.409      625.482      103.410        0.064        0.051       15.898       11.867        0.557      338.945       11.941      853.245
05/04/2013  23:47:00        2.197       16.498       16.591       10.167       14.723       15.627      103.360      216.768      244.202        0.056        0.028       16.644        9.677        0.338      338.883       11.836      853.256
05/04/2013  23:48:00        2.597      -12.587        3.536        7.931        9.006       10.620       62.896       81.110      112.779        0.022        0.013       12.852        7.541        0.344      338.864       11.804      853.256
05/04/2013  23:49:00      -34.669      -20.230       -4.868       12.985       14.202        8.710      168.599      201.684       75.858        0.104        0.022       40.140        7.911        0.039      338.996       12.025      853.254
05/04/2013  23:50:00      -43.370        3.973       -8.212       10.795       10.121        6.168      116.529      102.437       38.041        0.111        0.013       43.551        5.127        0.014      338.857       11.793      853.252
05/04/2013  23:51:00      -76.328       18.246       -9.464       24.094       10.936        8.570      580.520      119.600       73.439        0.351        0.039       78.478        8.042        0.011      338.637       11.423      853.242
05/04/2013  23:52:00      -88.881        0.003      -13.738       36.346       24.504       17.819     1321.062      600.434      317.504        0.516        0.112       88.881       20.703        0.054      338.505       11.200      853.241
05/04/2013  23:53:00      -33.067       -6.678      -10.837       19.376       29.081       11.159      375.425      845.696      124.527        0.130        0.067       33.734       11.663        0.120      338.502       11.197      853.250
05/04/2013  23:54:00      -76.117       -3.569      -16.160       21.843       20.833       15.232      477.095      434.020      232.019        0.361        0.057       76.201       11.159        0.021      338.540       11.261      853.248
05/04/2013  23:55:00      -53.997       -9.879       -7.353       29.031       17.729       14.741      842.820      314.317      217.308        0.222        0.069       54.894       12.312        0.050      338.503       11.199      853.246
05/04/2013  23:56:00      -54.232       -6.404       -2.433       30.192       19.508       17.331      911.569      380.576      300.369        0.229        0.080       54.609       14.971        0.075      338.475       11.152      853.242
05/04/2013  23:57:00      -48.482      -12.910       -4.880       28.498       25.604       18.042      812.155      655.557      325.516        0.217        0.090       50.171       17.410        0.120      338.449       11.109      853.244
05/04/2013  23:58:00      -15.278       -1.864        0.841       23.969       26.720       16.100      574.510      713.960      259.195        0.089        0.077       15.392       11.103        0.520      338.476       11.154      853.249
05/04/2013  23:59:00      -81.545       10.061       -9.980       39.921       30.725       19.012     1593.669      944.013      361.441        0.487        0.145       82.164       16.284        0.039      338.506       11.203      853.259
